[[{"header":{"parameterUnit":"m.s-1","parameterCategory":1,"la1":30.6,"la2":29.2853,"lo1":-89.7004,"lo2":-87.6739,"dy":0.0162,"dx":0.0183,"nx":112,"ny":82,"refTime":"2025-08-26T12:00:00:Z","depth":0,"parameterNumber":2,"parameterNumberName":"U-component_of_WINDS"},"data":[0.0,0.0,0.0,0.0,0.0,0.0,0.0,0.0,0.0,0.0,0.0,0.0,0.0,0.0,0.0,0.0,0.0,0.0,0.0,0.0,0.0,0.0,0.0,0.0,0.0,0.0,0.0,0.0,0.0,0.0,0.0,0.0,0.0,0.0,0.0,0.0,0.0,0.0,0.0,0.0,0.0,0.0,0.0,0.0,0.0,0.0,0.0,0.0,0.0,0.0,0.0,0.0,0.0,0.0,0.0,0.0,0.0,0.0,0.0,0.0,0.0,0.0,0.0,0.0,0.0,0.0,0.0,0.0,0.0,0.0,0.0,0.0,0.0,0.0,0.0,0.0,0.0,0.0,0.0,0.0,0.0,0.0,0.0,0.0,0.0,0.0,0.0,0.0,0.0,0.0,0.0,2.2623,2.4539,2.5583,2.5444,2.3501,2.1867,2.0788,0.0,0.0,0.0,0.0,0.0,0.0,0.0,0.0,0.0,0.0,0.0,0.0,0.0,0.0,0.0,0.0,0.0,0.0,0.0,0.0,0.0,0.0,0.0,0.0,0.0,0.0,0.0,0.0,0.0,0.0,0.0,0.0,0.0,0.0,0.0,0.0,0.0,0.0,0.0,0.0,0.0,0.0,0.0,0.0,0.0,0.0,0.0,0.0,0.0,0.0,0.0,0.0,0.0,0.0,0.0,0.0,0.0,0.0,0.0,0.0,0.0,0.0,0.0,0.0,0.0,0.0,0.0,0.0,0.0,0.0,0.0,0.0,0.0,0.0,0.0,0.0,0.0,0.0,0.0,0.0,0.0,0.0,0.0,0.0,0.0,0.0,0.0,0.0,0.0,0.0,0.0,0.0,0.0,0.0,0.0,0.0,0.0,0.0,0.0,0.0,0.0,0.0,0.0,0.0,2.0707,2.3267,2.4134,2.4256,2.3494,2.206,2.0817,2.0029,0.0,0.0,0.0,0.0,0.0,0.0,0.0,0.0,0.0,0.0,0.0,0.0,0.0,0.0,0.0,0.0,0.0,0.0,0.0,0.0,0.0,0.0,0.0,0.0,0.0,0.0,0.0,0.0,0.0,0.0,0.0,0.0,0.0,0.0,0.0,0.0,0.0,0.0,0.0,0.0,0.0,0.0,0.0,0.0,0.0,0.0,0.0,0.0,0.0,0.0,0.0,0.0,0.0,0.0,0.0,0.0,0.0,0.0,0.0,0.0,0.0,0.0,0.0,0.0,0.0,0.0,0.0,0.0,0.0,0.0,0.0,0.0,0.0,0.0,0.0,0.0,0.0,0.0,0.0,0.0,0.0,0.0,0.0,0.0,0.0,0.0,0.0,0.0,0.0,0.0,0.0,0.0,0.0,0.0,0.0,0.0,0.0,0.0,0.0,0.0,0.0,0.0,0.0,1.942,2.1037,2.343,2.3956,2.3869,2.3167,2.1767,2.0473,1.9506,1.739,0.0,0.0,0.0,0.0,0.0,0.0,0.0,0.0,0.0,0.0,0.0,0.0,0.0,0.0,0.0,0.0,0.0,0.0,0.0,0.0,0.0,0.0,0.0,0.0,0.0,0.0,0.0,0.0,0.0,0.0,0.0,0.0,0.0,0.0,0.0,0.0,0.0,0.0,0.0,0.0,0.0,0.0,0.0,0.0,0.0,0.0,0.0,0.0,0.0,0.0,0.0,0.0,0.0,0.0,0.0,0.0,0.0,0.0,0.0,0.0,0.0,0.0,0.0,0.0,0.0,0.0,0.0,0.0,0.0,0.0,0.0,0.0,0.0,0.0,0.0,0.0,0.0,0.0,0.0,0.0,0.0,0.0,0.0,0.0,0.0,0.0,0.0,0.0,0.0,0.0,0.0,0.0,0.0,0.0,0.0,0.0,0.0,0.0,0.0,0.0,0.0,0.0,2.0039,2.1267,2.3207,2.3521,2.3287,2.2527,2.1173,1.9835,1.868,1.6359,0.0,0.0,0.0,0.0,0.0,0.0,0.0,0.0,0.0,0.0,0.0,0.0,0.0,0.0,0.0,0.0,0.0,0.0,0.0,0.0,0.0,0.0,0.0,0.0,0.0,0.0,0.0,0.0,0.0,0.0,0.0,0.0,0.0,0.0,0.0,0.0,0.0,0.0,0.0,0.0,0.0,0.0,0.0,0.0,0.0,0.0,0.0,0.0,0.0,0.0,0.0,0.0,0.0,0.0,0.0,0.0,0.0,0.0,0.0,0.0,0.0,0.0,0.0,0.0,0.0,0.0,0.0,0.0,0.0,0.0,0.0,0.0,0.0,0.0,0.0,0.0,0.0,0.0,0.0,0.0,0.0,0.0,0.0,0.0,0.0,0.0,0.0,0.0,0.0,0.0,0.0,0.0,0.0,0.0,0.0,0.0,0.0,0.0,0.0,0.0,0.0,0.0,1.9662,2.1204,2.2359,2.2505,2.1945,2.0455,1.9342,1.824,1.7153,1.484,0.0,0.0,0.0,0.0,0.0,0.0,0.0,0.0,0.0,0.0,0.0,0.0,0.0,0.0,0.0,0.0,0.0,0.0,0.0,0.0,0.0,0.0,0.0,0.0,0.0,0.0,0.0,0.0,0.0,0.0,0.0,0.0,0.0,0.0,0.0,0.0,0.0,0.0,0.0,0.0,0.0,0.0,0.0,0.0,0.0,0.0,0.0,0.0,0.0,0.0,0.0,0.0,0.0,0.0,0.0,0.0,0.0,0.0,0.0,0.0,0.0,0.0,0.0,0.0,0.0,0.0,0.0,0.0,0.0,0.0,0.0,0.0,0.0,0.0,0.0,0.0,0.0,0.0,0.0,0.0,0.0,0.0,0.0,0.0,0.0,0.0,0.0,0.0,0.0,0.0,0.0,0.0,0.0,0.0,0.0,0.0,0.0,0.0,0.0,0.0,0.0,0.0,1.9049,2.0225,0.0,2.1491,2.091,1.9541,1.8647,1.784,1.7065,0.0,0.0,0.0,0.0,0.0,0.0,0.0,0.0,0.0,0.0,0.0,0.0,0.0,0.0,0.0,0.0,0.0,0.0,0.0,0.0,0.0,0.0,0.0,0.0,0.0,0.0,0.0,0.0,0.0,0.0,0.0,0.0,0.0,0.0,0.0,0.0,0.0,0.0,0.0,0.0,0.0,0.0,0.0,0.0,0.0,0.0,0.0,0.0,0.0,0.0,0.0,0.0,0.0,0.0,0.0,0.0,0.0,0.0,0.0,0.0,0.0,0.0,0.0,0.0,0.0,0.0,0.0,0.0,0.0,0.0,0.0,0.0,0.0,0.0,0.0,0.0,0.0,0.0,0.0,0.0,0.0,0.0,0.0,0.0,0.0,0.0,0.0,0.0,0.0,0.0,0.0,0.0,0.0,0.0,0.0,0.0,0.0,0.0,0.0,0.0,0.0,0.0,1.7564,1.877,1.9876,0.0,2.0771,2.0193,1.8946,1.7965,1.7216,1.6682,0.0,0.0,0.0,0.0,0.0,0.0,0.0,0.0,0.0,0.0,0.0,0.0,0.0,0.0,0.0,0.0,0.0,0.0,0.0,0.0,0.0,0.0,0.0,0.0,0.0,0.0,0.0,0.0,0.0,0.0,0.0,0.0,0.0,0.0,0.0,0.0,0.0,0.0,0.0,0.0,0.0,0.0,0.0,0.0,0.0,0.0,0.0,0.0,0.0,0.0,0.0,0.0,0.0,0.0,0.0,0.0,0.0,0.0,0.0,0.0,0.0,0.0,0.0,0.0,0.0,0.0,0.0,0.0,0.0,0.0,0.0,0.0,0.0,0.0,0.0,0.0,0.0,0.0,0.0,0.0,0.0,0.0,0.0,0.0,0.0,0.0,0.0,0.0,0.0,0.0,0.0,0.0,0.0,0.0,0.0,0.0,0.0,0.0,0.0,0.0,0.0,0.0,1.6999,1.8952,2.0336,2.0278,2.0268,1.9814,1.8566,1.7209,1.6135,0.0,0.0,0.0,0.0,0.0,0.0,0.0,0.0,0.0,0.0,0.0,0.0,0.0,0.0,0.0,0.0,0.0,0.0,0.0,0.0,0.0,0.0,0.0,0.0,0.0,0.0,0.0,0.0,0.0,0.0,0.0,0.0,0.0,0.0,0.0,0.0,0.0,0.0,0.0,0.0,0.0,0.0,0.0,0.0,0.0,0.0,0.0,0.0,0.0,0.0,0.0,0.0,0.0,0.0,0.0,0.0,0.0,0.0,0.0,0.0,0.0,0.0,0.0,0.0,0.0,0.0,0.0,0.0,0.0,0.0,0.0,0.0,0.0,0.0,0.0,0.0,0.0,0.0,0.0,0.0,0.0,0.0,0.0,0.0,0.0,0.0,0.0,0.0,0.0,0.0,0.0,0.0,0.0,0.0,0.0,0.0,0.0,0.0,0.0,0.0,0.0,0.0,0.0,1.6809,1.8261,1.9084,1.8818,1.8803,1.8479,1.7638,1.6365,1.5581,1.5632,0.0,0.0,0.0,0.0,0.0,0.0,0.0,0.0,0.0,0.0,0.0,0.0,0.0,0.0,0.0,0.0,0.0,0.0,0.0,0.0,0.0,0.0,0.0,0.0,0.0,0.0,0.0,0.0,0.0,0.0,0.0,0.0,0.0,0.0,0.0,0.0,0.0,0.0,0.0,0.0,0.0,0.0,0.0,0.0,0.0,0.0,0.0,0.0,0.0,0.0,0.0,0.0,0.0,0.0,0.0,0.0,0.0,0.0,0.0,0.0,0.0,0.0,0.0,0.0,0.0,0.0,0.0,0.0,0.0,0.0,0.0,0.0,0.0,0.0,0.0,0.0,0.0,0.0,0.0,0.0,0.0,0.0,0.0,0.0,0.0,0.0,0.0,0.0,0.0,0.0,0.0,0.0,0.0,0.0,0.0,0.0,0.0,0.0,0.0,0.0,0.0,0.0,1.6234,1.7549,1.8253,1.7775,1.7668,1.7345,1.689,1.569,1.4908,1.4722,0.0,0.0,0.0,0.0,0.0,0.0,0.0,0.0,0.0,0.0,0.0,0.0,0.0,0.0,0.0,0.0,0.0,0.0,0.0,0.0,0.0,0.0,0.0,0.0,0.0,0.0,0.0,0.0,0.0,0.0,0.0,0.0,0.0,0.0,0.0,0.0,0.0,0.0,0.0,0.0,0.0,0.0,0.0,0.0,0.0,0.0,0.0,0.0,0.0,0.0,0.0,0.0,0.0,0.0,0.0,0.0,0.0,0.0,0.0,0.0,0.0,0.0,0.0,0.0,0.0,0.0,0.0,0.0,0.0,0.0,0.0,0.0,0.0,0.0,0.0,0.0,0.0,0.0,0.0,0.0,0.0,0.0,0.0,0.0,0.0,0.0,0.0,0.0,0.0,0.0,0.0,0.0,0.0,0.0,0.0,0.0,0.0,0.0,0.0,0.0,0.0,0.0,1.5464,1.6839,1.756,1.7079,1.6742,1.6473,1.6272,1.5204,1.4225,1.3464,0.0,0.0,0.0,0.0,0.0,0.0,0.0,0.0,0.0,0.0,0.0,0.0,0.0,0.0,0.0,0.0,0.0,0.0,0.0,0.0,0.0,0.0,0.0,0.0,0.0,0.0,0.0,0.0,0.0,0.0,0.0,0.0,0.0,0.0,0.0,0.0,0.0,0.0,0.0,0.0,0.0,0.0,0.0,0.0,0.0,0.0,0.0,0.0,0.0,0.0,0.0,0.0,0.0,0.0,0.0,0.0,0.0,0.0,0.0,0.0,1.2856,0.0,0.0,0.0,0.0,0.0,0.0,0.0,0.0,0.0,0.0,0.0,0.0,0.0,0.0,0.0,0.0,0.0,0.0,0.0,0.0,0.0,0.0,0.0,0.0,0.0,0.0,0.0,0.0,0.0,0.0,0.0,0.0,0.0,0.0,0.0,0.0,0.0,0.0,0.0,0.0,0.0,1.5357,1.5928,1.6245,1.6105,1.6044,1.5974,1.5903,1.4883,1.4098,1.3682,0.0,0.0,0.0,0.0,0.0,0.0,0.0,0.0,0.0,0.0,0.0,0.0,0.0,0.0,0.0,0.0,0.0,0.0,0.0,0.0,0.0,0.0,0.0,0.0,0.0,0.0,0.0,0.0,0.0,0.0,0.0,0.0,0.0,0.0,0.0,0.0,0.0,0.0,0.0,0.0,0.0,0.0,0.0,0.0,0.0,0.0,0.0,0.0,0.0,0.0,0.0,0.0,0.0,0.0,0.0,0.0,0.0,0.0,0.0,0.0,0.0,1.3655,0.0,0.0,0.0,0.0,0.0,0.0,0.0,0.0,0.0,0.0,0.0,0.0,0.0,0.0,0.0,0.0,0.0,0.0,0.0,0.0,0.0,0.0,0.0,0.0,0.0,0.0,0.0,0.0,0.0,0.0,0.0,0.0,0.0,0.0,0.0,0.0,0.0,0.0,0.0,0.0,1.5122,1.5314,1.5401,1.548,1.5196,1.5125,1.533,1.434,1.3509,1.3073,1.2077,0.0,0.0,0.0,0.0,0.0,0.0,0.0,0.0,0.0,0.0,0.0,0.0,0.0,0.0,0.0,0.0,0.0,0.0,0.0,0.0,0.0,0.0,0.0,0.0,0.0,0.0,0.0,0.0,0.0,0.0,0.0,0.0,0.0,0.0,0.0,0.0,0.0,0.0,0.0,0.0,0.0,0.0,0.0,0.0,0.0,0.0,0.0,0.0,0.0,0.0,0.0,0.0,0.0,0.9438,0.9307,0.9758,0.942,0.9543,0.9883,1.1778,1.2904,1.3577,0.0,0.0,0.0,0.0,0.0,0.0,0.0,0.0,0.0,0.0,0.0,0.0,0.0,0.0,0.0,0.0,0.0,0.0,0.0,0.0,0.0,0.0,0.0,0.0,0.0,1.6276,1.6084,0.0,0.0,0.0,0.0,0.0,0.0,0.0,0.0,0.0,0.0,0.0,0.0,1.4771,1.4774,1.484,1.4982,1.4482,1.4274,1.4697,1.3708,1.2885,1.2342,1.1737,1.1213,0.0,0.0,0.0,0.0,0.0,0.0,0.0,0.0,0.0,0.0,0.0,0.0,0.0,0.0,0.0,0.0,0.0,0.0,0.0,0.0,0.0,0.0,0.0,0.0,0.0,0.0,0.0,0.0,0.0,0.0,0.0,0.0,0.9814,0.9539,0.0,0.0,0.0,0.0,0.0,0.0,0.0,0.0,0.0,0.0,0.0,0.0,0.0,0.0,1.0372,0.9814,0.9315,0.9089,0.8377,0.7991,0.7905,0.7884,0.8419,0.9506,0.9733,0.0,1.2853,1.3587,0.0,0.0,0.0,0.0,0.0,0.0,0.0,0.0,0.0,0.0,0.0,0.0,0.0,0.0,0.0,0.0,0.0,0.0,0.0,0.0,0.0,0.0,1.6477,1.6291,1.618,1.6164,0.0,1.5852,1.5669,1.5566,0.0,0.0,0.0,0.0,0.0,0.0,0.0,0.0,1.4059,1.4255,1.4425,1.4274,1.4129,1.4065,1.3928,1.3517,1.3018,1.2347,1.1681,1.1328,1.1284,1.068,0.0,0.0,0.0,0.0,0.0,0.0,0.0,0.0,0.0,0.0,0.0,0.0,0.0,0.0,0.0,0.0,0.0,0.0,0.0,0.0,0.0,0.0,0.0,0.0,0.0,0.0,0.0,0.0,0.0,0.9691,0.9548,0.9491,1.002,1.0327,0.0,0.0,0.0,0.0,0.0,0.0,0.0,0.0,0.0,0.8713,0.9447,0.9451,0.8481,0.8816,0.8564,0.7928,0.7579,0.7514,0.7557,0.7557,0.7879,0.8423,0.9198,1.0296,1.1686,1.2927,1.399,1.4793,0.0,0.0,0.0,0.0,1.4875,1.5237,1.5584,1.6086,0.0,0.0,0.0,0.0,0.0,0.0,0.0,0.0,0.0,0.0,0.0,0.0,0.0,1.6095,1.6265,1.6257,1.6184,1.5968,1.5749,0.0,1.5318,1.5178,1.5003,0.0,0.0,0.0,0.0,0.0,1.4378,1.4158,1.4072,1.4129,1.3768,1.363,1.3645,1.312,1.2663,1.2249,1.1588,1.1177,1.1038,1.0678,1.0477,0.0,0.0,0.0,0.0,0.0,0.0,0.0,0.0,0.0,0.0,0.0,0.0,0.0,0.0,0.0,0.0,0.0,0.0,0.0,0.0,0.0,0.0,0.0,0.0,0.0,0.0,0.0,0.0,0.8872,0.8821,0.9021,0.92,0.9402,0.0,0.0,0.0,0.0,0.0,0.0,0.8002,0.8107,0.7848,0.7121,0.8013,0.7832,0.6505,0.7267,0.7316,0.6833,0.6833,0.7036,0.7543,0.7543,0.7543,0.7646,0.8627,0.9604,1.0849,1.2352,1.3501,1.4381,1.4608,1.4405,1.4001,1.409,1.4166,1.4289,1.5056,1.5591,1.6242,1.6983,0.0,1.639,1.6868,0.0,0.0,0.0,0.0,1.6193,1.6667,1.6308,1.5774,1.6034,1.6245,1.6237,1.617,1.599,1.5677,0.0,1.5388,1.5419,1.5043,0.0,0.0,0.0,0.0,1.4106,1.4364,1.4072,1.3863,1.392,1.3484,1.3273,1.3346,1.2834,1.2345,1.1982,1.1479,1.1035,1.0627,1.0573,1.0315,0.9897,0.0,0.0,0.0,0.0,0.0,0.0,0.0,0.0,0.0,0.0,0.0,0.0,0.0,0.0,0.0,0.0,0.0,0.0,0.0,0.0,0.0,0.0,0.0,0.0,0.0,0.0,0.0,0.0,0.0,0.7754,0.7514,0.0,0.0,0.0,0.0,0.8438,0.8375,0.8115,0.7483,0.7557,0.7243,0.6429,0.5758,0.5415,0.5322,0.4618,0.4716,0.5722,0.5722,0.6226,0.7238,0.7238,0.7341,0.7547,0.7437,0.852,1.0471,1.1321,1.2499,1.3627,1.3768,1.3722,1.3581,1.3707,1.3889,1.4082,1.4408,1.489,1.5479,1.6779,1.7121,1.7127,1.7454,1.7502,0.0,0.0,1.7434,1.6952,1.6691,1.6385,1.6072,1.6087,1.6087,1.6087,1.6087,1.582,1.5648,0.0,1.5057,1.4704,1.495,0.0,1.4386,1.4098,1.4295,1.4207,1.3499,1.3588,1.3717,1.3564,1.3346,1.3119,1.2973,1.2732,1.226,1.1483,1.1286,1.0961,1.0347,1.0168,0.9894,0.9621,0.9112,0.0,0.0,0.0,0.0,0.0,0.0,0.0,0.0,0.0,0.0,0.0,0.0,0.0,0.0,0.0,0.0,0.0,0.0,0.0,0.0,0.0,0.0,0.0,0.0,0.0,0.0,0.0,0.0,0.8218,0.7872,0.0,0.0,0.7483,0.7074,0.5932,0.5937,0.5968,0.5746,0.5794,0.5666,0.537,0.5101,0.4631,0.3958,0.3644,0.3644,0.406,0.4894,0.5485,0.5935,0.676,0.7125,0.7045,0.7138,0.8418,1.0369,1.0506,1.1601,1.3059,1.3157,1.2867,1.251,1.2609,1.2444,1.2444,1.3848,1.4453,1.4907,1.6507,1.6966,1.6987,1.6862,1.6791,1.6807,1.6883,1.6789,1.6597,1.6271,1.6082,1.594,1.5732,1.5756,1.5831,1.5673,1.5659,1.5651,1.5502,1.5023,1.4677,1.4976,1.4347,1.3931,1.4274,1.396,1.3715,1.366,1.3643,1.3572,1.3499,1.32,1.2973,1.29,1.2428,1.2009,1.1724,1.122,1.0724,1.0457,1.0084,0.9755,0.9536,0.9156,0.8862,0.0,0.0,0.0,0.0,0.0,0.0,0.0,0.0,0.0,0.0,0.0,0.0,0.0,0.0,0.0,0.0,0.0,0.0,0.0,0.0,0.0,0.0,0.0,0.0,0.0,0.0,0.7385,0.8082,0.7344,0.6793,0.6918,0.634,0.5623,0.4634,0.4704,0.4585,0.4266,0.4573,0.4608,0.4273,0.386,0.336,0.2657,0.2339,0.2339,0.2658,0.3507,0.4329,0.5112,0.595,0.6532,0.6969,0.7024,0.8296,1.0272,0.9826,1.0788,1.2565,1.2764,1.2467,1.198,1.198,1.1683,1.1482,1.3596,1.4746,1.5481,1.67,1.7011,1.6974,1.6755,1.6689,1.6689,1.6689,1.6616,1.6484,1.6287,1.6074,1.5862,1.5643,1.558,1.5582,1.5423,1.5499,1.5582,1.5423,1.5056,1.4729,1.4832,1.4198,1.3795,1.4097,1.3737,1.3472,1.3695,1.3572,1.3492,1.3492,1.3119,1.29,1.29,1.2254,1.1824,1.1724,1.106,1.0554,1.0333,0.9868,0.9472,0.934,0.8819,0.8337,0.7954,0.0,0.0,0.0,0.0,0.0,0.0,0.0,0.0,0.0,0.0,0.0,0.0,0.0,0.0,0.0,0.0,0.0,0.0,0.0,0.0,0.0,0.0,0.0,0.7405,0.7175,0.7015,0.7364,0.5786,0.5153,0.6205,0.4436,0.3626,0.4634,0.4736,0.4268,0.3207,0.4138,0.4275,0.3186,0.213,0.1599,0.16,0.0534,0.0534,0.16,0.16,0.2769,0.4994,0.4994,0.584,0.7211,0.6777,0.7945,1.0167,0.9195,1.0113,1.2078,1.2565,1.2467,1.198,1.198,1.1688,1.158,1.3596,1.5609,1.7326,1.7326,1.7326,1.7326,1.7326,1.7326,1.7326,1.7326,1.7106,1.6963,1.6948,1.6492,1.5943,1.5921,1.5672,1.5438,1.5431,1.5431,1.5431,1.5431,1.5174,1.4853,1.4538,1.4216,1.3887,1.3558,1.3514,0.0,1.3492,1.3492,1.3492,1.3492,1.3127,1.29,1.29,1.2326,1.1744,1.1443,1.0821,1.0346,1.0008,0.9419,0.9156,0.9156,0.7985,0.7389,0.721,0.0,0.0,0.0,0.0,0.0,0.0,0.0,0.0,0.0,0.0,0.0,0.0,0.0,0.0,0.0,0.0,0.0,0.0,0.0,0.0,0.0,0.0,0.7086,0.7248,0.6797,0.6418,0.6608,0.5477,0.4887,0.516,0.4004,0.3022,0.2519,0.2449,0.2371,0.2072,0.3142,0.3295,0.2057,0.2599,0.2072,0.0442,0.0111,0.0111,0.0442,0.1326,0.2523,0.3897,0.4762,0.5806,0.6904,0.7491,0.855,0.9965,1.0327,1.1321,1.2565,1.1883,1.1585,1.1394,1.1394,1.2257,1.3499,1.4076,1.5609,1.7326,1.7326,1.7326,1.7326,1.7326,1.7326,1.7326,1.7326,1.7267,1.7328,1.7802,1.7772,1.7515,1.7102,1.6907,1.6766,1.6441,1.5824,1.559,1.6221,1.5749,1.5189,1.4867,1.4545,1.4223,1.3894,1.385,0.0,1.3528,1.3492,1.3492,1.3492,1.3273,1.3046,1.29,1.2398,1.1884,1.1443,1.0821,1.0435,1.0286,0.9884,0.9652,0.9652,0.8641,0.8001,0.0,0.0,0.0,0.0,0.0,0.0,0.0,0.0,0.0,0.0,0.0,0.0,0.0,0.0,0.0,0.0,0.0,0.0,0.0,0.0,0.0,0.0,0.7138,0.6827,0.6889,0.6522,0.6303,0.6252,0.5376,0.4935,0.5434,0.4128,0.3123,0.2922,0.2971,0.2804,0.2408,0.298,0.2923,0.1764,0.1875,0.133,0.0,0.0,0.0,0.0,0.1232,0.2338,0.3527,0.474,0.592,0.0,0.7428,0.8479,0.9867,1.0112,1.1278,0.0,0.0,0.0,0.0,0.0,1.2543,1.4268,1.4268,1.5609,1.7326,1.7326,1.7326,1.7326,1.7326,1.7326,1.7326,1.7326,1.7326,1.7375,1.7819,1.7841,1.7602,1.7062,1.6831,1.6646,1.6216,1.5748,1.559,1.6064,1.5748,0.0,1.5174,1.4882,1.456,1.4231,1.4187,1.407,1.374,1.3623,1.3498,1.336,1.3119,1.29,1.2746,1.2326,0.0,0.0,0.0,1.052,1.0207,1.0001,0.0,0.0,0.0,0.0,0.0,0.0,0.0,0.0,0.5312,0.5117,0.0,0.0,0.0,0.0,0.0,0.0,0.0,0.0,0.0,0.0,0.0,0.0,0.0,0.0,0.0,0.0,0.689,0.6406,0.6585,0.6471,0.6287,0.6287,0.5383,0.5236,0.6337,0.4427,0.3626,0.4734,0.482,0.4386,0.3502,0.0,0.0,0.0,0.0,0.0112,0.0,0.0,0.0112,0.0224,0.1232,0.2463,0.3804,0.4923,0.604,0.7149,0.7267,0.8317,0.9943,0.9575,1.0697,1.2662,1.2175,1.198,1.1883,1.1394,1.2543,1.4268,1.4268,0.0,0.0,1.7326,1.7326,1.7326,1.7326,1.7326,1.7326,1.7326,1.7326,1.7326,1.7419,1.7298,1.7002,1.6677,1.6359,1.6048,1.5715,1.5536,1.5423,1.5506,1.5506,1.5431,1.5431,1.5189,1.4889,1.4575,1.4523,1.4406,1.4077,1.3852,1.3565,1.3278,0.0,0.0,1.2599,1.2215,1.1975,1.187,1.1307,1.0729,1.0079,1.006,0.973,0.887,0.8344,0.7623,0.6651,0.6132,0.5728,0.5379,0.5313,0.5042,0.0,0.0,0.0,0.0,0.0,0.0,0.0,0.0,0.0,0.0,0.0,0.0,0.0,0.0,0.0,0.7658,0.7144,0.6828,0.6637,0.6443,0.6404,0.6404,0.5422,0.5236,0.6337,0.4427,0.3626,0.4734,0.4152,0.3598,0.3398,0.3503,0.0,0.1791,0.1567,0.1009,0.0,0.0,0.0448,0.1456,0.0,0.0,0.5035,0.526,0.604,0.7265,0.8669,0.9334,0.9713,1.1313,1.2038,1.2175,1.2078,1.1785,1.1292,1.1194,1.2543,1.4268,1.4268,1.5609,1.7326,1.7326,1.7326,1.7326,1.7326,1.7326,0.0,1.7326,1.7326,1.7512,1.8334,1.8464,1.8331,1.7979,1.7722,1.729,1.6954,1.6095,1.559,1.6304,1.5906,1.5431,1.5431,1.5379,1.5226,1.4896,1.4853,1.4656,1.4165,1.383,1.3568,1.3346,1.3047,1.2746,1.2599,1.2545,1.2263,1.1884,1.1689,1.1321,1.0888,1.1304,1.0964,0.9834,0.8921,0.7961,0.6821,0.59,0.5457,0.5513,0.5072,0.4608,0.0,0.0,0.0,0.0,0.0,0.0,0.0,0.0,0.0,0.0,0.0,0.9009,0.8538,0.0,0.7893,0.6694,0.6289,0.6084,0.5748,0.5603,0.5837,0.6337,0.5937,0.5834,0.6337,0.5432,0.505,0.5609,0.5335,0.5118,0.5163,0.4192,0.3357,0.2686,0.1568,0.056,0.0,0.0,0.056,0.1791,0.2463,0.3692,0.5371,0.604,0.7035,0.8247,0.9127,1.0128,1.1124,1.2602,1.2946,1.2625,1.2705,1.2073,1.1194,1.1194,1.2543,1.4268,1.4268,1.5609,1.7326,1.7326,1.7326,1.7326,1.7326,1.7326,1.7326,1.7326,1.7326,1.7419,1.7878,1.8056,1.7972,1.7636,1.743,1.7171,1.6682,1.6115,1.5705,1.602,1.5665,1.5431,1.5431,1.5431,1.5372,1.5211,1.5189,1.4983,1.4417,1.4159,1.3839,1.3445,1.3223,1.2988,1.2912,1.2912,1.2775,1.2395,1.2222,1.1997,1.1676,1.1368,1.0958,1.0439,0.9094,0.8,0.7263,0.6347,0.5863,0.5553,0.5321,0.4858,0.0,0.0,0.0,0.0,0.0,0.0,0.0,0.0,1.0341,0.9097,0.8949,0.8831,0.8213,0.8247,0.7798,0.5736,0.5394,0.5239,0.4824,0.4634,0.4933,0.5934,0.6237,0.6437,0.6437,0.6437,0.6486,0.6608,0.6521,0.6533,0.665,0.4543,0.3245,0.3245,0.1344,0.0336,0.0336,0.056,0.1344,0.2463,0.3469,0.4587,0.5817,0.6821,0.8033,0.934,0.9779,1.1095,1.2921,1.3705,1.3796,1.3391,1.3492,1.2699,1.1487,1.1678,1.2926,1.4459,1.4651,1.5798,1.7326,1.7326,1.7326,1.7326,1.7326,1.7326,1.7326,1.7326,1.7333,1.7426,1.7426,1.7426,1.736,1.7194,1.7084,1.6808,1.6301,1.6001,1.584,1.5577,1.5474,1.5431,1.5431,1.5431,1.5431,1.5431,1.5431,1.5253,1.4739,1.4483,1.4107,1.3612,1.3392,1.3213,1.3213,1.3213,1.3127,1.2889,1.2702,1.2567,1.2327,1.1381,1.0909,1.0833,0.9261,0.817,0.7629,0.6784,0.6156,0.5908,0.5733,0.5285,1.4597,1.3934,1.3238,1.314,1.1971,1.0791,0.0,0.0,0.9091,0.8568,0.845,0.832,0.7742,0.7746,0.7382,0.5664,0.5548,0.5413,0.4832,0.4029,0.3827,0.4834,0.5834,0.6437,0.6437,0.6437,0.6486,0.6608,0.5782,0.5245,0.5448,0.3214,0.2015,0.2015,0.1791,0.1567,0.1567,0.2686,0.3804,0.5035,0.5146,0.5815,0.7043,0.7382,0.8149,0.9449,1.1538,1.3163,1.4344,1.4503,1.4214,1.3805,1.3882,1.3341,1.2662,1.3409,1.4172,1.5038,1.571,1.6567,1.7326,1.7326,1.7326,1.7326,1.7326,1.7326,1.7326,1.7326,1.7434,1.7628,1.7628,1.7807,1.7978,1.794,1.7529,1.7115,1.7041,1.6492,1.5906,1.587,1.5628,1.5431,1.5431,1.5431,1.5431,1.5431,1.5431,1.5333,1.5039,1.4618,1.4184,1.3987,1.352,1.3213,1.3213,1.3213,1.3048,1.2651,1.28,1.277,1.2352,1.2404,1.2099,1.1246,0.9847,0.8645,0.7804,0.6413,0.6068,0.6691,0.5994,0.546,1.3351,1.3123,1.2756,0.0,1.1505,1.0869,0.9504,0.8923,0.8476,0.7778,0.7741,0.7789,0.7653,0.7235,0.6371,0.0,0.42,0.3621,0.3224,0.262,0.262,0.3728,0.4228,0.4528,0.4528,0.4528,0.4583,0.4715,0.4336,0.4085,0.4311,0.3343,0.2798,0.2798,0.2798,0.2798,0.2798,0.3357,0.4252,0.5371,0.5592,0.626,0.7493,0.7715,0.8916,1.0988,1.3496,1.4967,1.5282,1.4982,1.473,1.4607,1.4686,1.4582,1.4196,1.3516,1.4082,1.5222,1.552,1.6386,1.7527,1.7527,1.7426,1.7333,1.7707,1.7621,1.7527,1.7707,1.7807,1.79,1.79,1.7994,1.8087,1.8087,1.7887,1.7644,1.7266,1.7011,1.6705,1.6144,1.6052,1.6072,1.5876,1.5846,1.5846,1.5846,1.5597,1.534,1.509,1.4885,1.4634,1.4296,1.3953,1.3721,1.3721,1.3721,1.3639,1.3474,1.3329,1.3136,1.2968,1.2304,1.1929,1.21,0.9831,0.8786,0.9226,0.7397,0.6653,0.6905,0.6638,0.6139,1.2522,0.0,0.0,1.1325,1.1369,1.1095,0.8839,0.8239,0.8028,0.7358,0.7292,0.7417,0.757,0.7044,0.6279,0.4971,0.3706,0.2818,0.262,0.1815,0.1714,0.2722,0.2519,0.2318,0.2318,0.2821,0.3266,0.3365,0.3072,0.3123,0.3549,0.3237,0.3245,0.358,0.3916,0.4139,0.4139,0.4474,0.5033,0.604,0.6149,0.6818,0.7718,0.8702,1.0343,1.2743,1.4911,1.5849,1.5753,1.5372,1.5131,1.5062,1.5331,1.5504,1.5242,1.4196,1.4758,1.5886,1.6001,1.6864,1.7815,1.7815,1.7714,1.7613,1.7986,1.7994,1.7815,1.8087,1.8179,1.8187,1.8187,1.8272,1.8272,1.8272,1.8272,1.8118,1.769,1.7561,1.743,1.668,1.6627,1.6514,1.627,1.6156,1.6087,1.6087,1.5839,1.5506,1.5249,1.5173,1.4915,1.4482,1.4243,1.4166,1.4088,1.4088,1.4088,1.3997,1.3652,1.3398,1.3313,1.2363,1.2135,1.2819,1.0095,0.9332,1.0715,0.8414,0.7497,0.7876,0.7329,0.6948,0.0,0.0,1.2939,1.2278,1.1717,1.084,0.9512,0.8438,0.7717,0.7454,0.7366,0.7417,0.757,0.7716,0.7324,0.5961,0.4963,0.4221,0.4024,0.1915,0.0808,0.1916,0.0908,0.0101,0.0,0.2017,0.3248,0.341,0.2317,0.2252,0.3489,0.244,0.2351,0.358,0.47,0.5371,0.5371,0.6485,0.7268,0.7496,0.7496,0.7715,0.8045,1.0672,1.2743,1.4169,1.5351,1.5747,1.5511,1.5493,1.5185,1.4825,1.5471,1.568,1.5534,1.6204,1.677,1.7326,1.8102,1.8288,1.8087,1.8087,1.8087,1.8087,1.8087,1.8087,1.8087,1.8087,1.828,1.8481,1.8481,1.8658,1.8735,1.8735,1.8658,1.8481,1.8465,1.801,1.7575,1.7552,1.7033,1.6591,1.6583,1.6308,1.6087,1.6087,1.6095,1.5997,1.5741,1.5333,1.4915,1.4482,1.4391,1.4321,1.4088,1.4088,1.3997,1.3737,1.3737,1.3483,1.3137,1.3052,1.3096,1.3103,1.0865,1.0424,1.1731,0.9051,0.8598,1.0177,0.8232,0.7658,1.2706,0.0,1.3373,1.2481,1.1866,1.1172,0.971,0.8528,0.7731,0.7461,0.7214,0.7122,0.7268,0.6694,0.6224,0.601,0.4968,0.4065,0.3316,0.2316,0.1613,0.1211,0.0808,0.0,0.0,0.0,0.0,0.1139,0.1475,0.1928,0.2398,0.3548,0.4364,0.481,0.5929,0.6596,0.6596,0.7157,0.7493,0.7607,0.8813,0.9467,0.9908,1.2309,1.3732,1.4277,1.5458,1.5741,1.5487,1.5312,1.5034,1.4795,1.586,1.6286,1.6393,1.7606,1.8172,1.8265,1.78,1.7994,1.8381,1.8381,1.828,1.8179,1.8458,1.8465,1.8381,1.8558,1.8643,1.8743,1.8743,1.8735,1.8827,1.8827,1.8735,1.8651,1.8574,1.8472,1.8308,1.79,1.7757,1.7548,1.7102,1.7014,1.6766,1.6358,1.5989,1.5824,1.5733,1.5333,1.5006,1.4915,1.4573,1.4398,1.4321,1.3646,1.3398,1.3913,1.3222,1.3132,1.3844,1.3498,1.3454,1.3656,1.2089,1.1673,1.25,1.092,1.0063,0.9918,0.906,0.819,1.2987,1.3441,1.3563,1.2735,1.2354,1.1817,1.0356,0.9158,0.8151,0.7763,0.7444,0.7105,0.6895,0.6294,0.5961,0.6356,0.5291,0.4168,0.3606,0.2919,0.2116,0.1111,0.0808,0.0,0.0,0.0,0.0,0.0718,0.1574,0.2456,0.3238,0.4858,0.5926,0.6262,0.7043,0.7487,0.7487,0.7601,0.7826,0.7937,0.9578,1.0668,1.1324,1.329,1.4379,1.4809,1.547,1.5602,1.5342,1.5077,1.4811,1.4649,1.5708,1.6393,1.677,1.7978,1.8542,1.8735,1.8079,1.8179,1.8566,1.8566,1.8465,1.8365,1.8735,1.8743,1.8658,1.8735,1.8827,1.8827,1.8827,1.892,1.9104,1.9104,1.9104,1.9012,1.8928,1.8827,1.8672,1.8261,1.83,1.816,1.7715,1.7437,1.7199,1.6786,1.6058,1.565,1.5824,1.5499,1.5166,1.4741,1.4398,1.3971,1.3464,1.3039,1.3089,1.3709,1.3366,1.3492,1.4304,1.4046,1.3733,1.3463,1.271,1.2477,1.2757,1.1999,1.1223,1.05,0.9816,0.8713,1.328,1.3521,1.3566,1.3138,1.3123,1.2711,1.1294,1.0069,0.9059,0.8426,0.8026,0.7512,0.0,0.0,0.66,0.6967,0.5727,0.4714,0.4787,0.3623,0.2418,0.0,0.0,0.0,0.0,0.0,0.0,0.2119,0.0,0.372,0.5951,0.625,0.6922,0.7934,0.8045,0.8045,0.8045,0.8045,0.8263,0.8595,1.0127,1.1437,1.2526,1.3727,1.4922,1.5879,1.5626,1.536,1.5089,1.4841,1.4564,1.4388,1.5146,1.5913,1.6676,1.7412,1.8164,1.8827,1.8735,1.8735,1.8827,1.8827,1.8827,1.8827,1.8827,1.8827,1.8827,1.8827,1.8827,1.8827,1.8827,1.9188,1.9646,1.9646,1.9637,1.9637,1.9637,1.9188,1.8827,1.8827,1.8541,1.8295,1.8295,1.7747,1.7302,1.7302,1.624,1.5521,1.6004,1.5824,1.5228,1.4126,1.3802,1.3215,1.1946,1.2564,1.3022,1.3185,1.3918,1.4493,1.4597,1.4611,1.4006,1.2775,1.2781,1.2797,1.2732,1.2339,1.2052,1.1955,1.0681,0.9316,1.3396,1.3823,1.4243,1.4122,1.3576,1.2939,1.24,1.1038,0.9598,0.8487,0.832,0.7859,0.0,0.0,0.0,0.5792,0.5106,0.0,0.4796,0.3823,0.0,0.2722,0.0,0.1341,0.1238,0.2397,0.0,0.0,0.4752,0.5443,0.6158,0.7065,0.7709,0.8045,0.8045,0.8045,0.8045,0.8263,0.8923,1.0123,1.1324,1.2635,1.3727,1.4917,1.5672,1.5885,1.5819,1.5529,1.5101,1.5034,1.4727,1.4388,1.5146,1.5913,1.6581,1.677,1.7699,1.8735,1.8164,1.8357,1.8827,1.8827,1.8827,1.8827,1.8827,1.8827,1.8827,1.8827,1.8827,1.892,1.9279,1.9463,1.9729,2.0011,2.011,2.011,2.011,1.9737,1.9371,1.9371,1.8806,1.8295,1.8295,1.7497,1.687,1.687,1.6082,1.5504,1.5543,1.4977,1.43,1.362,1.3471,1.351,1.3597,1.2898,1.3219,1.4639,1.3375,1.3411,1.5087,1.4259,1.3731,1.3611,1.4005,1.3837,1.3022,1.3511,1.3318,1.2533,1.117,0.9998,1.3716,1.4038,1.4329,1.4329,1.3835,1.3267,1.285,1.1623,1.0294,0.9148,0.8875,0.0,0.0,0.0,0.0,0.0,0.0,0.0,0.4734,0.4301,0.3723,0.0,0.236,0.0,0.2179,0.3474,0.4585,0.0,0.6226,0.6789,0.7285,0.7968,0.838,0.838,0.838,0.838,0.838,0.9144,0.9908,1.0672,1.2417,1.3511,1.4277,1.5351,1.5891,1.5885,0.0,1.5487,1.5101,1.4986,1.4684,1.4298,1.4771,1.5439,1.6103,1.6662,1.7598,1.8627,1.8804,1.9088,1.9379,1.9196,1.9279,1.9379,1.9188,1.9279,1.9379,1.9188,1.9279,1.9471,1.9554,1.9911,2.0275,2.0292,2.0464,2.0645,2.0645,2.0283,1.9828,1.9637,1.9208,1.8797,1.8533,1.7612,1.6952,1.6952,1.5824,1.5076,1.5002,1.4788,1.4356,1.3648,1.3264,1.2998,1.2814,1.2309,1.2523,1.3457,1.2727,1.3124,1.4816,1.4264,1.366,1.3216,1.4004,1.3806,1.2635,1.3414,1.3414,1.2823,1.156,1.0293,1.4099,1.4088,1.4088,1.4088,1.388,1.3541,1.3013,1.2007,1.0941,1.0003,0.0,0.88,0.7074,0.6077,0.5472,0.5198,0.0,0.4643,0.494,0.4757,0.4312,0.3725,0.2672,0.2395,0.3535,0.4654,0.581,0.6989,0.7217,0.7759,0.8632,0.8866,0.894,0.894,0.894,0.8937,0.9154,1.0131,1.0891,1.1219,1.3181,1.4277,1.4487,1.5458,1.5998,1.5986,0.0,0.0,1.5245,1.5014,1.4734,1.4449,1.4449,1.4994,1.5812,1.6828,1.777,1.8804,1.982,2.0292,2.0292,1.9828,2.0011,2.0201,1.9828,2.0011,2.0201,1.9828,2.0011,2.0201,1.9911,2.0365,2.0907,2.0564,2.0826,2.1087,2.1087,2.0736,2.0283,1.9828,1.9729,1.9554,1.9104,1.8026,1.7197,1.7197,1.5672,1.4514,1.4514,1.4727,1.4681,1.3761,1.3162,1.2362,1.1446,1.1651,1.175,1.1757,1.2336,1.3193,1.4286,1.4298,1.3709,1.2339,1.3511,1.3414,1.2052,1.2926,1.3414,1.3318,1.2047,1.0779,1.4153,1.4088,1.4088,1.4088,1.3734,1.33,1.2968,1.2209,0.0,0.0,0.9908,0.951,0.78,0.6834,0.6207,0.5817,0.0,0.0,0.0,0.0,0.3956,0.0,0.0,0.0,0.0,0.0,0.0,0.0,0.0,0.8676,0.8899,0.8923,0.894,0.894,0.894,0.9372,1.0347,1.0562,1.1655,1.3619,1.4056,1.4702,1.5672,1.5998,1.6217,1.6211,1.6368,0.0,1.6144,1.599,1.5777,1.5322,1.5322,1.6128,1.7217,1.6828,1.8041,1.992,1.953,2.0076,2.0817,2.0283,2.0201,2.0292,2.0201,2.0201,2.0292,2.0201,2.0201,2.0382,2.0637,2.0907,2.1087,2.1374,2.1553,2.1553,2.1553,2.1186,2.0736,2.0283,2.0201,2.011,2.0019,1.8472,1.7309,1.7309,1.5591,1.4343,1.4343,1.4056,1.3604,1.3047,1.3049,1.317,1.3444,1.307,1.3205,1.4011,1.3437,1.3471,1.4592,1.4394,1.3806,1.263,1.4382,1.428,1.2242,1.3902,1.479,1.4688,1.3414,1.2242,1.4166,1.4088,1.4088,1.4088,1.3778,1.3319,1.2718,0.0,0.0,0.0,1.0143,0.9876,0.863,0.0,0.0,0.0,0.0,0.0,0.0,0.0,0.0,0.0,0.0,0.0,0.0,0.0,0.0,0.0,0.0,0.0,0.894,0.894,0.8937,0.9158,0.9699,1.0347,1.1105,1.2299,1.3496,1.4589,1.5232,1.5773,1.6311,1.6418,1.653,1.653,1.663,0.0,1.6793,1.6298,1.6361,1.6682,1.5654,1.632,1.7855,1.7561,1.8588,2.0093,2.0447,2.0907,2.1365,2.1105,2.1015,2.1015,2.0736,2.0826,2.1015,2.0736,2.0826,2.1006,2.0997,2.1177,2.1365,2.1365,2.1553,2.1741,2.1741,2.1553,2.1275,2.0736,2.0645,2.0456,1.9629,1.8427,1.7304,1.6835,1.5629,1.4688,1.4496,1.427,1.4017,1.3637,1.3466,1.3446,1.3726,1.3262,1.2937,1.3125,1.3125,1.3414,1.4004,1.4382,1.3992,1.2926,1.419,1.4088,1.2533,1.3806,1.4783,1.5261,1.3902,1.2732,1.423,1.4166,1.4088,1.4088,1.3814,1.3333,1.2492,1.2024,0.0,0.0,1.0308,1.0104,0.9384,0.0,0.0,0.0,0.0,0.0,0.0,0.0,0.0,0.0,0.0,0.0,0.0,0.0,0.0,0.0,0.0,0.0,0.894,0.894,0.9158,0.9706,1.0566,1.1433,1.2191,1.4035,1.5114,1.5334,1.6299,1.673,1.673,1.6736,1.6942,1.7147,1.7252,0.0,0.0,1.7203,1.7442,1.8239,1.6599,1.6994,1.8495,1.8764,1.9413,2.0447,2.1374,2.1741,2.1741,2.1741,2.1741,2.1642,2.1275,2.1374,2.1642,2.1266,2.1454,2.1642,2.1266,2.1454,2.1642,2.1275,2.1463,2.1741,2.1741,2.1741,2.1553,2.1186,2.1177,2.0808,1.9621,1.8511,1.7584,1.6741,1.573,1.4987,1.479,1.479,1.4688,1.4586,1.4016,1.3636,1.3636,1.3249,1.2662,1.2073,1.2931,1.3505,1.3703,1.4663,1.4561,1.3505,1.4286,1.419,1.3113,1.3896,1.4771,1.554,1.4478,1.3119,1.4323,1.4243,1.4088,1.4088,1.3667,1.3086,1.2445,0.0,0.0,1.0681,1.0434,1.0308,1.0174,0.9484,0.0,0.0,0.0,0.8932,0.0,0.0,0.0,0.0,0.0,0.0,0.0,0.0,0.0,0.0,0.0,0.0,0.0,0.894,0.9372,1.0566,1.0891,1.2082,1.425,1.4793,1.5547,1.6518,1.6624,1.673,1.673,1.7067,1.7694,1.8617,1.8812,0.0,0.0,2.0123,1.9763,1.9589,1.8995,1.9338,2.0068,2.0158,2.0718,2.1553,2.1651,2.1741,2.1741,2.1741,2.1741,2.1731,2.1642,2.1642,2.1731,2.1642,2.1642,2.1731,2.1642,2.1642,2.1731,2.1642,2.1642,2.1741,2.1741,2.1741,2.1651,2.1642,2.1642,2.1553,2.1463,1.9695,1.8303,1.8211,1.6466,1.5083,1.5083,1.4885,1.4975,1.5635,1.4777,1.4202,1.4202,1.3727,1.3443,1.3346,1.4094,1.4561,1.4567,1.5812,1.5906,1.4854,1.5635,1.554,1.4561,1.5248,1.5635,1.5737,1.5445,1.4184,1.4932,1.4835,1.4741,1.425,1.3647,1.3053,1.2438,0.0,1.1263,1.0681,1.0561,1.0498,1.0498,1.0104,0.999,0.0,0.0,0.0,0.0,0.0,0.0,0.0,0.0,0.0,0.0,0.0,0.0,0.0,0.0,0.0,0.0,0.9919,1.0566,1.1105,1.2832,1.4234,1.5322,1.6187,1.6829,1.7265,1.7265,1.7265,1.7265,1.8094,1.8617,1.9124,1.9849,0.0,0.0,2.0367,2.049,2.1181,1.9597,1.9837,2.1087,2.0529,2.0898,2.1741,2.1919,2.1919,2.1919,2.2087,2.2087,2.2087,2.182,2.1741,2.1741,2.1741,2.1741,2.1741,2.1741,2.1741,2.1741,2.1741,2.1741,2.1741,2.1741,2.1741,2.1741,2.1741,2.1741,2.1553,2.0988,2.0158,1.9322,1.8688,1.7863,1.703,1.6292,1.6096,1.6089,1.6183,1.5432,1.5153,1.5629,1.554,1.5248,1.4854,1.571,1.6177,1.5893,1.6567,1.6567,1.5514,1.6103,1.5913,1.4854,1.5818,1.6211,1.6028,1.5933,1.4956,1.5435,1.5484,1.5502,1.4849,1.4219,1.3593,0.0,1.22,1.1423,1.0973,1.0744,1.0624,1.0624,1.0564,1.0653,1.1139,0.0,1.0668,0.0,0.0,0.0,0.0,0.0,0.0,0.0,0.0,0.0,0.0,0.0,0.0,0.0,1.1485,1.2234,1.2087,1.4234,1.5636,1.6299,1.7153,1.7582,1.7582,1.7582,1.7793,1.8094,1.8819,1.9539,2.0261,0.0,0.0,0.0,2.1396,2.151,2.228,2.0574,2.0633,2.1642,2.0997,2.1087,2.1741,2.2008,2.2097,2.2097,2.2353,2.2441,2.2353,2.1998,2.1909,2.1909,2.1909,2.182,2.183,2.1741,2.1741,2.1741,2.1741,2.1741,2.183,2.183,2.183,2.1909,2.183,2.183,2.1553,2.0808,2.0439,2.0068,1.9338,1.8972,1.8511,1.7584,1.739,1.739,1.7382,1.6828,1.6553,1.6756,1.6857,1.6567,1.6089,1.685,1.7131,1.6842,1.7318,1.7225,1.6466,1.6763,1.648,1.571,1.6393,1.6595,1.6312,1.6312,1.5534,1.5853,1.6084,1.6119,1.6111,1.5581,1.4885,0.0,1.296,1.1883,1.1549,1.0996,1.0624,1.0624,1.0795,1.1082,1.1376,1.1911,0.0,0.0,0.0,0.0,0.0,0.0,0.0,0.0,0.0,0.0,0.0,0.0,0.0,0.0,1.3694,1.4423,1.3285,1.4674,1.5968,1.7179,1.7483,1.7582,1.7582,1.7582,1.8199,1.9228,1.9228,2.0357,0.0,0.0,0.0,0.0,2.3703,2.3204,2.2811,2.2391,2.1989,2.1741,2.1731,2.1731,2.1741,2.2008,2.2097,2.2097,2.2353,2.2441,2.2441,2.2344,2.2344,2.2344,2.2344,2.2264,2.2008,2.1741,2.1741,2.1741,2.1741,2.1919,2.2097,2.2097,2.2264,2.2353,2.2097,2.2097,2.2008,2.1731,2.0907,2.0339,2.0257,1.943,1.8788,1.8788,1.8588,1.868,1.9347,1.9247,1.8688,1.739,1.7289,1.7117,1.6581,1.7052,1.7326,1.7326,1.78,1.8087,1.8087,1.7815,1.7527,1.7232,1.7066,1.6878,1.6588,1.6588,1.5913,1.5731,1.5779,1.5756,1.5043,1.4551,1.4089,1.3695,1.3107,1.2559,1.2282,1.2027,1.1779,1.1296,1.1255,1.1437,1.1686,1.1884,0.0,0.0,0.0,0.0,0.0,0.0,0.0,0.0,0.0,0.0,0.0,0.0,0.0,0.0,1.4202,1.4873,1.4764,1.6174,1.7041,1.7483,1.7582,1.7582,1.7582,1.8297,1.8916,1.9228,2.0775,0.0,0.0,0.0,0.0,0.0,2.3906,2.3666,2.3481,2.3065,2.2618,2.2379,2.219,2.2176,2.2176,2.2451,2.2539,2.2618,2.2794,2.2882,2.2882,2.2882,2.2608,2.2441,2.2441,2.2353,2.2264,2.2176,2.2176,2.2176,2.2008,2.2008,2.2097,2.2097,2.2185,2.2185,2.2264,2.2353,2.2264,2.2008,2.1731,2.1454,2.1275,2.0997,2.0538,1.9886,1.9786,1.9786,1.9985,1.9977,1.9803,1.9347,1.9355,1.9171,1.8719,1.8804,1.8719,1.8357,1.8988,1.9347,1.9347,1.908,1.8896,1.8796,1.8079,1.7527,1.7052,1.6972,1.6204,1.589,1.5995,1.6016,1.5401,1.4984,1.4614,1.4292,1.373,1.3219,1.2989,1.2696,1.2328,1.1608,1.1687,1.1781,1.1749,1.1984,0.0,0.0,0.0,0.0,0.0,0.0,0.0,0.0,0.0,0.0,0.0,0.0,0.0,0.0,0.0,1.5922,1.6166,1.7036,1.7526,1.7728,1.7745,1.7941,1.8337,1.8942,1.9585,2.0263,2.1828,0.0,0.0,0.0,0.0,0.0,2.43,2.3982,2.3523,2.3343,2.3013,2.2612,2.2447,2.2441,2.2441,2.2715,2.2803,2.2803,2.3047,2.3135,2.3135,2.3135,2.2882,2.2618,2.253,2.253,2.253,2.2441,2.2441,2.2353,2.2264,2.2274,2.2362,2.2362,2.2451,2.2441,2.2441,2.2441,2.2441,2.2185,2.2185,2.2176,2.1998,2.1909,2.1642,2.1078,2.0898,2.0808,2.0808,2.0808,2.0817,2.0835,2.0654,2.0456,2.0266,2.0266,2.0257,2.0158,2.0512,2.0692,2.0692,2.043,2.0076,1.9621,1.8627,1.7893,1.7613,1.7347,1.677,0.0,1.6593,1.6703,1.6637,1.6419,1.604,1.5633,1.4623,0.0,1.3743,1.3191,1.2458,1.1817,1.213,1.2294,1.1682,1.2264,0.0,0.0,0.0,0.0,0.0,0.0,0.0,0.0,0.0,0.0,0.0,0.0,0.0,0.0,0.0,1.7134,1.7428,1.7332,1.7503,1.8034,1.8012,1.8515,1.9506,1.9506,2.0426,2.2046,2.254,0.0,0.0,0.0,0.0,0.0,2.4685,2.4146,2.3123,2.3585,2.3161,2.2479,2.2451,2.2441,2.253,2.2706,2.2803,2.2891,2.3057,2.3135,2.3135,2.3135,2.3135,2.3057,2.2882,2.2803,2.2794,2.253,2.2441,2.2441,2.2432,2.2618,2.2803,2.2803,2.2969,2.2969,2.253,2.2618,2.2715,2.2185,2.2264,2.2441,2.2441,2.2274,2.2097,2.2097,2.1909,2.1741,2.1731,2.1731,2.182,2.1741,2.1365,2.1168,2.1338,2.1329,2.1676,2.2356,2.2199,2.212,2.212,2.1952,2.1239,2.0076,1.8812,1.8272,1.8172,1.7908,1.7621,1.7041,0.0,1.5537,1.5476,1.534,1.5245,0.0,1.479,1.4469,1.4469,0.0,1.3917,1.3568,1.3625,1.3557,1.3111,1.3336,0.0,0.0,0.0,0.0,0.0,0.0,0.0,0.0,0.0,0.0,0.0,0.0,0.0,0.0,0.0,1.6824,1.7099,1.786,1.8319,1.8669,1.8651,1.9231,2.0216,2.1,2.1639,2.2046,2.3336,0.0,0.0,0.0,0.0,2.4105,2.42,2.4066,2.3779,2.3751,2.3538,2.3147,2.2997,2.296,2.296,2.2969,2.3057,2.3057,2.3047,2.3135,2.3135,2.3135,2.3135,2.3057,2.3057,2.3057,2.3047,2.2969,2.296,2.2882,2.2706,2.2706,2.2803,2.2803,2.2803,2.2882,2.2969,2.2969,2.2969,2.2715,2.2715,2.2618,2.2432,2.2353,2.2353,2.2353,2.2264,2.2176,2.2008,2.2441,2.2706,2.253,2.1909,2.1624,2.1863,2.1854,2.2031,2.2356,2.2989,2.3357,2.3357,2.3086,2.2473,2.1239,2.0249,1.9712,1.9438,1.8643,1.8195,1.7424,1.6911,1.6267,1.6197,1.5965,1.5792,1.5792,1.5365,1.4902,0.0,0.0,1.4836,1.4212,1.414,1.4221,1.4205,1.3857,0.0,0.0,0.0,0.0,0.0,0.0,0.0,0.0,0.0,0.0,0.0,0.0,0.0,0.0,1.7326,1.7692,1.78,1.8784,1.9225,1.9101,1.9547,2.0215,2.1191,2.1763,2.2242,2.2547,2.3632,2.3903,0.0,0.0,0.0,2.3958,2.4152,2.3997,2.3638,2.3709,2.3573,2.3279,2.3135,2.3135,2.3135,2.3135,2.3135,2.3135,2.3135,2.3135,2.3135,2.3135,2.3232,2.3232,2.3135,2.3135,2.3135,2.3135,2.3135,2.3057,2.2969,2.2969,2.2969,2.2969,2.2969,2.2969,2.2969,2.3057,2.3057,2.2803,2.2882,2.2882,2.2706,2.2618,2.2618,2.2618,2.2362,2.2274,2.2274,2.2862,2.3125,2.2969,2.295,2.3115,2.3357,2.3357,2.3521,2.3953,2.4402,2.4584,2.4402,2.3877,2.327,2.2658,2.1587,2.0782,2.024,1.9637,1.892,1.81,1.8071,1.7916,1.7585,1.7336,1.705,1.6748,0.0,0.0,0.0,0.0,0.0,0.0,0.0,0.0,0.0,0.0,0.0,0.0,0.0,0.0,0.0,0.0,0.0,0.0,0.0,0.0,0.0,0.0,0.0,0.0,1.8249,1.888,1.8972,1.9968,2.0212,1.9703,2.0479,2.1421,2.2308,2.2308,2.2584,2.3154,2.3594,2.375,0.0,0.0,0.0,2.3721,2.4072,2.3799,2.3174,2.3545,2.3467,2.3135,2.3135,2.3222,2.3309,2.3309,2.3309,2.3222,2.3135,2.3144,2.3222,2.3387,2.3484,2.3493,2.3387,2.3309,2.3232,2.3232,2.3135,2.3144,2.3144,2.3144,2.3135,2.3135,2.3135,2.3047,2.2882,2.2969,2.3057,2.2882,2.2969,2.3135,2.3135,2.2969,2.2891,2.2891,2.2539,2.2274,2.2441,2.3105,2.3454,2.3309,2.4166,2.485,2.5031,2.4946,2.5211,2.5895,2.5738,2.5549,2.5285,2.4498,2.4059,2.3973,2.2824,2.1845,2.1042,2.0602,1.9812,2.036,2.0162,1.9254,1.7641,1.819,1.8731,1.706,1.6914,0.0,0.0,0.0,0.0,0.0,0.0,0.0,0.0,0.0,0.0,0.0,0.0,0.0,0.0,0.0,0.0,0.0,0.0,0.0,0.0,0.0,0.0,0.0,0.0,1.9155,1.996,2.0962,2.1454,2.1329,2.1482,2.203,2.2969,2.2969,2.3027,2.3154,2.3594,2.3584,0.0,0.0,2.3643,2.3242,2.331,2.3252,2.3144,2.3213,2.3193,2.3135,2.3135,2.356,2.4327,2.4327,2.3993,2.3667,2.3493,2.358,2.3831,2.4553,2.4317,2.3917,2.4638,2.4231,2.3667,2.3667,2.358,2.3416,2.3416,2.3232,2.3135,2.3135,2.3135,2.3057,2.3057,2.3047,2.3057,2.3057,2.3047,2.3135,2.3135,2.3057,2.3047,2.3047,2.2969,2.2882,2.2706,2.3724,2.4241,2.4079,2.5031,2.5717,2.5728,2.52,2.5211,2.5895,2.5895,2.5728,2.5559,2.5391,2.52,2.502,2.3973,2.3444,2.326,2.1391,2.0421,2.0279,2.0568,2.0424,1.94,1.9114,1.8854,1.7937,1.7272,0.0,0.0,0.0,0.0,0.0,0.0,0.0,0.0,0.0,0.0,0.0,0.0,0.0,0.0,0.0,0.0,0.0,0.0,0.0,0.0,0.0,0.0,0.0,0.0,2.0602,2.0962,2.205,2.2687,2.2687,2.2775,2.295,2.3135,2.3135,2.3135,2.3144,2.335,2.333,2.3154,0.0,2.332,2.3135,2.3135,2.3396,2.3907,2.3907,2.4145,2.4563,2.4713,2.5052,2.5568,2.5568,2.5073,2.4563,2.4988,2.4819,2.4638,2.5557,2.5652,2.5484,2.5891,2.4904,2.3667,2.3754,2.3667,2.3503,2.3677,2.358,2.3493,2.3319,2.3319,2.3232,2.3144,2.3135,2.3135,2.3135,2.3135,2.3135,2.3135,2.3135,2.3135,2.3135,2.2969,2.2969,2.2969,2.3724,2.4413,2.468,2.5454,2.5884,2.5895,2.5633,2.5549,2.5906,2.5895,2.5822,2.5728,2.5391,2.538,2.5549,2.4669,2.4145,2.3963,2.2814,2.1845,2.0125,2.0531,2.0925,2.0984,0.0,1.9284,1.9053,1.82,0.0,0.0,0.0,0.0,0.0,0.0,0.0,0.0,0.0,0.0,0.0,0.0,0.0,0.0,0.0,0.0,0.0,0.0,0.0,0.0,0.0,0.0,0.0,0.0,2.1784,2.2059,2.296,2.3503,2.3503,2.3667,2.358,2.3232,2.3396,2.3474,2.3464,2.3637,2.3724,2.38,2.3724,2.3724,2.3724,2.3724,2.4145,2.4904,2.4904,2.5316,2.5986,2.6295,2.6461,2.6565,2.673,2.6295,2.5714,2.6389,2.6141,2.5714,2.6719,2.6894,2.6894,2.7139,2.583,2.4251,2.4251,2.4013,2.3677,2.3851,2.3841,2.3754,2.358,2.358,2.3493,2.3232,2.3232,2.3135,2.3135,2.3309,2.3396,2.3396,2.356,2.3724,2.3724,2.356,2.356,2.3724,2.4307,2.4904,2.5611,2.603,2.6196,2.6218,2.5979,2.5895,2.5895,2.5895,2.5895,2.5895,2.538,2.538,2.5895,2.52,2.4754,2.4488,2.3877,2.3008,2.1079,2.0763,2.0335,2.136,2.1521,2.1233,2.0546,2.0302,0.0,1.9229,0.0,0.0,0.0,0.0,0.0,0.0,0.0,0.0,0.0,0.0,0.0,0.0,0.0,0.0,0.0,0.0,0.0,0.0,0.0,0.0,0.0,0.0,0.0,2.296,2.3319,2.3503,2.3503,2.3667,2.3667,2.3503,2.4251,2.4648,2.4702,2.5316,2.5724,2.5859,2.5724,2.5568,2.5568,2.5568,2.5724,2.5953,2.5953,2.6213,2.6565,2.7139,2.7139,2.6894,2.7476,2.7395,2.6905,2.6812,2.6894,2.7139,2.8051,2.7718,2.7232,2.8131,2.7464,2.64,2.5819,2.4935,2.412,2.4206,2.4024,2.3841,2.3754,2.3754,2.3754,2.3503,2.3503,2.3406,2.3144,2.382,2.4413,2.4413,2.5073,2.5568,2.5568,2.5568,2.5568,2.5568,2.6008,2.6517,2.701,2.7103,2.7103,2.7103,2.6385,2.5895,2.5895,2.5895,2.5895,2.5895,2.5812,2.5812,2.5895,2.5812,2.5812,2.5728,2.3973,2.3444,2.0326,2.0353,2.0523,2.1606,2.1811,0.0,0.0,2.0209,2.0144,1.9728,1.9739,0.0,0.0,0.0,0.0,0.0,0.0,0.0,0.0,0.0,0.0,0.0,0.0,0.0,0.0,0.0,0.0,0.0,0.0,0.0,0.0,0.0,0.0,2.3493,2.3764,2.3937,2.3937,2.411,2.4433,2.4744,2.4893,2.5305,2.5891,2.6141,2.6307,2.6378,2.6235,2.6235,2.6235,2.6235,2.6637,2.7209,2.7787,2.8119,2.8347,2.8597,2.87,2.8712,2.8961,2.8554,2.8051,2.8542,2.8383,2.8131,2.904,2.9052,2.8882,2.9209,2.8633,2.7637,2.6823,2.6246,2.5841,2.5997,2.5913,2.583,2.5663,2.5652,2.54,2.4638,2.4988,2.5073,2.4327,2.4893,2.5473,2.5326,2.5579,2.5819,2.5819,2.5819,2.5819,2.5819,2.6505,2.6857,2.6764,2.729,2.7534,2.7185,2.661,2.6373,2.6704,2.6229,2.6063,2.629,2.5622,2.5464,2.5895,2.502,2.485,2.5211,2.4059,2.3454,2.0191,2.031,2.0715,2.1636,0.0,0.0,2.0698,2.0663,2.0752,2.0547,2.042,0.0,0.0,0.0,0.0,0.0,0.0,0.0,0.0,0.0,0.0,0.0,0.0,0.0,0.0,0.0,0.0,0.0,0.0,0.0,0.0,0.0,0.0,0.0,2.4024,2.4206,2.4206,2.4368,2.4861,2.5579,2.5724,2.6213,2.7046,2.7221,2.7383,2.7371,2.7383,2.7302,2.7302,2.7302,2.7718,2.8371,2.8949,2.9365,2.9509,2.9419,2.9599,2.9792,2.9792,2.9378,2.904,2.9624,2.9378,2.904,2.9624,2.9792,2.9792,2.9792,2.9378,2.8791,2.8131,2.7395,2.6894,2.7069,2.7069,2.7069,2.6894,2.6894,2.6648,2.5797,2.6141,2.6318,2.5495,2.6058,2.6625,2.6483,2.6648,2.6812,2.6812,2.6812,2.6812,2.673,2.7255,2.751,2.7185,2.7696,2.795,2.7592,2.7196,2.7033,2.7185,2.6622,2.6456,2.6693,2.603,2.5779,2.6052,2.5084,2.4744,2.4861,2.4145,2.3541,2.0904,2.0784,2.0803,0.0,0.0,0.0,2.2016,2.2286,2.2223,2.1899,0.0,0.0,0.0,0.0,0.0,0.0,0.0,0.0,0.0,0.0,0.0,0.0,0.0,0.0,0.0,0.0,0.0,0.0,0.0,0.0,0.0,0.0,0.0,0.0,2.411,2.4196,2.4206,2.4454,2.4946,2.5819,2.673,2.7464,2.8096,2.8791,2.9209,2.9419,2.9197,2.9131,2.9131,2.9131,2.9197,2.9419,2.9419,2.9599,2.9792,2.9509,2.9599,2.9792,2.9792,2.9792,2.9792,2.9792,2.9792,2.9792,2.9792,2.9792,2.9792,2.9792,2.9792,2.9792,2.9792,2.8474,2.7151,2.7151,2.7151,2.7151,2.7151,2.7151,2.7058,2.6894,2.6812,2.673,2.6565,2.7221,2.7799,2.7799,2.8554,2.9131,2.9131,2.9131,2.904,2.8791,2.8657,2.851,2.851,2.851,2.851,2.851,2.8122,2.7708,2.7267,2.7185,2.7185,2.7174,2.7185,2.694,2.6517,2.6528,2.5946,2.4861,2.4155,2.38,2.0295,2.0639,0.0,2.1443,0.0,0.0,0.0,2.3306,0.0,0.0,0.0,0.0,0.0,0.0,0.0,0.0,0.0,0.0,0.0,0.0,0.0,0.0,0.0,0.0,0.0,0.0,0.0,0.0,0.0,0.0,0.0,0.0,0.0,0.0,2.5589,2.5924,2.5337,2.6008,2.6823,2.7718,2.7959,2.8211,2.845,2.9209,2.9624,2.9702,2.9624,2.9624,2.9624,2.9624,2.9624,2.9702,2.9702,2.9702,2.9792,2.9702,2.9702,2.9792,2.9792,2.9792,2.9792,2.9792,2.9792,2.9792,2.9792,2.9792,2.9792,2.9792,2.9792,2.9792,2.9792,2.9378,2.8961,2.8961,2.8961,2.8961,2.8961,2.8961,2.8791,2.8131,2.8462,2.8633,2.7799,2.8371,2.8858,2.8724,2.8961,2.9131,2.9131,2.9131,2.9052,2.9052,2.8973,2.8895,2.8895,2.8803,2.8724,2.8724,2.851,2.8271,2.8099,2.751,2.7021,2.6693,2.7021,2.6846,2.6102,2.5924,2.5663,2.5253,2.381,2.3135,2.0904,2.1129,0.0,2.2585,2.3269,0.0,0.0,0.0,0.0,0.0,0.0,0.0,0.0,0.0,0.0,0.0,0.0,0.0,0.0,0.0,0.0,0.0,0.0,0.0,0.0,0.0,0.0,0.0,0.0,0.0,0.0,0.0,0.0,0.0,2.6577,2.6812,2.6318,2.6812,2.7395,2.7971,2.8303,2.8462,2.8542,2.9378,2.9792,2.9792,2.9792,2.9792,2.9792,2.9792,2.9792,2.9792,2.9792,2.9792,2.9792,2.9792,2.9792,2.9792,2.9792,2.9792,2.9792,2.9792,2.9792,2.9792,2.9792,2.9792,2.9792,2.9792,2.9792,2.9792,2.9792,2.9792,2.9792,2.9792,2.9792,2.9792,2.9792,2.9792,2.9624,2.9131,2.9456,2.9546,2.8882,2.9197,2.9521,2.9378,2.9378,2.9378,2.9378,2.9287,2.9197,2.9197,2.9131,2.9131,2.9131,2.8961,2.8882,2.8882,2.8816,2.8749,2.8749,2.8087,2.7603,2.7267,2.7267,2.6846,2.6102,2.5589,2.5168,2.4659,2.357,2.2891,2.2216,0.0,0.0,0.0,0.0,0.0,0.0,0.0,0.0,0.0,0.0,0.0,0.0,0.0,0.0,0.0,0.0,0.0,0.0,0.0,0.0,0.0,0.0,0.0,0.0,0.0,0.0,0.0,0.0,0.0,0.0,0.0,0.0,0.0,2.7232,2.7313,2.7232,2.7313,2.7313,0.0,2.8211,2.8633,2.8633,2.9456,2.9792,2.9792,2.9792,2.9792,2.9792,2.9792,2.9792,2.9792,2.9792,2.9792,2.9792,2.9792,2.9792,2.9792,2.9792,2.9792,2.9792,2.9792,2.9792,2.9792,2.9792,2.9792,2.9792,2.9792,2.9792,2.9792,2.9792,2.9792,2.9792,2.9792,2.9792,2.9792,2.9792,2.9792,2.9792,2.9792,2.9792,2.9792,2.9792,2.9792,2.9792,2.9792,2.9792,2.9792,2.9792,2.9611,2.9419,2.9419,2.9287,2.9131,2.9131,2.9131,2.9131,2.9131,2.9131,2.9131,2.9131,2.8736,2.851,2.8419,2.7592,2.694,2.6434,2.5611,2.469,2.3667,2.359,2.3144,2.1712,2.1749,0.0,0.0,0.0,0.0,0.0,0.0,0.0,0.0,0.0,0.0,0.0,0.0,0.0,0.0,0.0,0.0,0.0,0.0,0.0,0.0,0.0,0.0,0.0,0.0,0.0,0.0,0.0,0.0,0.0,0.0,0.0,2.7058,2.8474,2.8882,2.8211,2.8882,2.9209,0.0,2.9456,2.9534,2.9546,2.9702,2.9792,2.9792,2.9792,2.9792,2.9792,2.9792,2.9792,2.9792,2.9792,2.9792,2.9792,2.9792,2.9792,2.9792,2.9792,2.9792,2.9792,2.9792,2.9792,2.9792,2.9792,2.9792,2.9792,2.9792,2.9792,2.9792,2.9792,2.9792,2.9792,2.9792,2.9792,2.9792,2.9792,2.9792,2.9792,2.9792,2.9792,2.9792,2.9792,2.9792,2.9792,2.9792,2.9792,2.9792,2.9792,2.9792,2.9702,2.9702,2.9702,2.9624,2.9624,2.9443,2.9341,2.9341,2.9197,2.9131,2.9131,2.8882,2.8395,2.773,2.7418,2.6764,2.5913,2.5443,2.5115,2.4775,2.3927,2.3416,0.0,0.0,0.0,0.0,0.0,0.0,0.0,0.0,0.0,0.0,0.0,0.0,0.0,0.0,0.0,0.0,0.0,0.0,0.0,0.0,0.0,0.0,0.0,0.0,0.0,0.0,0.0,0.0,0.0,0.0,0.0,2.7557,2.7971,2.8383,2.93,2.9546,2.9131,2.9546,2.9869,2.9934,2.9869,2.9792,2.9792,2.9792,2.9792,2.9792,2.9792,2.9792,2.9792,2.9792,2.9792,2.9792,2.9792,2.9792,2.9792,2.9792,2.9792,2.9792,2.9792,2.9792,2.9792,2.9792,2.9792,2.9792,2.9792,2.9792,2.9792,2.9792,2.9792,2.9792,2.9792,2.9792,2.9792,2.9792,2.9792,2.9792,2.9792,2.9792,2.9792,2.9792,2.9792,2.9792,2.9792,2.9792,2.9792,2.9792,2.9792,2.9792,2.9792,2.9792,2.9792,2.9792,2.9792,2.9792,2.9792,2.9689,2.9599,2.9599,2.9456,2.9468,2.9468,2.8803,2.8383,2.8303,2.7313,2.6659,2.6152,2.5411,2.4744,2.4348,2.3667,2.3319,0.0,0.0,2.333,0.0,0.0,0.0,0.0,0.0,0.0,0.0,0.0,0.0,0.0,0.0,0.0,0.0,0.0,0.0,0.0,0.0,0.0,0.0,0.0,0.0,0.0,0.0,0.0,0.0,0.0,0.0,2.845,2.8462,2.887,2.9792,2.9869,2.9869,2.9869,2.9869,2.9934,3.0075,2.9934,2.9869,2.9869,2.9869,2.9869,2.9869,2.9792,2.9792,2.9869,2.9792,2.9792,2.9792,2.9792,2.9792,2.9792,2.9792,2.9792,2.9792,2.9792,2.9792,2.9792,2.9869,2.9869,2.9869,2.9869,2.9869,2.9869,2.9792,2.9792,2.9792,2.9792,2.9792,2.9792,2.9792,2.9792,2.9792,2.9792,2.9792,2.9792,2.9792,2.9792,2.9792,2.9792,2.9792,2.9792,2.9792,2.9792,2.9792,2.9792,2.9792,2.9792,2.9792,2.9792,2.9792,2.9792,2.9792,2.9792,2.9792,2.9792,2.9792,2.9792,2.8712,2.8474,2.8973,2.7221,2.6235,2.6235,2.5136,2.4145,2.3416,2.3232,2.3135,0.0,0.0,0.0,0.0,0.0,0.0,0.0,0.0,0.0,0.0,0.0,0.0,0.0,0.0,0.0,0.0,0.0,0.0,0.0,0.0,0.0,0.0,0.0,0.0,0.0,0.0,0.0,0.0,0.0,0.0,2.8438,2.8462,2.887,2.9792,2.9934,3.0088,3.0088,3.0228,3.0216,3.0075,3.0075,3.0088,3.0088,3.0088,3.0088,3.0088,2.9869,2.9856,3.0088,2.9869,2.9792,2.9792,2.9792,2.9792,2.9792,2.9792,2.9792,2.9792,2.9792,2.9792,2.9869,3.0011,3.0088,3.0088,3.0088,3.0088,3.0011,2.9869,2.9792,2.9792,2.9792,2.9792,2.9792,2.9792,2.9792,2.9792,2.9792,2.9792,2.9792,2.9792,2.9792,2.9792,2.9792,2.9792,2.9792,2.9792,2.9792,2.9792,2.9792,2.9792,2.9792,2.9792,2.9792,2.9792,2.9792,2.9792,2.9792,2.9792,2.9792,2.9792,2.9792,2.8961,2.8462,2.8542,2.6505,2.5263,2.4988,2.4079,2.3484,2.3135,2.3135,2.3135,2.2111,0.0,0.0,0.0,0.0,0.0,0.0,0.0,0.0,0.0,0.0,0.0,0.0,0.0,0.0,0.0,0.0,0.0,0.0,0.0,0.0,0.0,0.0,0.0,0.0,0.0,0.0,0.0,0.0,2.8009,2.8728,2.9036,2.9378,2.9792,3.0011,3.0075,3.0075,3.0292,3.0368,3.0292,3.0381,3.0381,3.0292,3.0292,3.0152,2.9934,2.9934,3.0011,3.0075,3.0152,3.0075,2.9934,2.9934,2.9856,2.9792,2.9792,2.9792,2.9792,2.9792,2.9792,2.9792,2.9856,3.0011,3.0075,3.0075,3.0152,3.0228,3.0011,2.9934,2.9934,2.9869,2.9792,2.9792,2.9792,2.9792,2.9792,2.9792,2.9792,2.9792,2.9792,2.9792,2.9792,2.9792,2.9792,2.9792,2.9792,2.9792,2.9792,2.9792,2.9792,2.9792,2.9792,2.9792,2.9792,2.9792,2.9792,2.9792,2.9792,2.9792,2.9792,2.9792,2.8961,2.8462,2.8462,2.7069,2.5997,2.5326,2.4734,2.4059,2.3493,2.3222,2.3135,0.0,0.0,0.0,0.0,0.0,0.0,0.0,0.0,0.0,0.0,0.0,0.0,0.0,0.0,0.0,0.0,0.0,0.0,0.0,0.0,0.0,0.0,0.0,0.0,0.0,0.0,0.0,0.0,0.0,2.871,2.8848,2.9416,2.9732,2.9732,3.0088,3.0228,3.0228,3.0368,3.052,3.052,3.0609,3.0609,3.0444,3.0444,3.0305,2.9934,3.0075,3.0228,3.0228,3.0368,3.0292,3.0152,3.0152,3.0075,2.9934,2.9856,2.9869,2.9869,2.9792,2.9869,2.9869,2.9934,3.0088,3.0228,3.0228,3.0381,3.0444,3.0228,3.0152,3.0152,3.0011,2.9934,2.9934,2.9934,2.9934,2.9934,2.9792,2.9792,2.9792,2.9792,2.9792,2.9792,2.9792,2.9792,2.9792,2.9792,2.9792,2.9792,2.9792,2.9792,2.9792,2.9792,2.9792,2.9792,2.9792,2.9792,2.9792,2.9792,2.9792,2.9792,2.9792,2.9209,2.8712,2.8462,2.7557,2.6648,2.5735,2.5389,2.4734,2.3754,2.3406,2.3319,0.0,0.0,0.0,0.0,0.0,0.0,0.0,0.0,0.0,0.0,0.0,0.0,0.0,0.0,0.0,0.0,0.0,0.0,0.0,0.0,0.0,0.0,0.0,0.0,0.0,0.0,0.0,0.0,0.0,2.8068,2.8592,2.918,2.95,2.95,3.0263,3.0698,3.0698,3.0698,3.0761,3.0986,3.0773,3.0698,3.0698,3.0698,3.0533,3.0368,3.0368,3.052,3.0622,3.0444,3.0368,3.0368,3.0368,3.0368,3.0368,3.0152,3.0075,3.0088,2.9869,2.9934,3.0152,3.0292,3.0533,3.0698,3.0698,3.0698,3.0622,3.0444,3.0368,3.0368,3.0368,3.0368,3.0368,3.0368,3.0368,3.0292,2.9869,2.9792,2.9792,2.9792,2.9792,2.9792,2.9792,2.9792,2.9792,2.9792,2.9792,2.9792,2.9792,2.9792,2.9792,2.9792,2.9792,2.9792,2.9792,2.9792,2.9792,2.9792,2.9792,2.9792,2.9792,2.9792,2.9378,2.8542,2.7557,2.6565,2.5495,2.5484,2.4914,2.3841,2.3754,2.3754,0.0,0.0,0.0,0.0,0.0,0.0,0.0,0.0,0.0,0.0,0.0,0.0,0.0,0.0,0.0,0.0,0.0,0.0,0.0,0.0,0.0,0.0,0.0,0.0,0.0,0.0,0.0,0.0,0.0,0.0,2.81,2.901,2.9535,2.9535,3.025,3.0773,3.0911,3.0911,3.0911,3.0986,3.0911,3.0911,3.0911,3.0911,3.0836,3.0761,3.0761,3.0761,3.0698,3.0761,3.0685,3.0609,3.0609,3.052,3.0368,3.0292,3.0292,3.0292,3.0228,3.0228,3.0292,3.0368,3.0533,3.0698,3.0698,3.0773,3.0836,3.0609,3.0609,3.0533,3.0444,3.0368,3.0368,3.0368,3.0368,3.0368,3.0228,3.0228,3.0228,3.0228,3.0228,3.0228,3.0228,3.0228,3.0152,3.0011,3.0011,2.9934,2.9792,2.9792,2.9792,2.9792,2.9792,2.9792,2.9792,2.9792,2.9792,2.9792,2.9792,2.9792,2.9792,2.9792,2.9624,2.9378,2.8961,2.7799,2.5652,2.5009,2.4444,2.4024,2.3841,2.3841,2.0461,0.0,0.0,0.0,0.0,0.0,0.0,0.0,0.0,0.0,0.0,0.0,0.0,0.0,0.0,0.0,0.0,0.0,0.0,0.0,0.0,0.0,0.0,0.0,0.0,0.0,0.0,0.0,0.0,0.0,2.7991,2.8917,2.9621,2.9999,3.0808,3.1123,3.0986,3.0986,3.0986,3.0986,3.0986,3.0986,3.0986,3.0986,3.0986,3.0986,3.0986,3.0911,3.0849,3.0911,3.0911,3.0773,3.0773,3.0685,3.0596,3.0533,3.052,3.052,3.0444,3.0444,3.052,3.052,3.0609,3.0773,3.0773,3.0911,3.0986,3.0849,3.0773,3.0761,3.0609,3.0596,3.0596,3.0596,3.0596,3.0596,3.0596,3.052,3.0368,3.0368,3.0368,3.0368,3.0368,3.0368,3.0368,3.0228,3.0228,3.0152,2.9934,2.9856,2.9869,2.9792,2.9792,2.9792,2.9792,2.9792,2.9792,2.9792,2.9792,2.9792,2.9792,2.9792,2.9792,2.9792,2.9534,2.8462,2.673,2.5673,2.502,2.4775,2.4272,2.4013,0.0,0.0,0.0,0.0,0.0,0.0,0.0,0.0,0.0,0.0,0.0,0.0,0.0,0.0,0.0,0.0,0.0,0.0,0.0,0.0,0.0,0.0,0.0,0.0,0.0,0.0,0.0,0.0,0.0,2.7842,2.8468,2.9116,2.9984,3.1094,3.1775,3.1736,3.1061,3.0986,3.0986,3.0986,3.0986,3.0986,3.0986,3.0986,3.0986,3.0986,3.0986,3.0986,3.0986,3.0986,3.0986,3.0986,3.0986,3.0986,3.0986,3.0773,3.0698,3.0698,3.052,3.0533,3.0698,3.0698,3.0849,3.0986,3.0986,3.0986,3.0986,3.0986,3.0986,3.0986,3.0986,3.0986,3.0986,3.0986,3.0986,3.0986,3.0986,3.0672,3.0444,3.0444,3.0444,3.0444,3.0444,3.0444,3.0444,3.0444,3.0444,3.0368,3.0152,3.0075,3.0011,2.9869,2.9792,2.9792,2.9792,2.9792,2.9792,2.9792,2.9792,2.9792,2.9792,2.9792,2.9792,2.9792,2.8961,2.8542,2.8542,2.7557,2.6648,2.5746,2.4946,2.4368,2.1334,0.0,0.0,0.0,0.0,0.0,0.0,0.0,0.0,0.0,0.0,0.0,0.0,0.0,0.0,0.0,0.0,0.0,0.0,0.0,0.0,0.0,0.0,0.0,0.0,0.0,0.0,0.0,2.8417,2.8532,2.9205,3.0285,3.1152,3.1861,3.2047,3.2015,3.1809,3.1259,3.0986,3.0986,3.0986,3.0986,3.0986,3.0986,3.0986,3.0986,3.0986,3.0986,3.0986,3.0986,3.0986,3.0986,3.0986,3.0986,3.0986,3.0911,3.0911,3.0911,3.0836,3.0911,3.0911,3.0911,3.0911,3.0986,3.0986,3.0986,3.0986,3.0986,3.0986,3.0986,3.0986,3.0986,3.0986,3.0986,3.0986,3.0986,3.0986,3.0911,3.0823,3.0823,3.0823,3.0823,3.0823,3.0823,3.0761,3.0609,3.0622,3.0533,3.0368,3.0292,3.0228,3.0011,3.0011,2.9934,2.9792,2.9792,2.9792,2.9792,2.9792,2.9792,2.9792,2.9792,2.9792,2.9792,2.9546,2.9456,2.9456,2.7891,2.6648,2.5746,2.4946,2.4454,0.0,0.0,0.0,0.0,0.0,0.0,0.0,0.0,0.0,0.0,0.0,0.0,0.0,0.0,0.0,0.0,0.0,0.0,0.0,0.0,0.0,0.0,0.0,0.0,0.0,0.0,0.0,2.9732,2.9219,2.9205,2.9889,3.0905,3.1681,3.2241,3.2525,3.247,3.2074,3.1955,3.1616,3.0986,3.1334,3.1334,3.0986,3.0986,3.0986,3.0986,3.0986,3.0986,3.0986,3.0986,3.0986,3.0986,3.0986,3.0986,3.0986,3.0986,3.0986,3.0986,3.0986,3.0986,3.0986,3.0986,3.0986,3.0986,3.0986,3.0986,3.0986,3.0986,3.0986,3.0986,3.0986,3.0986,3.0986,3.0986,3.0986,3.0986,3.0986,3.0986,3.0986,3.0986,3.0986,3.0986,3.0986,3.0986,3.0986,3.0849,3.0849,3.0761,3.0533,3.0533,3.0457,3.0228,3.0228,3.0152,2.9934,2.9934,2.9934,2.9934,2.9869,2.9869,2.9934,2.9934,2.9869,2.9792,2.9869,2.9869,2.9792,2.8383,2.7058,2.583,2.5263,2.4861,0.0,0.0,0.0,0.0,0.0,0.0,2.3412,2.3045,0.0,0.0,0.0,0.0,0.0,0.0,0.0,0.0,0.0,0.0,0.0,0.0,0.0,0.0,0.0,0.0,0.0,2.995,3.0133,3.1278,3.0329,2.995,3.0584,3.1314,3.1984,3.2518,3.3151,3.3157,3.2349,3.2932,3.2519,3.1272,3.1809,3.1736,3.1123,3.1061,3.0986,3.0986,3.0986,3.0986,3.0986,3.0986,3.0986,3.0986,3.0986,3.0986,3.0986,3.0986,3.0986,3.0986,3.0986,3.0986,3.0986,3.0986,3.0986,3.0986,3.0986,3.0986,3.0986,3.0986,3.0986,3.0986,3.0986,3.0986,3.0986,3.0986,3.0986,3.0986,3.0986,3.0986,3.0986,3.0986,3.0986,3.0986,3.0986,3.0986,3.0986,3.0986,3.0986,3.0911,3.0773,3.0698,3.0698,3.0444,3.0444,3.0368,3.0152,3.0152,3.0152,3.0152,2.9934,2.9934,3.0152,3.0152,3.0088,2.9869,3.0011,3.0011,2.9792,2.8961,2.7637,2.5902,2.583,2.5337,0.0,0.0,0.0,0.0,0.0,0.0,0.0,2.4387,0.0,0.0,0.0,0.0,0.0,0.0,0.0,0.0,0.0,0.0,0.0,0.0,0.0,0.0,0.0,0.0,0.0,3.0389,3.0389,3.0703,3.097,3.1161,3.1278,3.2452,3.3166,3.33,3.382,3.4047,3.3891,3.3422,3.3087,3.2804,3.229,3.2015,3.1882,3.1259,3.0986,3.0986,3.0986,3.0986,3.0986,3.0986,3.0986,3.0986,3.0986,3.0986,3.0986,3.0986,3.0986,3.0986,3.0986,3.0986,3.0986,3.0986,3.0986,3.0986,3.0986,3.0986,3.0986,3.0986,3.0986,3.0986,3.0986,3.0986,3.0986,3.0986,3.0986,3.0986,3.0986,3.0986,3.0986,3.0986,3.0986,3.0986,3.0986,3.0986,3.0986,3.0986,3.0986,3.0986,3.0911,3.0911,3.0836,3.0698,3.0622,3.0533,3.0368,3.0368,3.0368,3.0368,3.0292,3.0292,3.0368,3.0368,3.0292,3.0292,3.0152,3.0011,2.9792,2.8961,2.7971,2.6823,2.6152,2.5337,0.0,0.0,0.0,2.4909,0.0,0.0,0.0,0.0,0.0,0.0,0.0,0.0,0.0,0.0,0.0,0.0,0.0,0.0,0.0,0.0,0.0,0.0,0.0,0.0,0.0,3.1204,3.1087,3.1029,3.1409,3.1597,3.1539,3.2153,3.2826,3.3469,3.3784,3.4017,3.4298,3.4341,3.3934,3.3213,3.2861,3.2434,3.2074,3.1334,3.0986,3.0986,3.0986,3.0986,3.0986,3.0986,3.0986,3.0986,3.0986,3.0986,3.0986,3.0986,3.0986,3.0986,3.0986,3.0986,3.0986,3.0986,3.0986,3.0986,3.0986,3.0986,3.0986,3.0986,3.0986,3.0986,3.0986,3.0986,3.0986,3.0986,3.0986,3.0986,3.0986,3.0986,3.0986,3.0986,3.0986,3.0986,3.0986,3.0986,3.0986,3.0986,3.0986,3.0986,3.0986,3.0986,3.0986,3.0836,3.0849,3.0761,3.0533,3.0533,3.0533,3.0533,3.0444,3.0444,3.0533,3.0533,3.0533,3.0533,3.0228,3.0088,2.9934,2.9443,2.8712,2.781,2.6894,2.5997,0.0,0.0,0.0,0.0,0.0,2.5632,0.0,0.0,0.0,0.0,0.0,0.0,0.0,0.0,0.0,0.0,0.0,0.0,0.0,0.0,0.0,0.0,0.0,0.0,0.0,3.1693,3.1554,3.1567,3.1528,3.1498,3.1582,3.1659,3.2273,3.3455,3.3619,3.3981,3.4528,3.5213,3.4868,3.3644,3.3367,3.2861,3.229,3.1394,3.0986,3.0986,3.0986,3.0986,3.0986,3.0986,3.0986,3.0986,3.0986,3.0986,3.0986,3.0986,3.0986,3.0986,3.0986,3.0986,3.0986,3.0986,3.0986,3.0986,3.0986,3.0986,3.0986,3.0986,3.0986,3.0986,3.0986,3.0986,3.0986,3.0986,3.0986,3.0986,3.0986,3.0986,3.0986,3.0986,3.0986,3.0986,3.0986,3.0986,3.0986,3.0986,3.0986,3.0986,3.0986,3.0986,3.0986,3.0986,3.0986,3.0911,3.0773,3.0773,3.0773,3.0773,3.0609,3.0609,3.0773,3.0773,3.0773,3.0698,3.0394,3.0164,3.0075,2.9779,2.9118,2.8211,2.7476,2.6565,0.0,0.0,0.0,0.0,2.6703,0.0,0.0,0.0,0.0,0.0,0.0,0.0,0.0,0.0,0.0,0.0,0.0,0.0,0.0,0.0,0.0,0.0,0.0,0.0,0.0,0.0,3.1052,3.189,3.1006,3.0838,3.1724,3.2152,3.2736,3.3469,3.4068,3.4726,3.5359,3.5424,3.5439,3.5213,3.3865,3.3143,3.3003,3.1616,3.0986,3.0986,3.0986,3.0986,3.0986,3.0986,3.0986,3.0986,3.0986,3.0986,3.0986,3.0986,3.0986,3.0986,3.0986,3.0986,3.0986,3.0986,3.0986,3.0986,3.0986,3.0986,3.0986,3.0986,3.0986,3.0986,3.0986,3.0986,3.0986,3.0986,3.0986,3.0986,3.0986,3.0986,3.0986,3.0986,3.0986,3.0986,3.0986,3.0986,3.0986,3.0986,3.0986,3.0986,3.0986,3.0986,3.0986,3.0986,3.0986,3.0986,3.0986,3.0986,3.0986,3.0986,3.0911,3.0911,3.0986,3.0986,3.0911,3.0698,3.0622,3.047,3.0075,2.9275,2.8303,2.7232,2.7151,2.6246,0.0,0.0,0.0,0.0,0.0,0.0,0.0,0.0,2.4764,0.0,0.0,0.0,0.0,0.0,0.0,0.0,0.0,0.0,0.0,0.0,0.0,0.0,0.0,0.0,0.0,0.0,0.0,0.0,0.0,3.0845,3.1766,3.1867,3.2422,3.3469,3.3769,3.4427,3.5489,3.5504,3.5504,3.5504,3.4341,3.363,3.3143,3.2101,3.1394,3.0986,3.0986,3.0986,3.0986,3.0986,3.0986,3.0986,3.0986,3.0986,3.0986,3.0986,3.0986,3.0986,3.0986,3.0986,3.0986,3.0986,3.0986,3.0986,3.0986,3.0986,3.0986,3.0986,3.0986,3.0986,3.0986,3.0986,3.0986,3.0986,3.0986,3.0986,3.0986,3.0986,3.0986,3.0986,3.0986,3.0986,3.0986,3.0986,3.0986,3.0986,3.0986,3.0986,3.0986,3.0986,3.0986,3.0986,3.0986,3.0986,3.0986,3.0986,3.0986,3.0986,3.0986,3.0986,3.0986,3.0986,3.0986,3.0911,3.0773,3.0546,3.0292,2.9754,2.87,2.7069,2.7069,2.6412,2.7211,0.0,0.0,0.0,0.0,0.0,0.0,0.0,0.0,0.0,0.0,0.0,0.0,0.0,0.0,0.0,0.0,0.0,0.0,0.0,0.0,0.0,0.0,0.0,0.0,0.0,0.0,0.0,0.0,0.0,3.1849,3.1712,3.2197,3.3501,3.3499,3.4143,3.5489,3.5504,3.5504,3.5504,3.4677,3.3891,3.3143,3.2434,3.1676,3.0986,3.0986,3.0986,3.0986,3.0986,3.0986,3.0986,3.0986,3.0986,3.0986,3.0986,3.0986,3.0986,3.0986,3.0986,3.0986,3.0986,3.0986,3.0986,3.0986,3.0986,3.0986,3.0986,3.0986,3.0986,3.0986,3.0986,3.0986,3.0986,3.0986,3.0986,3.0986,3.0986,3.0986,3.0986,3.0986,3.0986,3.0986,3.0986,3.0986,3.0986,3.0986,3.0986,3.1061,3.1061,3.0986,3.1061,3.1061,3.0986,3.0986,3.0986,3.0986,3.0986,3.0986,3.0986,3.0986,3.0986,3.0986,3.0986,3.0836,3.0685,3.0368,2.9973,2.9015,2.7476,2.7232,2.6494,0.0,0.0,0.0,2.7057,0.0,0.0,0.0,0.0,2.6251,0.0,0.0,0.0,0.0,0.0,0.0,2.6978,0.0,0.0,0.0,0.0,0.0,0.0,0.0,0.0,0.0,0.0,0.0,0.0,0.0,0.0,3.2109,3.194,3.2387,3.3668,3.3546,3.4143,3.5489,3.5504,3.5504,3.5504,3.4677,3.3891,3.3143,3.2434,3.1676,3.0986,3.0986,3.0986,3.0986,3.0986,3.0986,3.0986,3.0986,3.0986,3.0986,3.0986,3.0986,3.0986,3.0986,3.0986,3.0986,3.0986,3.0986,3.0986,3.0986,3.0986,3.0986,3.0986,3.0986,3.0986,3.0986,3.0986,3.0986,3.0986,3.0986,3.0986,3.0986,3.0986,3.0986,3.0986,3.0986,3.0986,3.0986,3.0986,3.0986,3.0986,3.0986,3.1061,3.1272,3.1123,3.1061,3.1272,3.1123,3.0986,3.0986,3.0986,3.0986,3.0986,3.0986,3.0986,3.0986,3.0986,3.0986,3.0986,3.0986,3.0836,3.0368,2.9561,2.8924,2.8462,2.7557,2.6174,0.0,0.0,2.9858,2.7982,0.0,0.0,0.0,0.0,0.0,0.0,0.0,0.0,0.0,0.0,0.0,2.735,0.0,0.0,0.0,0.0,0.0,0.0,0.0,0.0,0.0,0.0,0.0,0.0,0.0,0.0,0.0,3.194,3.2372,3.3668,3.3546,3.4143,3.5489,3.5504,3.5504,3.5504,3.5198,3.4691,3.3891,3.3685,3.2918,3.1736,3.2232,3.216,3.175,3.175,3.2028,3.239,3.1882,3.2028,3.239,3.1882,3.175,3.175,3.175,3.175,3.1676,3.1123,3.0986,3.0986,3.0986,3.0986,3.0986,3.0986,3.0986,3.0986,3.0986,3.0986,3.0986,3.0986,3.0986,3.0986,3.0986,3.0986,3.0986,3.0986,3.0986,3.0986,3.0986,3.0986,3.0986,3.0986,3.1136,3.1198,3.1272,3.136,3.1373,3.1272,3.1272,3.1123,3.0986,3.0986,3.0986,3.0986,3.0986,3.0986,3.0986,3.0986,3.0986,3.0986,3.0986,3.0836,3.0609,3.0203,2.9496,2.8712,2.8211,2.7069,2.8482,2.9257,0.0,2.8263,2.8138,0.0,2.7048,0.0,0.0,0.0,0.0,0.0,0.0,0.0,0.0,2.8397,2.8233,0.0,0.0,0.0,0.0,0.0,0.0,0.0,0.0,0.0,2.9524,3.0605,0.0,0.0,0.0,0.0,3.2788,3.3864,3.3954,3.4555,3.5668,3.5683,3.5619,3.5539,3.5539,3.5103,3.4312,3.4312,3.3616,3.2506,3.272,3.272,3.2434,3.2218,3.2506,3.3143,3.2648,3.2791,3.3143,3.2648,3.2506,3.2434,3.2218,3.229,3.2434,3.1676,3.1468,3.1468,3.1394,3.1185,3.1048,3.1334,3.1394,3.1394,3.1394,3.1616,3.169,3.1468,3.1616,3.175,3.175,3.1823,3.1896,3.1896,3.1969,3.1955,3.1955,3.1955,3.175,3.1198,3.1198,3.1347,3.1495,3.1596,3.1522,3.1434,3.1347,3.1198,3.0986,3.0986,3.0986,3.0986,3.0986,3.0986,3.0986,3.0986,3.0986,3.0986,3.0986,3.0911,3.0698,3.0533,3.0062,2.9275,2.8791,2.7799]},{"header":{"parameterUnit":"m.s-1","parameterCategory":1,"la1":30.6,"la2":29.2853,"lo1":-89.7004,"lo2":-87.6739,"dy":0.0162,"dx":0.0183,"nx":112,"ny":82,"refTime":"2025-08-26T12:00:00:Z","depth":0,"parameterNumber":3,"parameterNumberName":"V-component_of_WINDS"},"data":[0.0,0.0,0.0,0.0,0.0,0.0,0.0,0.0,0.0,0.0,0.0,0.0,0.0,0.0,0.0,0.0,0.0,0.0,0.0,0.0,0.0,0.0,0.0,0.0,0.0,0.0,0.0,0.0,0.0,0.0,0.0,0.0,0.0,0.0,0.0,0.0,0.0,0.0,0.0,0.0,0.0,0.0,0.0,0.0,0.0,0.0,0.0,0.0,0.0,0.0,0.0,0.0,0.0,0.0,0.0,0.0,0.0,0.0,0.0,0.0,0.0,0.0,0.0,0.0,0.0,0.0,0.0,0.0,0.0,0.0,0.0,0.0,0.0,0.0,0.0,0.0,0.0,0.0,0.0,0.0,0.0,0.0,0.0,0.0,0.0,0.0,0.0,0.0,0.0,0.0,0.0,2.6372,2.9636,3.1734,3.1845,3.2199,3.0656,2.6488,0.0,0.0,0.0,0.0,0.0,0.0,0.0,0.0,0.0,0.0,0.0,0.0,0.0,0.0,0.0,0.0,0.0,0.0,0.0,0.0,0.0,0.0,0.0,0.0,0.0,0.0,0.0,0.0,0.0,0.0,0.0,0.0,0.0,0.0,0.0,0.0,0.0,0.0,0.0,0.0,0.0,0.0,0.0,0.0,0.0,0.0,0.0,0.0,0.0,0.0,0.0,0.0,0.0,0.0,0.0,0.0,0.0,0.0,0.0,0.0,0.0,0.0,0.0,0.0,0.0,0.0,0.0,0.0,0.0,0.0,0.0,0.0,0.0,0.0,0.0,0.0,0.0,0.0,0.0,0.0,0.0,0.0,0.0,0.0,0.0,0.0,0.0,0.0,0.0,0.0,0.0,0.0,0.0,0.0,0.0,0.0,0.0,0.0,0.0,0.0,0.0,0.0,0.0,0.0,2.382,2.7976,2.9539,3.0494,3.1036,3.107,2.9868,2.6945,0.0,0.0,0.0,0.0,0.0,0.0,0.0,0.0,0.0,0.0,0.0,0.0,0.0,0.0,0.0,0.0,0.0,0.0,0.0,0.0,0.0,0.0,0.0,0.0,0.0,0.0,0.0,0.0,0.0,0.0,0.0,0.0,0.0,0.0,0.0,0.0,0.0,0.0,0.0,0.0,0.0,0.0,0.0,0.0,0.0,0.0,0.0,0.0,0.0,0.0,0.0,0.0,0.0,0.0,0.0,0.0,0.0,0.0,0.0,0.0,0.0,0.0,0.0,0.0,0.0,0.0,0.0,0.0,0.0,0.0,0.0,0.0,0.0,0.0,0.0,0.0,0.0,0.0,0.0,0.0,0.0,0.0,0.0,0.0,0.0,0.0,0.0,0.0,0.0,0.0,0.0,0.0,0.0,0.0,0.0,0.0,0.0,0.0,0.0,0.0,0.0,0.0,0.0,2.2738,2.485,2.8423,2.9583,3.0278,3.0744,3.0799,2.9512,2.6482,2.5185,0.0,0.0,0.0,0.0,0.0,0.0,0.0,0.0,0.0,0.0,0.0,0.0,0.0,0.0,0.0,0.0,0.0,0.0,0.0,0.0,0.0,0.0,0.0,0.0,0.0,0.0,0.0,0.0,0.0,0.0,0.0,0.0,0.0,0.0,0.0,0.0,0.0,0.0,0.0,0.0,0.0,0.0,0.0,0.0,0.0,0.0,0.0,0.0,0.0,0.0,0.0,0.0,0.0,0.0,0.0,0.0,0.0,0.0,0.0,0.0,0.0,0.0,0.0,0.0,0.0,0.0,0.0,0.0,0.0,0.0,0.0,0.0,0.0,0.0,0.0,0.0,0.0,0.0,0.0,0.0,0.0,0.0,0.0,0.0,0.0,0.0,0.0,0.0,0.0,0.0,0.0,0.0,0.0,0.0,0.0,0.0,0.0,0.0,0.0,0.0,0.0,0.0,2.4309,2.603,2.8404,2.9307,2.994,3.0443,3.0238,2.886,2.5948,2.4139,0.0,0.0,0.0,0.0,0.0,0.0,0.0,0.0,0.0,0.0,0.0,0.0,0.0,0.0,0.0,0.0,0.0,0.0,0.0,0.0,0.0,0.0,0.0,0.0,0.0,0.0,0.0,0.0,0.0,0.0,0.0,0.0,0.0,0.0,0.0,0.0,0.0,0.0,0.0,0.0,0.0,0.0,0.0,0.0,0.0,0.0,0.0,0.0,0.0,0.0,0.0,0.0,0.0,0.0,0.0,0.0,0.0,0.0,0.0,0.0,0.0,0.0,0.0,0.0,0.0,0.0,0.0,0.0,0.0,0.0,0.0,0.0,0.0,0.0,0.0,0.0,0.0,0.0,0.0,0.0,0.0,0.0,0.0,0.0,0.0,0.0,0.0,0.0,0.0,0.0,0.0,0.0,0.0,0.0,0.0,0.0,0.0,0.0,0.0,0.0,0.0,0.0,2.4389,2.6658,2.811,2.8293,2.8729,2.9762,2.8676,2.7299,2.5793,2.3407,0.0,0.0,0.0,0.0,0.0,0.0,0.0,0.0,0.0,0.0,0.0,0.0,0.0,0.0,0.0,0.0,0.0,0.0,0.0,0.0,0.0,0.0,0.0,0.0,0.0,0.0,0.0,0.0,0.0,0.0,0.0,0.0,0.0,0.0,0.0,0.0,0.0,0.0,0.0,0.0,0.0,0.0,0.0,0.0,0.0,0.0,0.0,0.0,0.0,0.0,0.0,0.0,0.0,0.0,0.0,0.0,0.0,0.0,0.0,0.0,0.0,0.0,0.0,0.0,0.0,0.0,0.0,0.0,0.0,0.0,0.0,0.0,0.0,0.0,0.0,0.0,0.0,0.0,0.0,0.0,0.0,0.0,0.0,0.0,0.0,0.0,0.0,0.0,0.0,0.0,0.0,0.0,0.0,0.0,0.0,0.0,0.0,0.0,0.0,0.0,0.0,0.0,2.3629,2.5887,0.0,2.8779,2.918,3.0091,2.9411,2.8003,2.5782,0.0,0.0,0.0,0.0,0.0,0.0,0.0,0.0,0.0,0.0,0.0,0.0,0.0,0.0,0.0,0.0,0.0,0.0,0.0,0.0,0.0,0.0,0.0,0.0,0.0,0.0,0.0,0.0,0.0,0.0,0.0,0.0,0.0,0.0,0.0,0.0,0.0,0.0,0.0,0.0,0.0,0.0,0.0,0.0,0.0,0.0,0.0,0.0,0.0,0.0,0.0,0.0,0.0,0.0,0.0,0.0,0.0,0.0,0.0,0.0,0.0,0.0,0.0,0.0,0.0,0.0,0.0,0.0,0.0,0.0,0.0,0.0,0.0,0.0,0.0,0.0,0.0,0.0,0.0,0.0,0.0,0.0,0.0,0.0,0.0,0.0,0.0,0.0,0.0,0.0,0.0,0.0,0.0,0.0,0.0,0.0,0.0,0.0,0.0,0.0,0.0,0.0,2.169,2.4025,2.6377,0.0,2.9255,2.9657,3.0468,2.9605,2.7956,2.5566,0.0,0.0,0.0,0.0,0.0,0.0,0.0,0.0,0.0,0.0,0.0,0.0,0.0,0.0,0.0,0.0,0.0,0.0,0.0,0.0,0.0,0.0,0.0,0.0,0.0,0.0,0.0,0.0,0.0,0.0,0.0,0.0,0.0,0.0,0.0,0.0,0.0,0.0,0.0,0.0,0.0,0.0,0.0,0.0,0.0,0.0,0.0,0.0,0.0,0.0,0.0,0.0,0.0,0.0,0.0,0.0,0.0,0.0,0.0,0.0,0.0,0.0,0.0,0.0,0.0,0.0,0.0,0.0,0.0,0.0,0.0,0.0,0.0,0.0,0.0,0.0,0.0,0.0,0.0,0.0,0.0,0.0,0.0,0.0,0.0,0.0,0.0,0.0,0.0,0.0,0.0,0.0,0.0,0.0,0.0,0.0,0.0,0.0,0.0,0.0,0.0,0.0,2.2456,2.5847,2.851,2.9504,2.9629,2.9935,3.0747,2.8783,2.6853,0.0,0.0,0.0,0.0,0.0,0.0,0.0,0.0,0.0,0.0,0.0,0.0,0.0,0.0,0.0,0.0,0.0,0.0,0.0,0.0,0.0,0.0,0.0,0.0,0.0,0.0,0.0,0.0,0.0,0.0,0.0,0.0,0.0,0.0,0.0,0.0,0.0,0.0,0.0,0.0,0.0,0.0,0.0,0.0,0.0,0.0,0.0,0.0,0.0,0.0,0.0,0.0,0.0,0.0,0.0,0.0,0.0,0.0,0.0,0.0,0.0,0.0,0.0,0.0,0.0,0.0,0.0,0.0,0.0,0.0,0.0,0.0,0.0,0.0,0.0,0.0,0.0,0.0,0.0,0.0,0.0,0.0,0.0,0.0,0.0,0.0,0.0,0.0,0.0,0.0,0.0,0.0,0.0,0.0,0.0,0.0,0.0,0.0,0.0,0.0,0.0,0.0,0.0,2.3565,2.6695,2.9246,3.041,3.0534,3.0754,3.1334,2.9985,2.7964,2.5261,0.0,0.0,0.0,0.0,0.0,0.0,0.0,0.0,0.0,0.0,0.0,0.0,0.0,0.0,0.0,0.0,0.0,0.0,0.0,0.0,0.0,0.0,0.0,0.0,0.0,0.0,0.0,0.0,0.0,0.0,0.0,0.0,0.0,0.0,0.0,0.0,0.0,0.0,0.0,0.0,0.0,0.0,0.0,0.0,0.0,0.0,0.0,0.0,0.0,0.0,0.0,0.0,0.0,0.0,0.0,0.0,0.0,0.0,0.0,0.0,0.0,0.0,0.0,0.0,0.0,0.0,0.0,0.0,0.0,0.0,0.0,0.0,0.0,0.0,0.0,0.0,0.0,0.0,0.0,0.0,0.0,0.0,0.0,0.0,0.0,0.0,0.0,0.0,0.0,0.0,0.0,0.0,0.0,0.0,0.0,0.0,0.0,0.0,0.0,0.0,0.0,0.0,2.4411,2.7679,3.0229,3.1099,3.1227,3.1452,3.1765,3.0629,2.8637,2.5758,0.0,0.0,0.0,0.0,0.0,0.0,0.0,0.0,0.0,0.0,0.0,0.0,0.0,0.0,0.0,0.0,0.0,0.0,0.0,0.0,0.0,0.0,0.0,0.0,0.0,0.0,0.0,0.0,0.0,0.0,0.0,0.0,0.0,0.0,0.0,0.0,0.0,0.0,0.0,0.0,0.0,0.0,0.0,0.0,0.0,0.0,0.0,0.0,0.0,0.0,0.0,0.0,0.0,0.0,0.0,0.0,0.0,0.0,0.0,0.0,0.0,0.0,0.0,0.0,0.0,0.0,0.0,0.0,0.0,0.0,0.0,0.0,0.0,0.0,0.0,0.0,0.0,0.0,0.0,0.0,0.0,0.0,0.0,0.0,0.0,0.0,0.0,0.0,0.0,0.0,0.0,0.0,0.0,0.0,0.0,0.0,0.0,0.0,0.0,0.0,0.0,0.0,2.5112,2.873,3.1355,3.162,3.1821,3.1984,3.2108,3.083,2.9004,2.6568,0.0,0.0,0.0,0.0,0.0,0.0,0.0,0.0,0.0,0.0,0.0,0.0,0.0,0.0,0.0,0.0,0.0,0.0,0.0,0.0,0.0,0.0,0.0,0.0,0.0,0.0,0.0,0.0,0.0,0.0,0.0,0.0,0.0,0.0,0.0,0.0,0.0,0.0,0.0,0.0,0.0,0.0,0.0,0.0,0.0,0.0,0.0,0.0,0.0,0.0,0.0,0.0,0.0,0.0,0.0,0.0,0.0,0.0,0.0,0.0,3.1037,0.0,0.0,0.0,0.0,0.0,0.0,0.0,0.0,0.0,0.0,0.0,0.0,0.0,0.0,0.0,0.0,0.0,0.0,0.0,0.0,0.0,0.0,0.0,0.0,0.0,0.0,0.0,0.0,0.0,0.0,0.0,0.0,0.0,0.0,0.0,0.0,0.0,0.0,0.0,0.0,0.0,2.6202,2.9644,3.2056,3.2127,3.2179,3.2214,3.2249,3.1029,2.9391,2.7442,0.0,0.0,0.0,0.0,0.0,0.0,0.0,0.0,0.0,0.0,0.0,0.0,0.0,0.0,0.0,0.0,0.0,0.0,0.0,0.0,0.0,0.0,0.0,0.0,0.0,0.0,0.0,0.0,0.0,0.0,0.0,0.0,0.0,0.0,0.0,0.0,0.0,0.0,0.0,0.0,0.0,0.0,0.0,0.0,0.0,0.0,0.0,0.0,0.0,0.0,0.0,0.0,0.0,0.0,0.0,0.0,0.0,0.0,0.0,0.0,0.0,3.2967,0.0,0.0,0.0,0.0,0.0,0.0,0.0,0.0,0.0,0.0,0.0,0.0,0.0,0.0,0.0,0.0,0.0,0.0,0.0,0.0,0.0,0.0,0.0,0.0,0.0,0.0,0.0,0.0,0.0,0.0,0.0,0.0,0.0,0.0,0.0,0.0,0.0,0.0,0.0,0.0,2.7281,3.0382,3.247,3.2454,3.2588,3.2621,3.2504,3.1284,2.9988,2.8685,2.6348,0.0,0.0,0.0,0.0,0.0,0.0,0.0,0.0,0.0,0.0,0.0,0.0,0.0,0.0,0.0,0.0,0.0,0.0,0.0,0.0,0.0,0.0,0.0,0.0,0.0,0.0,0.0,0.0,0.0,0.0,0.0,0.0,0.0,0.0,0.0,0.0,0.0,0.0,0.0,0.0,0.0,0.0,0.0,0.0,0.0,0.0,0.0,0.0,0.0,0.0,0.0,0.0,0.0,3.8569,3.9143,4.026,3.9618,3.9749,4.039,3.8226,3.6952,3.6314,0.0,0.0,0.0,0.0,0.0,0.0,0.0,0.0,0.0,0.0,0.0,0.0,0.0,0.0,0.0,0.0,0.0,0.0,0.0,0.0,0.0,0.0,0.0,0.0,0.0,3.3371,3.3161,0.0,0.0,0.0,0.0,0.0,0.0,0.0,0.0,0.0,0.0,0.0,0.0,2.8224,3.0973,3.2752,3.2687,3.2912,3.3024,3.2816,3.1715,3.0728,2.9981,2.7651,2.5942,0.0,0.0,0.0,0.0,0.0,0.0,0.0,0.0,0.0,0.0,0.0,0.0,0.0,0.0,0.0,0.0,0.0,0.0,0.0,0.0,0.0,0.0,0.0,0.0,0.0,0.0,0.0,0.0,0.0,0.0,0.0,0.0,2.9545,2.98,0.0,0.0,0.0,0.0,0.0,0.0,0.0,0.0,0.0,0.0,0.0,0.0,0.0,0.0,3.7721,4.0488,4.1587,4.0997,4.2602,4.3113,4.2652,4.2537,4.2813,4.3325,4.3014,0.0,3.8414,3.7331,0.0,0.0,0.0,0.0,0.0,0.0,0.0,0.0,0.0,0.0,0.0,0.0,0.0,0.0,0.0,0.0,0.0,0.0,0.0,0.0,0.0,0.0,3.6577,3.5954,3.5918,3.5883,0.0,3.2144,2.9162,2.8819,0.0,0.0,0.0,0.0,0.0,0.0,0.0,0.0,2.8825,3.128,3.2979,3.3024,3.3086,3.3135,3.3214,3.2433,3.1624,3.0948,2.9279,2.7863,2.6909,2.5469,0.0,0.0,0.0,0.0,0.0,0.0,0.0,0.0,0.0,0.0,0.0,0.0,0.0,0.0,0.0,0.0,0.0,0.0,0.0,0.0,0.0,0.0,0.0,0.0,0.0,0.0,0.0,0.0,0.0,2.9175,3.1229,3.1287,3.2024,3.1782,0.0,0.0,0.0,0.0,0.0,0.0,0.0,0.0,0.0,3.8118,3.9732,4.0935,4.1685,4.3331,4.4058,4.384,4.4694,4.4903,4.4559,4.4559,4.4682,4.49,4.4708,4.3726,4.214,4.0384,3.8701,3.708,0.0,0.0,0.0,0.0,3.4211,3.4222,3.5627,3.5918,0.0,0.0,0.0,0.0,0.0,0.0,0.0,0.0,0.0,0.0,0.0,0.0,0.0,3.7237,3.7184,3.7166,3.722,3.5243,3.3018,0.0,3.0555,2.9157,2.6653,0.0,0.0,0.0,0.0,0.0,3.0145,3.1987,3.3152,3.3086,3.3238,3.3316,3.3352,3.2679,3.2147,3.1909,3.0385,2.9308,2.8943,2.7282,2.5932,0.0,0.0,0.0,0.0,0.0,0.0,0.0,0.0,0.0,0.0,0.0,0.0,0.0,0.0,0.0,0.0,0.0,0.0,0.0,0.0,0.0,0.0,0.0,0.0,0.0,0.0,0.0,0.0,3.0941,3.2921,3.3089,3.4639,3.4787,0.0,0.0,0.0,0.0,0.0,0.0,3.8473,3.9409,4.0377,4.1443,4.2712,4.3857,4.4863,4.524,4.5549,4.5723,4.5723,4.5712,4.569,4.569,4.569,4.5693,4.5438,4.5182,4.4759,4.2723,4.1245,4.0055,3.8305,3.7525,3.7449,3.7686,3.7637,3.7716,3.9221,3.9579,3.9211,3.8597,0.0,3.5758,3.4777,0.0,0.0,0.0,0.0,3.4925,3.6362,3.6845,3.7162,3.7773,3.781,3.7792,3.7864,3.7218,3.6055,0.0,3.3188,3.179,2.8897,0.0,0.0,0.0,0.0,3.0079,3.1337,3.2558,3.3262,3.3196,3.3375,3.3481,3.3452,3.3002,3.2584,3.2261,3.1114,3.032,3.001,2.8659,2.7588,2.6826,0.0,0.0,0.0,0.0,0.0,0.0,0.0,0.0,0.0,0.0,0.0,0.0,0.0,0.0,0.0,0.0,0.0,0.0,0.0,0.0,0.0,0.0,0.0,0.0,0.0,0.0,0.0,0.0,0.0,3.609,3.7775,0.0,0.0,0.0,0.0,3.846,3.8574,3.9447,4.138,4.2319,4.3285,4.4341,4.526,4.5755,4.5825,4.5862,4.5832,4.5776,4.5776,4.575,4.57,4.57,4.5703,4.5709,4.5668,4.5419,4.4909,4.3775,4.2537,4.1327,4.027,3.9294,3.8619,3.9527,3.9773,3.9768,4.0688,4.091,4.0857,4.127,4.0091,3.8469,3.83,3.69,0.0,0.0,3.76,3.7413,3.8617,3.8367,3.7863,3.7899,3.7899,3.7899,3.7899,3.727,3.6642,0.0,3.5259,3.3817,3.2616,0.0,3.1026,3.0234,3.0831,3.1538,3.1995,3.2805,3.3322,3.3364,3.3452,3.352,3.3577,3.3606,3.3012,3.1549,3.1434,3.0741,2.9218,2.9115,2.8735,2.7941,2.6277,0.0,0.0,0.0,0.0,0.0,0.0,0.0,0.0,0.0,0.0,0.0,0.0,0.0,0.0,0.0,0.0,0.0,0.0,0.0,0.0,0.0,0.0,0.0,0.0,0.0,0.0,0.0,0.0,3.7849,3.9576,0.0,0.0,3.989,4.0639,4.1551,4.2241,4.3144,4.4395,4.4763,4.5331,4.6232,4.6577,4.7018,4.7629,4.7634,4.7634,4.7601,4.7561,4.7222,4.6655,4.6622,4.6291,4.577,4.5715,4.5418,4.4912,4.4619,4.4065,4.339,4.3034,4.2754,4.2575,4.2912,4.3042,4.3042,4.2939,4.2884,4.2687,4.1905,4.1215,4.0508,3.9967,3.9319,3.8886,3.9534,3.9553,3.9337,3.9283,3.9065,3.8722,3.8217,3.8038,3.7985,3.8072,3.7803,3.7553,3.7657,3.5825,3.3956,3.2862,3.2224,3.166,3.1142,3.1541,3.2116,3.2775,3.3141,3.3382,3.3411,3.3509,3.3577,3.3605,3.3241,3.2771,3.221,3.125,3.0494,2.9945,2.9496,2.9153,2.8918,2.7768,2.6486,0.0,0.0,0.0,0.0,0.0,0.0,0.0,0.0,0.0,0.0,0.0,0.0,0.0,0.0,0.0,0.0,0.0,0.0,0.0,0.0,0.0,0.0,0.0,0.0,0.0,0.0,3.8438,3.8856,4.1127,4.229,4.1339,4.2419,4.3446,4.4093,4.4753,4.5531,4.6425,4.6435,4.6785,4.7641,4.7715,4.8047,4.8658,4.8694,4.8694,4.8677,4.8624,4.8263,4.7637,4.7598,4.7226,4.663,4.6306,4.5877,4.5395,4.5254,4.4934,4.4551,4.4515,4.4578,4.4712,4.4712,4.477,4.4802,4.4125,4.3754,4.3416,4.2396,4.2103,4.2013,4.147,4.1307,4.1307,4.1307,4.1126,4.08,4.0311,3.9786,3.926,3.8717,3.8321,3.8088,3.8174,3.8122,3.8088,3.8174,3.6573,3.4911,3.391,3.3247,3.2697,3.2228,3.2361,3.2726,3.3268,3.3382,3.3393,3.3393,3.352,3.3605,3.3605,3.2993,3.2485,3.221,3.1017,3.0222,3.0009,2.928,2.8938,2.8961,2.8184,2.727,2.6222,0.0,0.0,0.0,0.0,0.0,0.0,0.0,0.0,0.0,0.0,0.0,0.0,0.0,0.0,0.0,0.0,0.0,0.0,0.0,0.0,0.0,0.0,0.0,3.2727,3.6489,3.9281,3.9257,4.2518,4.437,4.3465,4.5036,4.6068,4.6017,4.6026,4.6445,4.7352,4.73,4.766,4.8607,4.8782,4.8841,4.888,4.8942,4.8942,4.888,4.888,4.8769,4.8533,4.8533,4.8438,4.8253,4.7468,4.6851,4.6339,4.5705,4.5151,4.4685,4.4551,4.4578,4.4712,4.4712,4.4789,4.4777,4.4125,4.3474,4.2882,4.2882,4.2882,4.2882,4.2882,4.2882,4.2882,4.2882,4.2339,4.1722,4.1686,4.0565,3.946,3.9405,3.879,3.821,3.8192,3.8192,3.8192,3.8192,3.7558,3.6761,3.5983,3.5186,3.4371,3.3556,3.3447,0.0,3.3393,3.3393,3.3393,3.3393,3.3538,3.3605,3.3605,3.2966,3.2265,3.1439,3.077,3.0046,2.9274,2.8565,2.8179,2.8179,2.7619,2.7339,2.7387,0.0,0.0,0.0,0.0,0.0,0.0,0.0,0.0,0.0,0.0,0.0,0.0,0.0,0.0,0.0,0.0,0.0,0.0,0.0,0.0,0.0,0.0,3.7322,3.729,3.9557,4.1696,4.2932,4.4606,4.5539,4.5293,4.5763,4.6112,4.6142,4.6733,4.7206,4.7455,4.7944,4.8638,4.9586,4.96,4.9957,5.0682,5.0703,5.0703,5.0682,5.0647,5.023,4.9515,4.9459,4.9052,4.8357,4.7973,4.728,4.6383,4.6104,4.5407,4.4551,4.4738,4.4796,4.4865,4.4865,4.4576,4.4154,4.3974,4.3474,4.2882,4.2882,4.2882,4.2882,4.2882,4.2882,4.2882,4.2882,4.2737,4.2354,4.1435,4.0874,4.0282,3.9099,3.8652,3.8329,3.7811,3.7967,3.8106,3.7756,3.7787,3.7594,3.6798,3.6001,3.5204,3.4389,3.428,0.0,3.3484,3.3393,3.3393,3.3393,3.3481,3.3549,3.3605,3.2939,3.2214,3.1439,3.077,3.0305,3.0087,2.9975,2.9927,2.9927,2.9889,2.9602,0.0,0.0,0.0,0.0,0.0,0.0,0.0,0.0,0.0,0.0,0.0,0.0,0.0,0.0,0.0,0.0,0.0,0.0,0.0,0.0,0.0,0.0,3.7153,3.973,4.1166,4.2372,4.3471,4.4485,4.5425,4.5986,4.591,4.6026,4.6105,4.6118,4.6898,4.7554,4.7947,4.8717,4.9562,5.0516,5.0532,5.0803,5.1387,5.1406,5.1406,5.1406,5.1333,5.1001,5.0443,5.0383,5.0022,0.0,4.8971,4.8086,4.6923,4.6571,4.5659,0.0,0.0,0.0,0.0,0.0,4.4476,4.3912,4.3912,4.3474,4.2882,4.2882,4.2882,4.2882,4.2882,4.2882,4.2882,4.2882,4.2882,4.2736,4.198,4.1525,4.0969,3.9713,3.9174,3.8743,3.7971,3.802,3.8106,3.7845,3.802,0.0,3.7558,3.6834,3.6037,3.5222,3.5113,3.4824,3.4009,3.393,3.3833,3.3488,3.352,3.3605,3.3643,3.2966,0.0,0.0,0.0,3.0771,3.0506,3.0553,0.0,0.0,0.0,0.0,0.0,0.0,0.0,0.0,3.2617,3.2767,0.0,0.0,0.0,0.0,0.0,0.0,0.0,0.0,0.0,0.0,0.0,0.0,0.0,0.0,0.0,0.0,3.958,4.1026,4.4061,4.4631,4.4736,4.4736,4.5483,4.5953,4.5814,4.5979,4.6068,4.6007,4.6842,4.7729,4.8565,0.0,0.0,0.0,0.0,5.1386,5.1406,5.1406,5.1406,5.1386,5.1333,5.1269,5.1187,5.1131,5.103,5.0867,5.012,4.9046,4.7805,4.7063,4.5879,4.4524,4.4659,4.4712,4.4738,4.4865,4.4476,4.3912,4.3912,0.0,0.0,4.2882,4.2882,4.2882,4.2882,4.2882,4.2882,4.2882,4.2882,4.2882,4.2844,4.2282,4.1559,4.0763,3.9986,3.9227,3.8413,3.8212,3.8174,3.814,3.814,3.8192,3.8192,3.7594,3.6852,3.6073,3.5946,3.5657,3.4842,3.4721,3.4436,3.3709,0.0,0.0,3.3698,3.3111,3.268,3.2614,3.2152,3.1607,3.1021,3.1191,3.1337,3.1449,3.1693,3.3018,3.5456,3.5688,3.6684,3.8276,3.5029,3.4773,0.0,0.0,0.0,0.0,0.0,0.0,0.0,0.0,0.0,0.0,0.0,0.0,0.0,0.0,0.0,3.8942,4.1578,4.3728,4.4409,4.5128,4.5568,4.5568,4.5813,4.5953,4.5814,4.5979,4.6068,4.6007,4.7455,4.8421,4.8592,5.0092,0.0,5.1297,5.1304,5.1357,5.1406,5.1406,5.1365,5.1327,0.0,0.0,5.112,5.1117,5.103,5.089,5.0452,4.9757,4.8828,4.758,4.6131,4.4659,4.4685,4.4764,4.487,4.4895,4.4476,4.3912,4.3912,4.3474,4.2882,4.2882,4.2882,4.2882,4.2882,4.2882,0.0,4.2882,4.2882,4.2806,4.2418,4.2213,4.1908,4.1103,4.0277,3.9528,3.8759,3.8383,3.8106,3.7721,3.7933,3.8192,3.8192,3.8065,3.7685,3.687,3.6761,3.6504,3.5732,3.5109,3.4666,3.4543,3.3988,3.3643,3.3698,3.3552,3.324,3.2651,3.3239,3.3593,3.351,3.4791,3.531,3.487,3.578,3.6285,3.6358,3.725,3.8226,3.9224,3.7885,3.7531,0.0,0.0,0.0,0.0,0.0,0.0,0.0,0.0,0.0,0.0,0.0,3.5153,3.6615,0.0,4.0607,4.1673,4.3374,4.4705,4.5183,4.5634,4.588,4.5814,4.5867,4.5861,4.5814,4.5891,4.6111,4.6518,4.775,4.8696,4.9124,5.0451,5.1218,5.1258,5.1324,5.1364,5.1406,5.1406,5.1364,5.1297,5.1269,5.1195,5.1105,5.103,5.0863,5.0641,5.047,4.9781,4.8667,4.7032,4.5904,4.5143,4.4674,4.4667,4.4895,4.4895,4.4476,4.3912,4.3912,4.3474,4.2882,4.2882,4.2882,4.2882,4.2882,4.2882,4.2882,4.2882,4.2882,4.2844,4.2634,4.2537,4.234,4.1548,4.1063,4.0452,3.9301,3.8904,3.8629,3.797,3.8054,3.8192,3.8192,3.8192,3.8047,3.7649,3.7594,3.7319,3.6599,3.6175,3.5818,3.5488,3.5133,3.4971,3.4999,3.4999,3.4862,3.4522,3.4998,3.5343,3.541,3.6329,3.67,3.6404,3.7165,3.7636,3.7805,3.8444,3.9232,4.0145,3.9743,3.9566,0.0,0.0,0.0,0.0,0.0,0.0,0.0,0.0,3.3825,3.5493,3.6919,3.8252,3.9487,4.0995,4.2593,4.4318,4.4735,4.5107,4.5899,4.6017,4.5966,4.5848,4.5827,4.58,4.58,4.58,4.6148,4.7018,4.7918,4.8803,4.9674,5.0656,5.1225,5.1225,5.133,5.1386,5.1386,5.1364,5.133,5.1269,5.1211,5.1142,5.1056,5.0952,5.0715,5.0392,5.0308,4.9534,4.8221,4.6641,4.584,4.5573,4.483,4.4655,4.4821,4.4751,4.4346,4.3849,4.3786,4.3406,4.2882,4.2882,4.2882,4.2882,4.2882,4.2882,4.2882,4.2882,4.29,4.2862,4.2862,4.2862,4.27,4.2029,4.1758,4.1343,4.0094,3.9604,3.9206,3.8554,3.8301,3.8192,3.8192,3.8192,3.8192,3.8192,3.8192,3.799,3.7417,3.7244,3.6991,3.6406,3.63,3.6303,3.6303,3.6303,3.6313,3.6398,3.663,3.6759,3.684,3.7225,3.7427,3.7469,3.7848,3.8438,3.9246,3.948,3.9998,4.0746,4.079,4.0831,2.9278,3.0052,3.0812,3.2524,3.2889,3.3459,0.0,0.0,3.6462,3.9051,3.9756,4.0442,4.2285,4.3376,4.4113,4.4524,4.5188,4.5735,4.5977,4.6054,4.6052,4.5997,4.5861,4.58,4.58,4.58,4.6148,4.7018,4.7953,4.8879,4.9742,5.0738,5.1288,5.1288,5.1297,5.1304,5.1304,5.1258,5.1187,5.112,5.1109,5.1037,5.0921,5.0913,5.0736,5.0371,4.9974,4.9126,4.8041,4.781,4.6856,4.5511,4.5406,4.5038,4.4524,4.4202,4.3943,4.3675,4.3458,4.316,4.2882,4.2882,4.2882,4.2882,4.2882,4.2882,4.2882,4.2882,4.288,4.2822,4.2822,4.2727,4.2613,4.2523,4.206,4.1576,4.1395,4.0312,3.9369,3.9278,3.8681,3.8192,3.8192,3.8192,3.8192,3.8192,3.8192,3.8189,3.818,3.759,3.7192,3.7162,3.6648,3.6303,3.6303,3.6303,3.6342,3.6482,3.7174,3.7618,3.7737,3.8459,3.8965,3.922,3.9494,3.9814,4.0147,4.0491,4.0604,4.0526,4.0713,4.0788,3.089,3.1877,3.2592,0.0,3.489,3.6115,3.7083,3.7528,3.8232,4.0013,4.0775,4.1522,4.2857,4.3821,4.4626,0.0,4.5706,4.601,4.6098,4.6137,4.6137,4.608,4.6017,4.5969,4.5969,4.5969,4.6533,4.7874,4.8341,4.9166,5.0539,5.1004,5.1252,5.1252,5.1252,5.1252,5.1252,5.1218,5.1171,5.1105,5.1062,5.0984,5.0897,5.0863,5.0567,5.0078,4.9502,4.8954,4.8468,4.7518,4.6717,4.5978,4.4865,4.422,4.4017,4.421,4.3992,4.359,4.3526,4.325,4.2842,4.2842,4.2862,4.29,4.2747,4.2804,4.2842,4.2747,4.2727,4.2688,4.2688,4.2649,4.2609,4.2609,4.2397,4.2075,4.1683,4.1069,4.0329,3.9462,3.8993,3.8562,3.8093,3.8021,3.8021,3.8021,3.8124,3.8207,3.8307,3.8031,3.7877,3.7985,3.7821,3.7698,3.7698,3.7698,3.7728,3.7787,3.8169,3.8422,3.8479,3.9024,3.9324,3.9272,3.98,4.0043,3.9964,4.0403,4.0848,4.1262,4.1326,4.1699,3.1992,0.0,0.0,3.538,3.7187,3.8694,3.8671,3.9182,3.9904,4.0688,4.1354,4.2066,4.2931,4.3852,4.4678,4.5393,4.5807,4.6066,4.6137,4.6195,4.6199,4.615,4.6142,4.6153,4.6153,4.6125,4.6702,4.8125,4.8496,4.9296,5.0755,5.1089,5.1225,5.1203,5.1178,5.1161,5.1161,5.1133,5.11,5.103,5.0998,5.0932,5.0883,5.0644,5.0275,4.9721,4.9155,4.8779,4.8481,4.7311,4.6568,4.6015,4.4524,4.3781,4.3646,4.4017,4.3791,4.3353,4.3373,4.3087,4.2745,4.2745,4.2765,4.2786,4.2631,4.2649,4.2745,4.2609,4.257,4.2588,4.2588,4.253,4.253,4.253,4.253,4.2426,4.1929,4.1623,4.1063,4.0022,3.9409,3.8906,3.833,3.8061,3.7899,3.7899,3.8003,3.814,3.8223,3.8274,3.8354,3.8478,3.8609,3.8658,3.8707,3.8707,3.8707,3.8719,3.8822,3.891,3.8939,3.921,3.9384,3.9454,4.0116,4.0421,4.0339,4.0901,4.1456,4.1982,4.2101,4.2661,0.0,0.0,3.555,3.8356,3.9877,4.0811,4.1201,4.1474,4.1635,4.1742,4.1777,4.2066,4.2931,4.3758,4.436,4.4525,4.5315,4.5939,4.5996,4.6171,4.6262,4.6191,4.6241,4.6289,0.0,4.6186,4.6449,4.7279,4.8245,4.9128,4.9898,5.0801,5.1274,5.1203,5.1152,5.1105,5.1105,5.0976,5.0909,5.0916,5.0916,5.0863,5.0793,5.0206,4.9721,4.9415,4.9061,4.8463,4.7738,4.7683,4.6735,4.5291,4.493,4.4278,4.3563,4.3339,4.3123,4.2882,4.2645,4.2566,4.2609,4.2609,4.2609,4.2609,4.2609,4.2609,4.2609,4.2609,4.2548,4.2503,4.2503,4.2405,4.2328,4.2328,4.2405,4.2503,4.2468,4.192,4.1405,4.1351,4.0128,3.9085,3.9067,3.842,3.7899,3.7899,3.7917,3.7916,3.8002,3.8189,3.8354,3.8478,3.8491,3.8559,3.8707,3.8707,3.8719,3.8792,3.8792,3.8881,3.8979,3.9007,3.9425,4.0327,4.0906,4.1423,4.1945,4.2584,4.2737,4.2389,4.2849,4.3431,3.2885,0.0,3.6993,3.8701,4.0382,4.1693,4.2058,4.1915,4.1711,4.178,4.0912,4.0392,4.1219,4.1673,4.2279,4.3453,4.4469,4.5326,4.5974,4.6114,4.6183,4.6254,4.6282,0.0,0.0,0.0,0.0,4.7447,4.8278,4.9083,4.9923,5.0735,5.1162,5.1122,5.1043,5.0961,5.0961,5.0925,5.0897,5.0899,5.0625,5.0467,5.0383,4.983,4.9518,4.9384,4.9027,4.8444,4.7664,4.7125,4.6271,4.5199,4.4173,4.3559,4.3268,4.2768,4.2552,4.2512,4.2709,4.2649,4.2526,4.2526,4.2548,4.257,4.245,4.2468,4.2526,4.2427,4.2369,4.2346,4.2346,4.2328,4.2287,4.2287,4.2328,4.2387,4.2463,4.223,4.1855,4.1414,4.0838,4.0119,3.9099,3.8668,3.8329,3.7847,3.7898,3.7967,3.7984,3.8189,3.834,3.8354,3.8465,3.851,3.8559,3.8803,3.891,3.875,3.895,3.9248,3.9644,3.9764,4.0211,4.1111,4.1477,4.1738,4.1865,4.2224,4.2737,4.3393,4.356,4.4189,3.4053,3.5948,3.7776,3.9194,4.0726,4.1901,4.1923,4.1741,4.1452,4.0891,3.9679,3.8808,3.9104,3.9185,3.9889,4.1903,4.3094,4.4296,4.5815,4.6079,4.6143,4.6276,4.6301,0.0,0.0,0.0,0.0,4.7026,4.808,4.8903,4.9406,5.045,5.1024,5.1004,5.0921,5.0858,5.0858,5.0861,5.0846,5.0829,5.0446,5.0187,5.0043,4.9598,4.9334,4.9206,4.8695,4.8017,4.7218,4.6401,4.5584,4.4753,4.375,4.3268,4.3123,4.2613,4.2391,4.2328,4.2591,4.257,4.2445,4.2445,4.2468,4.249,4.2328,4.2346,4.2405,4.2328,4.2287,4.2287,4.2287,4.2246,4.2163,4.2163,4.2163,4.2205,4.2264,4.2287,4.2185,4.1747,4.1346,4.0788,3.9789,3.9165,3.8629,3.815,3.806,3.8018,3.7967,3.8122,3.8256,3.8401,3.851,3.8646,3.8826,3.897,3.9118,3.9257,3.9375,3.9745,4.0394,4.0505,4.1045,4.2058,4.223,4.2462,4.2726,4.2904,4.3396,4.4159,4.4276,4.4825,3.5758,3.6897,3.8044,3.9843,4.0998,4.1577,4.1073,4.1149,4.0863,3.9222,3.8169,3.7338,0.0,0.0,3.743,4.0023,4.1403,4.3043,4.555,4.6029,4.6147,0.0,0.0,0.0,0.0,0.0,0.0,4.6221,0.0,4.8627,4.8464,5.0001,5.0859,5.081,5.0793,5.0793,5.0793,5.0793,5.0738,5.0682,5.0339,5.0038,4.9776,4.9499,4.9193,4.8872,4.8091,4.7274,4.6438,4.5677,4.4822,4.3955,4.3679,4.3426,4.316,4.2826,4.2534,4.2287,4.2328,4.2328,4.2287,4.2287,4.2287,4.2287,4.2287,4.2287,4.2287,4.2287,4.2287,4.2287,4.2287,4.2103,4.1892,4.1892,4.1874,4.1874,4.1874,4.2103,4.2287,4.2287,4.1645,4.1092,4.1092,3.986,3.8861,3.8861,3.8492,3.8176,3.7934,3.7967,3.8168,3.8548,3.8707,3.8931,3.938,3.9249,3.949,4.028,4.0136,4.0368,4.1222,4.1259,4.186,4.3128,4.3147,4.3549,4.4402,4.4493,4.4591,4.4617,4.4919,4.5282,3.6069,3.7723,3.9399,3.9878,4.0871,4.167,4.1528,4.0839,3.9977,3.9089,3.7146,3.5448,0.0,0.0,0.0,3.9341,4.1582,0.0,4.5627,4.6013,0.0,4.615,0.0,4.7266,4.7269,4.7733,0.0,0.0,4.8243,4.872,4.9265,5.0268,5.0825,5.0793,5.0793,5.0793,5.0793,5.0738,5.0606,5.032,5.0043,4.9749,4.9499,4.9174,4.8959,4.889,4.8686,4.7794,4.6475,4.6271,4.5324,4.3955,4.3679,4.3426,4.3196,4.3123,4.2729,4.2328,4.2534,4.2472,4.2287,4.2287,4.2287,4.2287,4.2287,4.2287,4.2287,4.2287,4.2287,4.2246,4.2061,4.1977,4.1831,4.1719,4.1692,4.1692,4.1692,4.1849,4.2019,4.2019,4.1505,4.1092,4.1092,4.0482,3.9985,3.9985,4.0056,3.9613,3.8231,3.8267,3.8504,3.873,3.9401,3.9801,3.9771,4.0598,4.0987,4.0772,4.1163,4.1582,4.2022,4.231,4.2895,4.3834,4.3751,4.3886,4.4318,4.4192,4.425,4.4438,4.48,4.5096,3.7179,3.831,3.9368,3.9368,3.9896,4.0232,3.9547,3.8927,3.8086,3.6689,3.4945,0.0,0.0,0.0,0.0,0.0,0.0,0.0,4.5045,4.5716,4.6021,0.0,4.6991,0.0,4.7528,4.8176,4.873,0.0,4.8941,4.9083,4.9486,5.031,5.0758,5.0758,5.0758,5.0758,5.0758,5.0567,5.0383,5.0206,4.9803,4.9558,4.9384,4.9061,4.8909,4.889,0.0,4.7664,4.6475,4.6122,4.5194,4.4005,4.3828,4.3597,4.3356,4.3124,4.275,4.2333,4.2234,4.2127,4.2037,4.2121,4.2061,4.2037,4.2103,4.2061,4.2037,4.2103,4.2061,4.1995,4.1934,4.1744,4.1569,4.1604,4.1498,4.1408,4.1408,4.1587,4.1805,4.1874,4.1665,4.1487,4.1627,4.124,4.0925,4.0925,4.0955,4.0592,3.9597,3.9552,3.9711,3.9919,4.0521,4.0914,4.0952,4.1555,4.194,4.2039,4.2286,4.2594,4.3028,4.3256,4.3655,4.426,4.4079,4.4121,4.443,4.4221,4.4221,4.4355,4.4701,4.503,3.8475,3.8707,3.8707,3.8707,3.8658,3.8239,3.6748,3.6411,3.5787,3.3499,0.0,3.1732,3.126,3.2006,3.36,3.6408,0.0,4.1558,4.4217,4.5258,4.5833,4.6041,4.7053,4.7694,4.7564,4.8331,4.9091,4.9726,4.9772,4.9691,4.9586,5.0279,5.0702,5.0702,5.0702,5.0683,5.0624,5.0358,5.0159,5.0087,4.9627,4.9384,4.9302,4.9027,4.8874,4.8837,0.0,0.0,4.6572,4.5867,4.5013,4.4141,4.4141,4.3855,4.3442,4.2996,4.2637,4.2234,4.1788,4.1604,4.1604,4.1805,4.1719,4.1648,4.1805,4.1719,4.1648,4.1805,4.1719,4.1648,4.1744,4.1525,4.1255,4.1471,4.1318,4.1163,4.1163,4.1363,4.1587,4.1805,4.1831,4.1934,4.2163,4.1956,4.1775,4.1775,4.164,4.1562,4.1562,4.13,4.1172,4.1427,4.1744,4.2069,4.2347,4.2372,4.273,4.3498,4.3378,4.3492,4.3968,4.4005,4.4151,4.4493,4.4192,4.4221,4.4591,4.4346,4.4221,4.425,4.4572,4.4896,3.8621,3.8707,3.8707,3.8707,3.8254,3.7558,3.6619,3.5457,0.0,0.0,3.1424,3.0628,3.016,3.1474,3.3492,3.6215,0.0,0.0,0.0,0.0,4.5218,0.0,0.0,0.0,0.0,0.0,0.0,0.0,0.0,5.049,5.0471,5.0606,5.0702,5.0702,5.0702,5.0565,5.0294,5.023,4.9987,4.9529,4.9427,4.9239,4.8959,4.8874,4.8822,4.8804,4.8566,0.0,4.7219,4.7106,4.6147,4.4816,4.4816,4.4013,4.2884,4.2996,4.2501,4.1762,4.1881,4.1622,4.13,4.1587,4.1648,4.1604,4.1648,4.1648,4.1604,4.1648,4.1648,4.156,4.1391,4.1255,4.1163,4.1059,4.0965,4.0965,4.0965,4.1134,4.1363,4.1587,4.1648,4.1692,4.1736,4.223,4.2573,4.2573,4.3128,4.3497,4.3497,4.2316,4.156,4.1698,4.2352,4.2743,4.2638,4.3427,4.3876,4.3769,4.3949,4.4061,4.3929,4.3974,4.4121,4.4411,4.3936,4.3949,4.4519,4.4091,4.3883,4.3897,4.4221,4.4519,3.8658,3.8707,3.8707,3.8707,3.8113,3.7095,3.5423,0.0,0.0,0.0,3.0095,2.9731,2.9608,0.0,0.0,0.0,0.0,0.0,0.0,0.0,0.0,0.0,0.0,0.0,0.0,0.0,0.0,0.0,0.0,0.0,5.0702,5.0702,5.0683,5.0643,5.0483,5.0294,5.0092,4.9792,4.9502,4.9252,4.9057,4.8906,4.875,4.8714,4.8697,4.8697,4.8642,0.0,4.6452,4.667,4.557,4.3743,4.4205,4.365,4.258,4.2659,4.2244,4.1657,4.1463,4.1255,4.1041,4.1198,4.1244,4.1244,4.1363,4.1318,4.1244,4.1363,4.1318,4.1226,4.1209,4.1117,4.1041,4.1041,4.0965,4.0888,4.0888,4.0965,4.1088,4.1363,4.1408,4.148,4.1856,4.2378,4.2828,4.3014,4.3529,4.3897,4.3961,4.3274,4.2823,4.2925,4.3368,4.3639,4.3532,4.4063,4.4383,4.4308,4.4308,4.4221,4.4079,4.3936,4.4042,4.4346,4.3999,4.4011,4.4438,4.4121,4.3865,4.3701,4.4091,4.4402,3.8572,3.8658,3.8707,3.8707,3.7955,3.6633,3.4321,3.3036,0.0,0.0,2.9108,2.9138,2.9316,0.0,0.0,0.0,0.0,0.0,0.0,0.0,0.0,0.0,0.0,0.0,0.0,0.0,0.0,0.0,0.0,0.0,5.0702,5.0702,5.0643,5.0521,5.0249,5.0019,4.9819,4.9352,4.9052,4.9005,4.8713,4.8587,4.8587,4.8605,4.8514,4.8421,4.8383,0.0,0.0,4.601,4.4853,4.2969,4.3524,4.3141,4.2284,4.2144,4.1871,4.1463,4.1059,4.0888,4.0888,4.0888,4.0888,4.0918,4.1088,4.1059,4.0918,4.1071,4.0995,4.0918,4.1071,4.0995,4.0918,4.1088,4.1012,4.0888,4.0888,4.0888,4.0965,4.1134,4.1117,4.1283,4.1839,4.232,4.2714,4.3051,4.3513,4.3837,4.3883,4.3883,4.3897,4.391,4.4116,4.4255,4.4255,4.4373,4.4524,4.4667,4.4365,4.4173,4.4132,4.3823,4.3836,4.4173,4.3968,4.3999,4.427,4.4072,4.3828,4.3582,4.3905,4.4289,3.8308,3.8609,3.8707,3.8707,3.7551,3.5954,3.4192,0.0,0.0,2.9347,2.9062,2.9108,2.9134,2.9407,0.0,0.0,0.0,3.6501,0.0,0.0,0.0,0.0,0.0,0.0,0.0,0.0,0.0,0.0,0.0,0.0,0.0,5.0702,5.0565,5.0249,5.0159,4.9846,4.929,4.915,4.8937,4.866,4.8623,4.8587,4.8587,4.8532,4.8286,4.7875,4.7756,0.0,0.0,4.6006,4.5183,4.4257,4.3686,4.2679,4.1604,4.1561,4.1328,4.0965,4.0935,4.0888,4.0888,4.0888,4.0888,4.0871,4.0918,4.0918,4.0871,4.0918,4.0918,4.0871,4.0918,4.0918,4.0871,4.0918,4.0918,4.0888,4.0888,4.0888,4.0935,4.0918,4.0918,4.0965,4.1012,4.176,4.2346,4.2386,4.3178,4.3804,4.3804,4.3851,4.38,4.3548,4.3846,4.4036,4.4036,4.4207,4.4314,4.4344,4.403,4.3836,4.3855,4.3442,4.3408,4.3758,4.3548,4.3582,4.3836,4.3664,4.3548,4.3532,4.3615,4.398,3.7192,3.7903,3.8401,3.8627,3.7496,3.5862,3.4174,0.0,3.0944,2.9347,2.9017,2.904,2.904,2.9138,2.9857,0.0,0.0,0.0,0.0,0.0,0.0,0.0,0.0,0.0,0.0,0.0,0.0,0.0,0.0,0.0,0.0,5.044,5.0249,5.0092,4.9617,4.9234,4.8967,4.873,4.8532,4.842,4.842,4.842,4.842,4.8075,4.7875,4.7632,4.7335,0.0,0.0,4.5214,4.4192,4.2952,4.2754,4.2061,4.1163,4.1401,4.1237,4.0888,4.0793,4.0793,4.0793,4.068,4.068,4.068,4.0823,4.0888,4.0888,4.0888,4.0888,4.0888,4.0888,4.0888,4.0888,4.0888,4.0888,4.0888,4.0888,4.0888,4.0888,4.0888,4.0888,4.0965,4.1192,4.1561,4.1913,4.2221,4.2598,4.2958,4.3286,4.3338,4.332,4.3284,4.3579,4.3697,4.3529,4.3582,4.3664,4.3758,4.3458,4.3266,4.3371,4.316,4.316,4.3508,4.3356,4.3426,4.3758,4.3461,4.3358,4.3446,4.3481,4.3744,3.5926,3.6924,3.7657,3.794,3.6802,3.518,0.0,3.1991,3.0552,2.9156,2.8929,2.8994,2.8994,2.9223,2.9876,3.1238,0.0,3.358,0.0,0.0,0.0,0.0,0.0,0.0,0.0,0.0,0.0,0.0,0.0,0.0,0.0,4.9746,4.9527,4.9865,4.9234,4.8847,4.8713,4.8439,4.8306,4.8306,4.8306,4.8229,4.8075,4.7775,4.7464,4.716,0.0,0.0,0.0,4.4607,4.3617,4.2348,4.2184,4.1611,4.0918,4.1209,4.1163,4.0888,4.0745,4.0697,4.0697,4.0534,4.0485,4.0534,4.0728,4.0776,4.0776,4.0776,4.0823,4.084,4.0888,4.0888,4.0888,4.0888,4.0888,4.084,4.084,4.084,4.0776,4.084,4.084,4.0965,4.1283,4.1445,4.1604,4.1948,4.2115,4.232,4.2714,4.2772,4.2772,4.2754,4.2996,4.3123,4.3087,4.3069,4.316,4.332,4.305,4.2939,4.3032,4.2864,4.2902,4.3178,4.3105,4.3214,4.3458,4.3268,4.3233,4.334,4.334,4.3563,3.4587,3.5705,3.6416,3.6399,3.5202,3.363,0.0,3.0718,2.9598,2.8764,2.8834,2.8994,2.8994,2.9659,3.0448,3.1256,3.2724,0.0,0.0,0.0,0.0,0.0,0.0,0.0,0.0,0.0,0.0,0.0,0.0,0.0,0.0,4.8555,4.8303,4.9579,4.9145,4.8781,4.8513,4.8363,4.8306,4.8306,4.8306,4.8035,4.7591,4.7591,4.7097,0.0,0.0,0.0,0.0,4.4578,4.387,4.3128,4.2334,4.1574,4.0888,4.0871,4.0871,4.0888,4.0745,4.0697,4.0697,4.0534,4.0485,4.0485,4.0517,4.0517,4.0517,4.0517,4.0583,4.0745,4.0888,4.0888,4.0888,4.0888,4.0793,4.0697,4.0697,4.0583,4.0534,4.0697,4.0697,4.0745,4.0871,4.1255,4.1472,4.1534,4.1906,4.2198,4.2198,4.2244,4.2203,4.1966,4.199,4.2221,4.2772,4.2792,4.2903,4.3196,4.3013,4.2882,4.2882,4.2709,4.2609,4.2609,4.2745,4.2842,4.292,4.3049,4.3123,4.3214,4.3214,4.3426,3.1898,3.2896,3.3598,3.3987,3.3265,3.221,3.1124,3.0145,2.9233,2.8416,2.8334,2.8438,2.8676,2.8943,2.9794,3.1891,3.2651,0.0,0.0,0.0,0.0,0.0,0.0,0.0,0.0,0.0,0.0,0.0,0.0,0.0,0.0,4.7186,4.7532,4.9057,4.8692,4.8458,4.8363,4.8306,4.8306,4.8306,4.7977,4.7715,4.7591,4.6936,0.0,0.0,0.0,0.0,0.0,4.4492,4.4044,4.37,4.226,4.1658,4.1432,4.0868,4.0631,4.0631,4.0502,4.0453,4.0387,4.0288,4.0238,4.0238,4.0238,4.037,4.0485,4.0485,4.0534,4.0583,4.0631,4.0631,4.0631,4.0745,4.0745,4.0697,4.0697,4.0648,4.0648,4.0583,4.0534,4.0583,4.0745,4.0871,4.0995,4.1088,4.1209,4.1418,4.1692,4.1717,4.1717,4.1666,4.1648,4.1753,4.1966,4.1984,4.2068,4.2292,4.2234,4.2292,4.2472,4.2151,4.1966,4.1966,4.211,4.2192,4.2216,4.2591,4.2842,4.3013,4.3086,4.3339,2.9886,3.089,3.1603,3.1929,3.1414,3.0638,2.9796,2.9112,2.851,2.8014,2.802,2.8183,2.8551,2.9109,3.0101,3.1847,3.2926,0.0,0.0,0.0,0.0,0.0,0.0,0.0,0.0,0.0,0.0,0.0,0.0,0.0,0.0,0.0,4.6242,4.7624,4.7776,4.7827,4.7732,4.8101,4.7986,4.746,4.7179,4.6704,4.6052,4.5764,0.0,0.0,0.0,0.0,0.0,4.4523,4.394,4.31,4.233,4.1731,4.1216,4.0705,4.0485,4.0485,4.0355,4.0305,4.0305,4.0121,4.007,4.007,4.007,4.0238,4.0387,4.0436,4.0436,4.0436,4.0485,4.0485,4.0534,4.0583,4.06,4.0551,4.0551,4.0502,4.0485,4.0485,4.0485,4.0485,4.0648,4.0648,4.0631,4.0728,4.0776,4.0918,4.1146,4.1237,4.1283,4.1283,4.1283,4.13,4.1335,4.1426,4.148,4.1552,4.1552,4.1534,4.1561,4.1366,4.1276,4.1276,4.1428,4.1622,4.1839,4.2333,4.267,4.2786,4.2936,4.3123,0.0,2.9479,3.0133,3.017,2.9621,2.8938,2.8203,2.7794,0.0,2.7565,2.7811,2.8147,2.8528,2.9835,3.1011,3.1455,3.3468,0.0,0.0,0.0,0.0,0.0,0.0,0.0,0.0,0.0,0.0,0.0,0.0,0.0,0.0,0.0,4.4637,4.5403,4.6358,4.6815,4.6676,4.7542,4.7306,4.5953,4.5953,4.5081,4.3502,4.4237,0.0,0.0,0.0,0.0,0.0,4.4534,4.356,4.1715,4.233,4.1783,4.0554,4.0502,4.0485,4.0436,4.0337,4.0305,4.0255,4.0138,4.007,4.007,4.007,4.007,4.0138,4.0238,4.0305,4.0288,4.0436,4.0485,4.0485,4.0468,4.0387,4.0305,4.0305,4.0188,4.0188,4.0436,4.0387,4.0355,4.0648,4.0583,4.0485,4.0485,4.06,4.0697,4.0697,4.0776,4.0888,4.0871,4.0871,4.0823,4.0888,4.1041,4.11,4.099,4.0972,4.0767,4.0331,4.0463,4.0528,4.0528,4.0642,4.1019,4.1622,4.2251,4.253,4.2552,4.2706,4.2804,2.6241,0.0,2.7743,2.7776,2.7673,2.7503,0.0,2.724,2.7213,2.7213,0.0,2.7762,2.8606,2.9054,3.0095,3.2451,3.3855,0.0,0.0,0.0,0.0,0.0,0.0,0.0,0.0,0.0,0.0,0.0,0.0,0.0,0.0,0.0,4.3543,4.3687,4.4204,4.4777,4.5351,4.559,4.5306,4.4618,4.4276,4.388,4.3502,4.3889,0.0,0.0,0.0,0.0,4.2822,4.2993,4.2754,4.2244,4.1766,4.1393,4.112,4.0442,4.0171,4.0171,4.0188,4.0138,4.0138,4.0121,4.007,4.007,4.007,4.007,4.0138,4.0138,4.0138,4.0121,4.0188,4.0171,4.0238,4.0337,4.0337,4.0305,4.0305,4.0305,4.0238,4.0188,4.0188,4.0188,4.0355,4.0355,4.0387,4.0468,4.0534,4.0534,4.0534,4.0583,4.0631,4.0745,4.0485,4.0337,4.0436,4.0776,4.0884,4.0689,4.0672,4.0577,4.0331,4.0019,3.9851,3.9851,3.9986,4.0334,4.1019,4.1516,4.1796,4.1924,4.2369,4.2606,2.5351,2.6418,2.7616,2.7634,2.7792,2.7913,2.7913,2.7436,2.7023,0.0,0.0,2.7902,2.8662,2.9479,3.0672,3.267,3.4298,0.0,0.0,0.0,0.0,0.0,0.0,0.0,0.0,0.0,0.0,0.0,0.0,0.0,0.0,4.2882,4.2711,4.2709,4.2691,4.3179,4.4193,4.4425,4.4103,4.3208,4.2945,4.25,4.1963,4.2415,4.2465,0.0,0.0,0.0,4.1918,4.2257,4.1985,4.1358,4.1273,4.1035,4.0731,4.0273,4.007,4.007,4.007,4.007,4.007,4.007,4.007,4.007,4.007,4.0037,4.0037,4.007,4.007,4.007,4.007,4.007,4.0138,4.0188,4.0188,4.0188,4.0188,4.0188,4.0188,4.0188,4.0138,4.0138,4.0305,4.0238,4.0238,4.0337,4.0387,4.0387,4.0387,4.0551,4.06,4.06,4.0204,4.0054,4.0188,4.0154,4.0037,3.9851,3.9851,3.9732,3.9473,3.9242,3.9152,3.9242,3.9542,3.9902,4.0252,4.0814,4.123,4.1499,4.1874,4.2246,2.5259,2.6918,2.8533,2.8279,2.8569,2.8945,2.9008,0.0,0.0,0.0,0.0,0.0,0.0,0.0,0.0,0.0,0.0,0.0,0.0,0.0,0.0,0.0,0.0,0.0,0.0,0.0,0.0,0.0,0.0,0.0,0.0,4.2476,4.2157,4.2115,4.163,4.1903,4.2985,4.3421,4.2964,4.1736,4.1736,4.1165,4.0104,4.0865,4.1136,0.0,0.0,0.0,4.1085,4.1694,4.1221,4.0138,4.0781,4.0646,4.007,4.007,4.002,3.9969,3.9969,3.9969,4.002,4.007,4.0087,4.002,3.9901,3.9867,3.9884,3.9901,3.9969,4.0037,4.0037,4.007,4.0087,4.0087,4.0087,4.007,4.007,4.007,4.0121,4.0238,4.0188,4.0138,4.0238,4.0188,4.007,4.007,4.0188,4.0255,4.0255,4.0453,4.06,4.0485,4.002,3.9817,3.9969,3.9435,3.9007,3.8914,3.8969,3.8821,3.8391,3.852,3.86,3.875,3.9206,3.9454,3.9506,4.0136,4.0655,4.1076,4.1321,4.177,2.5482,2.7624,2.9228,2.769,2.801,2.8707,2.8962,2.8572,0.0,0.0,0.0,0.0,0.0,0.0,0.0,0.0,0.0,0.0,0.0,0.0,0.0,0.0,0.0,0.0,0.0,0.0,0.0,0.0,0.0,0.0,0.0,0.0,4.2032,4.1613,4.1139,4.0995,4.1192,4.1267,4.0999,4.0391,4.0391,4.029,4.0104,4.0865,4.0849,0.0,0.0,4.095,4.0257,4.0375,4.0273,4.0087,4.0206,4.0172,4.007,4.007,3.9799,3.9312,3.9312,3.954,3.9781,3.9884,3.9833,3.9661,3.9102,3.9295,3.9609,3.9049,3.9348,3.9781,3.9781,3.9833,3.9952,3.9952,4.0037,4.007,4.007,4.007,4.0138,4.0138,4.0121,4.0138,4.0138,4.0121,4.007,4.007,4.0138,4.0121,4.0121,4.0188,4.0238,4.0337,3.9679,3.9365,3.9487,3.8914,3.8488,3.8504,3.8805,3.8821,3.8391,3.8391,3.8504,3.8616,3.8727,3.8805,3.8898,3.9506,3.98,3.9885,4.0874,4.141,2.4491,2.609,2.7601,2.745,2.9016,3.0617,3.0757,2.9766,0.0,0.0,0.0,0.0,0.0,0.0,0.0,0.0,0.0,0.0,0.0,0.0,0.0,0.0,0.0,0.0,0.0,0.0,0.0,0.0,0.0,0.0,0.0,0.0,4.1321,4.1139,4.0611,4.0303,4.0303,4.0254,4.0154,4.007,4.007,4.007,4.0087,4.0443,4.0409,4.0104,0.0,4.0392,4.007,4.007,3.9918,3.9592,3.9592,3.9401,3.9119,3.8978,3.8761,3.8446,3.8446,3.8794,3.9119,3.8849,3.8957,3.9049,3.843,3.839,3.8502,3.8206,3.8903,3.9781,3.9729,3.9781,3.9901,3.9798,3.9833,3.9884,3.9986,3.9986,4.0037,4.0087,4.007,4.007,4.007,4.007,4.007,4.007,4.007,4.007,4.007,4.0188,4.0188,4.0188,3.9679,3.9259,3.9115,3.8639,3.8375,3.8391,3.8544,3.86,3.8408,3.8391,3.8464,3.8504,3.8727,3.8711,3.86,3.9098,3.9401,3.9489,4.0119,4.0655,2.3984,2.5017,2.6306,2.7596,0.0,3.1316,3.2185,3.0897,0.0,0.0,0.0,0.0,0.0,0.0,0.0,0.0,0.0,0.0,0.0,0.0,0.0,0.0,0.0,0.0,0.0,0.0,0.0,0.0,0.0,0.0,0.0,0.0,4.0754,4.0628,4.0171,3.9901,3.9901,3.9781,3.9833,4.0037,3.9918,3.985,3.9833,3.9731,3.9679,3.961,3.9679,3.9679,3.9679,3.9679,3.9401,3.8903,3.8903,3.8613,3.8165,3.7905,3.779,3.7764,3.7648,3.7905,3.8302,3.7863,3.8035,3.8302,3.7632,3.7531,3.7531,3.7354,3.8294,3.9382,3.9382,3.9573,3.9798,3.9694,3.9677,3.9729,3.9833,3.9833,3.9884,4.0037,4.0037,4.007,4.007,3.9969,3.9918,3.9918,3.9799,3.9679,3.9679,3.9799,3.9799,3.9679,3.9279,3.8903,3.8511,3.823,3.8116,3.8148,3.8335,3.8391,3.8391,3.8391,3.8391,3.8391,3.8711,3.8711,3.8391,3.8805,3.9044,3.9189,3.9542,4.0053,2.5121,2.5986,2.6863,2.8218,2.8046,2.8435,3.179,3.1715,0.0,3.2807,0.0,0.0,0.0,0.0,0.0,0.0,0.0,0.0,0.0,0.0,0.0,0.0,0.0,0.0,0.0,0.0,0.0,0.0,0.0,0.0,0.0,0.0,0.0,4.0171,3.9986,3.9901,3.9901,3.9781,3.9781,3.9901,3.9382,3.9065,3.8962,3.8613,3.8318,3.8157,3.8318,3.8446,3.8446,3.8446,3.8318,3.8117,3.8117,3.7962,3.7764,3.7354,3.7354,3.7531,3.7131,3.7191,3.7546,3.7589,3.7531,3.7354,3.6723,3.6951,3.731,3.6662,3.7115,3.7879,3.8278,3.8952,3.9554,3.9501,3.959,3.9677,3.9729,3.9729,3.9729,3.9901,3.9901,3.9935,4.0087,3.9644,3.9259,3.9259,3.8794,3.8446,3.8446,3.8446,3.8446,3.8446,3.8197,3.787,3.7519,3.7476,3.7476,3.7476,3.8033,3.8391,3.8391,3.8391,3.8391,3.8391,3.8448,3.8448,3.8391,3.8448,3.8448,3.8504,3.9506,3.98,2.4223,2.4911,2.5802,2.7162,2.7298,0.0,0.0,3.2029,3.2552,3.3828,3.4363,0.0,0.0,0.0,0.0,0.0,0.0,0.0,0.0,0.0,0.0,0.0,0.0,0.0,0.0,0.0,0.0,0.0,0.0,0.0,0.0,0.0,0.0,3.9884,3.9746,3.9642,3.9642,3.9537,3.9292,3.9028,3.8887,3.8596,3.8206,3.8035,3.7921,3.7847,3.7994,3.7994,3.7994,3.7994,3.769,3.7279,3.6874,3.6646,3.6446,3.6275,3.6243,3.6258,3.6085,3.6383,3.6723,3.6368,3.6492,3.6662,3.6022,3.6037,3.6148,3.591,3.6321,3.7011,3.7605,3.801,3.8311,3.8181,3.8238,3.8294,3.8407,3.839,3.8557,3.9049,3.8849,3.8794,3.9312,3.8887,3.8486,3.8629,3.8463,3.8278,3.8278,3.8278,3.8278,3.8278,3.7854,3.7653,3.7695,3.7389,3.721,3.7417,3.7828,3.8017,3.7786,3.8164,3.8278,3.8075,3.8528,3.8655,3.8391,3.8898,3.9007,3.8821,3.9454,3.9817,2.3851,2.4312,2.5018,2.6131,0.0,0.0,3.04,3.197,3.321,3.4365,3.4667,0.0,0.0,0.0,0.0,0.0,0.0,0.0,0.0,0.0,0.0,0.0,0.0,0.0,0.0,0.0,0.0,0.0,0.0,0.0,0.0,0.0,0.0,0.0,3.959,3.9501,3.9501,3.9379,3.9023,3.8463,3.8318,3.7962,3.7397,3.7294,3.7175,3.716,3.7175,3.7235,3.7235,3.7235,3.6951,3.6477,3.607,3.5782,3.5638,3.5688,3.5589,3.5504,3.5504,3.5797,3.6022,3.5619,3.5797,3.6022,3.5619,3.5504,3.5504,3.5504,3.5797,3.6196,3.6662,3.7191,3.7531,3.7429,3.7429,3.7429,3.7531,3.7531,3.7706,3.8246,3.8035,3.7937,3.8518,3.8092,3.7674,3.7822,3.7706,3.7589,3.7589,3.7589,3.7589,3.7648,3.7342,3.7178,3.7417,3.7089,3.6923,3.7118,3.7433,3.7551,3.7417,3.7844,3.796,3.777,3.823,3.8399,3.8262,3.881,3.9028,3.9023,3.9401,3.9765,2.4476,2.4552,2.4792,0.0,0.0,0.0,2.9484,3.1389,3.3259,3.4541,0.0,0.0,0.0,0.0,0.0,0.0,0.0,0.0,0.0,0.0,0.0,0.0,0.0,0.0,0.0,0.0,0.0,0.0,0.0,0.0,0.0,0.0,0.0,0.0,3.9537,3.9484,3.9501,3.9325,3.8969,3.8278,3.7648,3.7115,3.6615,3.6196,3.591,3.5688,3.5894,3.5973,3.5973,3.5973,3.5894,3.5688,3.5688,3.5589,3.5504,3.5638,3.5589,3.5504,3.5504,3.5504,3.5504,3.5504,3.5504,3.5504,3.5504,3.5504,3.5504,3.5504,3.5504,3.5504,3.5504,3.6445,3.737,3.737,3.737,3.737,3.737,3.737,3.7413,3.7531,3.7589,3.7648,3.7764,3.7294,3.689,3.689,3.6383,3.5973,3.5973,3.5973,3.6022,3.6196,3.6352,3.6492,3.6492,3.6492,3.6492,3.6492,3.6816,3.7105,3.7358,3.7417,3.7417,3.7401,3.7417,3.7594,3.787,3.7886,3.8286,3.9023,3.9418,3.961,2.3763,2.4597,0.0,2.5555,0.0,0.0,0.0,3.1785,0.0,0.0,0.0,0.0,0.0,0.0,0.0,0.0,0.0,0.0,0.0,0.0,0.0,0.0,0.0,0.0,0.0,0.0,0.0,0.0,0.0,0.0,0.0,0.0,0.0,0.0,3.8479,3.8254,3.8645,3.8197,3.7605,3.6951,3.6768,3.66,3.6415,3.591,3.5619,3.5554,3.5619,3.5619,3.5619,3.5619,3.5619,3.5554,3.5554,3.5554,3.5504,3.5554,3.5554,3.5504,3.5504,3.5504,3.5504,3.5504,3.5504,3.5504,3.5504,3.5504,3.5504,3.5504,3.5504,3.5504,3.5504,3.5797,3.6085,3.6085,3.6085,3.6085,3.6085,3.6085,3.6196,3.6662,3.643,3.6321,3.689,3.6477,3.6117,3.6274,3.6085,3.5973,3.5973,3.5973,3.6037,3.6037,3.61,3.6163,3.6163,3.6211,3.6274,3.6274,3.6492,3.6677,3.6785,3.7178,3.7535,3.777,3.7535,3.7637,3.8157,3.8254,3.8407,3.8701,3.9627,4.007,2.4476,2.5181,0.0,2.6916,2.848,0.0,0.0,0.0,0.0,0.0,0.0,0.0,0.0,0.0,0.0,0.0,0.0,0.0,0.0,0.0,0.0,0.0,0.0,0.0,0.0,0.0,0.0,0.0,0.0,0.0,0.0,0.0,0.0,0.0,3.778,3.7589,3.7937,3.7589,3.7191,3.6784,3.6554,3.643,3.6368,3.5797,3.5504,3.5504,3.5504,3.5504,3.5504,3.5504,3.5504,3.5504,3.5504,3.5504,3.5504,3.5504,3.5504,3.5504,3.5504,3.5504,3.5504,3.5504,3.5504,3.5504,3.5504,3.5504,3.5504,3.5504,3.5504,3.5504,3.5504,3.5504,3.5504,3.5504,3.5504,3.5504,3.5504,3.5504,3.5619,3.5973,3.5733,3.5683,3.6148,3.5894,3.5653,3.5797,3.5797,3.5797,3.5797,3.5846,3.5894,3.5894,3.5973,3.5973,3.5973,3.6085,3.6148,3.6148,3.6226,3.6304,3.6304,3.6769,3.7134,3.7358,3.7358,3.7637,3.8157,3.8479,3.8756,3.9082,3.9816,4.0255,2.5897,0.0,0.0,0.0,0.0,0.0,0.0,0.0,0.0,0.0,0.0,0.0,0.0,0.0,0.0,0.0,0.0,0.0,0.0,0.0,0.0,0.0,0.0,0.0,0.0,0.0,0.0,0.0,0.0,0.0,0.0,0.0,0.0,0.0,3.731,3.7251,3.731,3.7251,3.7251,0.0,3.66,3.6321,3.6321,3.5733,3.5504,3.5504,3.5504,3.5504,3.5504,3.5504,3.5504,3.5504,3.5504,3.5504,3.5504,3.5504,3.5504,3.5504,3.5504,3.5504,3.5504,3.5504,3.5504,3.5504,3.5504,3.5504,3.5504,3.5504,3.5504,3.5504,3.5504,3.5504,3.5504,3.5504,3.5504,3.5504,3.5504,3.5504,3.5504,3.5504,3.5504,3.5504,3.5504,3.5504,3.5504,3.5504,3.5504,3.5504,3.5504,3.5604,3.5688,3.5688,3.5846,3.5973,3.5973,3.5973,3.5973,3.5973,3.5973,3.5973,3.5973,3.6289,3.6492,3.6538,3.7118,3.7594,3.7927,3.8511,3.9131,3.9781,3.9849,4.0087,2.5198,2.5577,0.0,0.0,0.0,0.0,0.0,0.0,0.0,0.0,0.0,0.0,0.0,0.0,0.0,0.0,0.0,0.0,0.0,0.0,0.0,0.0,0.0,0.0,0.0,0.0,0.0,0.0,0.0,0.0,0.0,0.0,0.0,3.7413,3.6445,3.6148,3.66,3.6148,3.591,0.0,3.5733,3.5668,3.5683,3.5554,3.5504,3.5504,3.5504,3.5504,3.5504,3.5504,3.5504,3.5504,3.5504,3.5504,3.5504,3.5504,3.5504,3.5504,3.5504,3.5504,3.5504,3.5504,3.5504,3.5504,3.5504,3.5504,3.5504,3.5504,3.5504,3.5504,3.5504,3.5504,3.5504,3.5504,3.5504,3.5504,3.5504,3.5504,3.5504,3.5504,3.5504,3.5504,3.5504,3.5504,3.5504,3.5504,3.5504,3.5504,3.5504,3.5504,3.5554,3.5554,3.5554,3.5619,3.5619,3.5718,3.5752,3.5752,3.5894,3.5973,3.5973,3.6148,3.6507,3.6966,3.7222,3.7695,3.8238,3.8623,3.886,3.9077,3.9625,3.9952,0.0,0.0,0.0,0.0,0.0,0.0,0.0,0.0,0.0,0.0,0.0,0.0,0.0,0.0,0.0,0.0,0.0,0.0,0.0,0.0,0.0,0.0,0.0,0.0,0.0,0.0,0.0,0.0,0.0,0.0,0.0,3.7071,3.6784,3.6492,3.5861,3.5683,3.5973,3.5683,3.5439,3.5359,3.5439,3.5504,3.5504,3.5504,3.5504,3.5504,3.5504,3.5504,3.5504,3.5504,3.5504,3.5504,3.5504,3.5504,3.5504,3.5504,3.5504,3.5504,3.5504,3.5504,3.5504,3.5504,3.5504,3.5504,3.5504,3.5504,3.5504,3.5504,3.5504,3.5504,3.5504,3.5504,3.5504,3.5504,3.5504,3.5504,3.5504,3.5504,3.5504,3.5504,3.5504,3.5504,3.5504,3.5504,3.5504,3.5504,3.5504,3.5504,3.5504,3.5504,3.5504,3.5504,3.5504,3.5504,3.5504,3.5539,3.5589,3.5589,3.5733,3.5748,3.5748,3.6211,3.6492,3.6554,3.7251,3.7722,3.8051,3.8574,3.9028,3.9345,3.9781,3.9986,0.0,0.0,2.7437,0.0,0.0,0.0,0.0,0.0,0.0,0.0,0.0,0.0,0.0,0.0,0.0,0.0,0.0,0.0,0.0,0.0,0.0,0.0,0.0,0.0,0.0,0.0,0.0,0.0,0.0,0.0,3.6415,3.643,3.6133,3.5504,3.5439,3.5439,3.5439,3.5439,3.5359,3.5213,3.5359,3.5439,3.5439,3.5439,3.5439,3.5439,3.5504,3.5504,3.5439,3.5504,3.5504,3.5504,3.5504,3.5504,3.5504,3.5504,3.5504,3.5504,3.5504,3.5504,3.5504,3.5439,3.5439,3.5439,3.5439,3.5439,3.5439,3.5504,3.5504,3.5504,3.5504,3.5504,3.5504,3.5504,3.5504,3.5504,3.5504,3.5504,3.5504,3.5504,3.5504,3.5504,3.5504,3.5504,3.5504,3.5504,3.5504,3.5504,3.5504,3.5504,3.5504,3.5504,3.5504,3.5504,3.5504,3.5504,3.5504,3.5504,3.5504,3.5504,3.5504,3.6258,3.6445,3.61,3.7294,3.7994,3.7994,3.8707,3.9401,3.9952,4.0037,4.007,0.0,0.0,0.0,0.0,0.0,0.0,0.0,0.0,0.0,0.0,0.0,0.0,0.0,0.0,0.0,0.0,0.0,0.0,0.0,0.0,0.0,0.0,0.0,0.0,0.0,0.0,0.0,0.0,0.0,0.0,3.6399,3.643,3.6133,3.5504,3.5359,3.5228,3.5228,3.5082,3.5067,3.5213,3.5213,3.5228,3.5228,3.5228,3.5228,3.5228,3.5439,3.5424,3.5228,3.5439,3.5504,3.5504,3.5504,3.5504,3.5504,3.5504,3.5504,3.5504,3.5504,3.5504,3.5439,3.5294,3.5228,3.5228,3.5228,3.5228,3.5294,3.5439,3.5504,3.5504,3.5504,3.5504,3.5504,3.5504,3.5504,3.5504,3.5504,3.5504,3.5504,3.5504,3.5504,3.5504,3.5504,3.5504,3.5504,3.5504,3.5504,3.5504,3.5504,3.5504,3.5504,3.5504,3.5504,3.5504,3.5504,3.5504,3.5504,3.5504,3.5504,3.5504,3.5504,3.6085,3.643,3.6368,3.7854,3.8717,3.8849,3.9487,3.9867,4.007,4.007,4.007,2.5213,0.0,0.0,0.0,0.0,0.0,0.0,0.0,0.0,0.0,0.0,0.0,0.0,0.0,0.0,0.0,0.0,0.0,0.0,0.0,0.0,0.0,0.0,0.0,0.0,0.0,0.0,0.0,0.0,3.537,3.5319,3.5698,3.5797,3.5504,3.5294,3.5213,3.5213,3.5001,3.4935,3.5001,3.4949,3.4949,3.5001,3.5001,3.5148,3.5359,3.5359,3.5294,3.5213,3.5148,3.5213,3.5359,3.5359,3.5424,3.5504,3.5504,3.5504,3.5504,3.5504,3.5504,3.5504,3.5424,3.5294,3.5213,3.5213,3.5148,3.5082,3.5294,3.5359,3.5359,3.5439,3.5504,3.5504,3.5504,3.5504,3.5504,3.5504,3.5504,3.5504,3.5504,3.5504,3.5504,3.5504,3.5504,3.5504,3.5504,3.5504,3.5504,3.5504,3.5504,3.5504,3.5504,3.5504,3.5504,3.5504,3.5504,3.5504,3.5504,3.5504,3.5504,3.5504,3.6085,3.643,3.643,3.7429,3.8181,3.8629,3.9011,3.9454,3.9884,4.002,4.007,0.0,0.0,0.0,0.0,0.0,0.0,0.0,0.0,0.0,0.0,0.0,0.0,0.0,0.0,0.0,0.0,0.0,0.0,0.0,0.0,0.0,0.0,0.0,0.0,0.0,0.0,0.0,0.0,0.0,3.3913,3.4077,3.4748,3.5121,3.5121,3.5073,3.5082,3.5082,3.4935,3.4802,3.4802,3.475,3.475,3.4868,3.4868,3.5016,3.5359,3.5213,3.5082,3.5082,3.4935,3.5001,3.5148,3.5148,3.5213,3.5359,3.5424,3.5439,3.5439,3.5504,3.5439,3.5439,3.5359,3.5228,3.5082,3.5082,3.4949,3.4868,3.5082,3.5148,3.5148,3.5294,3.5359,3.5359,3.5359,3.5359,3.5359,3.5504,3.5504,3.5504,3.5504,3.5504,3.5504,3.5504,3.5504,3.5504,3.5504,3.5504,3.5504,3.5504,3.5504,3.5504,3.5504,3.5504,3.5504,3.5504,3.5504,3.5504,3.5504,3.5504,3.5504,3.5504,3.591,3.6258,3.643,3.7071,3.7706,3.8334,3.8541,3.9011,3.9729,3.9935,3.9986,0.0,0.0,0.0,0.0,0.0,0.0,0.0,0.0,0.0,0.0,0.0,0.0,0.0,0.0,0.0,0.0,0.0,0.0,0.0,0.0,0.0,0.0,0.0,0.0,0.0,0.0,0.0,0.0,0.0,3.2431,3.3037,3.3716,3.4085,3.4085,3.4508,3.4698,3.4698,3.4698,3.4616,3.4414,3.4631,3.4698,3.4698,3.4698,3.4817,3.4935,3.4935,3.4802,3.4765,3.4868,3.4935,3.4935,3.4935,3.4935,3.4935,3.5148,3.5213,3.5228,3.5439,3.5359,3.5148,3.5001,3.4817,3.4698,3.4698,3.4698,3.4765,3.4868,3.4935,3.4935,3.4935,3.4935,3.4935,3.4935,3.4935,3.5001,3.5439,3.5504,3.5504,3.5504,3.5504,3.5504,3.5504,3.5504,3.5504,3.5504,3.5504,3.5504,3.5504,3.5504,3.5504,3.5504,3.5504,3.5504,3.5504,3.5504,3.5504,3.5504,3.5504,3.5504,3.5504,3.5504,3.5797,3.6368,3.7071,3.7764,3.8518,3.8502,3.892,3.9677,3.9729,3.9729,0.0,0.0,0.0,0.0,0.0,0.0,0.0,0.0,0.0,0.0,0.0,0.0,0.0,0.0,0.0,0.0,0.0,0.0,0.0,0.0,0.0,0.0,0.0,0.0,0.0,0.0,0.0,0.0,0.0,0.0,3.2326,3.3372,3.3977,3.3977,3.4494,3.4631,3.4481,3.4481,3.4481,3.4414,3.4481,3.4481,3.4481,3.4481,3.4549,3.4616,3.4616,3.4616,3.4698,3.4616,3.4683,3.475,3.475,3.4802,3.4935,3.5001,3.5001,3.5001,3.5082,3.5082,3.5001,3.4935,3.4817,3.4698,3.4698,3.4631,3.4549,3.475,3.475,3.4817,3.4868,3.4935,3.4935,3.4935,3.4935,3.4935,3.5082,3.5082,3.5082,3.5082,3.5082,3.5082,3.5082,3.5082,3.5148,3.5294,3.5294,3.5359,3.5504,3.5504,3.5504,3.5504,3.5504,3.5504,3.5504,3.5504,3.5504,3.5504,3.5504,3.5504,3.5504,3.5504,3.5619,3.5797,3.6085,3.689,3.839,3.8882,3.9309,3.959,3.9677,3.9677,2.2232,0.0,0.0,0.0,0.0,0.0,0.0,0.0,0.0,0.0,0.0,0.0,0.0,0.0,0.0,0.0,0.0,0.0,0.0,0.0,0.0,0.0,0.0,0.0,0.0,0.0,0.0,0.0,0.0,0.0,3.1224,3.2256,3.3042,3.3463,3.3917,3.4264,3.4414,3.4414,3.4414,3.4414,3.4414,3.4414,3.4414,3.4414,3.4414,3.4414,3.4414,3.4481,3.4563,3.4481,3.4481,3.4631,3.4631,3.4683,3.4735,3.4817,3.4802,3.4802,3.4868,3.4868,3.4802,3.4802,3.475,3.4631,3.4631,3.4481,3.4414,3.4563,3.4631,3.4616,3.475,3.4735,3.4735,3.4735,3.4735,3.4735,3.4735,3.4802,3.4935,3.4935,3.4935,3.4935,3.4935,3.4935,3.4935,3.5082,3.5082,3.5148,3.5359,3.5424,3.5439,3.5504,3.5504,3.5504,3.5504,3.5504,3.5504,3.5504,3.5504,3.5504,3.5504,3.5504,3.5504,3.5504,3.5668,3.643,3.7648,3.8423,3.8898,3.9077,3.9415,3.9573,0.0,0.0,0.0,0.0,0.0,0.0,0.0,0.0,0.0,0.0,0.0,0.0,0.0,0.0,0.0,0.0,0.0,0.0,0.0,0.0,0.0,0.0,0.0,0.0,0.0,0.0,0.0,0.0,0.0,3.0251,2.9608,3.015,3.105,3.234,3.2904,3.3589,3.4346,3.4414,3.4414,3.4414,3.4414,3.4414,3.4414,3.4414,3.4414,3.4414,3.4414,3.4414,3.4414,3.4414,3.4414,3.4414,3.4414,3.4414,3.4414,3.4631,3.4698,3.4698,3.4802,3.4817,3.4698,3.4698,3.4563,3.4414,3.4414,3.4414,3.4414,3.4414,3.4414,3.4414,3.4414,3.4414,3.4414,3.4414,3.4414,3.4414,3.4414,3.4668,3.4868,3.4868,3.4868,3.4868,3.4868,3.4868,3.4868,3.4868,3.4868,3.4935,3.5148,3.5213,3.5294,3.5439,3.5504,3.5504,3.5504,3.5504,3.5504,3.5504,3.5504,3.5504,3.5504,3.5504,3.5504,3.5504,3.6085,3.6368,3.6368,3.7071,3.7706,3.8351,3.8969,3.9379,2.0334,0.0,0.0,0.0,0.0,0.0,0.0,0.0,0.0,0.0,0.0,0.0,0.0,0.0,0.0,0.0,0.0,0.0,0.0,0.0,0.0,0.0,0.0,0.0,0.0,0.0,0.0,0.0,2.9685,2.9546,2.8826,2.9761,3.0746,3.1584,3.2612,3.3297,3.352,3.4113,3.4414,3.4414,3.4414,3.4414,3.4414,3.4414,3.4414,3.4414,3.4414,3.4414,3.4414,3.4414,3.4414,3.4414,3.4414,3.4414,3.4414,3.4481,3.4481,3.4481,3.4549,3.4481,3.4481,3.4481,3.4481,3.4414,3.4414,3.4414,3.4414,3.4414,3.4414,3.4414,3.4414,3.4414,3.4414,3.4414,3.4414,3.4414,3.4414,3.4481,3.4534,3.4534,3.4534,3.4534,3.4534,3.4534,3.4616,3.475,3.4765,3.4817,3.4935,3.5001,3.5082,3.5294,3.5294,3.5359,3.5504,3.5504,3.5504,3.5504,3.5504,3.5504,3.5504,3.5504,3.5504,3.5504,3.5683,3.5733,3.5733,3.6845,3.7706,3.8351,3.8969,3.9325,0.0,0.0,0.0,0.0,0.0,0.0,0.0,0.0,0.0,0.0,0.0,0.0,0.0,0.0,0.0,0.0,0.0,0.0,0.0,0.0,0.0,0.0,0.0,0.0,0.0,0.0,0.0,2.8338,2.8839,2.8826,2.8117,2.8946,2.9803,3.0462,3.1409,3.2329,3.3213,3.3381,3.3756,3.4414,3.4045,3.4045,3.4414,3.4414,3.4414,3.4414,3.4414,3.4414,3.4414,3.4414,3.4414,3.4414,3.4414,3.4414,3.4414,3.4414,3.4414,3.4414,3.4414,3.4414,3.4414,3.4414,3.4414,3.4414,3.4414,3.4414,3.4414,3.4414,3.4414,3.4414,3.4414,3.4414,3.4414,3.4414,3.4414,3.4414,3.4414,3.4414,3.4414,3.4414,3.4414,3.4414,3.4414,3.4414,3.4414,3.4563,3.4563,3.4616,3.4817,3.4817,3.4883,3.5082,3.5082,3.5148,3.5359,3.5359,3.5359,3.5359,3.5439,3.5439,3.5359,3.5359,3.5439,3.5504,3.5439,3.5439,3.5504,3.6492,3.7413,3.8294,3.8717,3.9023,0.0,0.0,0.0,0.0,0.0,0.0,2.2906,2.2945,0.0,0.0,0.0,0.0,0.0,0.0,0.0,0.0,0.0,0.0,0.0,0.0,0.0,0.0,0.0,0.0,0.0,2.8051,2.7855,2.6714,2.767,2.8051,2.7417,2.7949,2.8547,2.9151,2.9849,3.1055,3.2918,3.2362,3.2804,3.4128,3.352,3.3589,3.4264,3.4346,3.4414,3.4414,3.4414,3.4414,3.4414,3.4414,3.4414,3.4414,3.4414,3.4414,3.4414,3.4414,3.4414,3.4414,3.4414,3.4414,3.4414,3.4414,3.4414,3.4414,3.4414,3.4414,3.4414,3.4414,3.4414,3.4414,3.4414,3.4414,3.4414,3.4414,3.4414,3.4414,3.4414,3.4414,3.4414,3.4414,3.4414,3.4414,3.4414,3.4414,3.4414,3.4414,3.4414,3.4481,3.4631,3.4698,3.4698,3.4868,3.4868,3.4935,3.5148,3.5148,3.5148,3.5148,3.5359,3.5359,3.5148,3.5148,3.5228,3.5439,3.5294,3.5294,3.5504,3.6085,3.7011,3.8222,3.8294,3.8645,0.0,0.0,0.0,0.0,0.0,0.0,0.0,2.0282,0.0,0.0,0.0,0.0,0.0,0.0,0.0,0.0,0.0,0.0,0.0,0.0,0.0,0.0,0.0,0.0,0.0,2.7604,2.7604,2.7284,2.704,2.685,2.6714,2.7594,2.8201,2.8315,2.9921,3.0926,3.1328,3.1856,3.2232,3.2519,3.3003,3.3297,3.3451,3.4113,3.4414,3.4414,3.4414,3.4414,3.4414,3.4414,3.4414,3.4414,3.4414,3.4414,3.4414,3.4414,3.4414,3.4414,3.4414,3.4414,3.4414,3.4414,3.4414,3.4414,3.4414,3.4414,3.4414,3.4414,3.4414,3.4414,3.4414,3.4414,3.4414,3.4414,3.4414,3.4414,3.4414,3.4414,3.4414,3.4414,3.4414,3.4414,3.4414,3.4414,3.4414,3.4414,3.4414,3.4414,3.4481,3.4481,3.4549,3.4698,3.4765,3.4817,3.4935,3.4935,3.4935,3.4935,3.5001,3.5001,3.4935,3.4935,3.5001,3.5001,3.5148,3.5294,3.5504,3.6085,3.6784,3.7605,3.8051,3.8645,0.0,0.0,0.0,1.9637,0.0,0.0,0.0,0.0,0.0,0.0,0.0,0.0,0.0,0.0,0.0,0.0,0.0,0.0,0.0,0.0,0.0,0.0,0.0,0.0,0.0,2.6769,2.6905,2.6973,2.6589,2.6396,2.6465,2.6979,2.7544,2.8084,2.8982,2.9964,3.0882,3.0921,3.1368,3.2074,3.2434,3.2861,3.3213,3.4045,3.4414,3.4414,3.4414,3.4414,3.4414,3.4414,3.4414,3.4414,3.4414,3.4414,3.4414,3.4414,3.4414,3.4414,3.4414,3.4414,3.4414,3.4414,3.4414,3.4414,3.4414,3.4414,3.4414,3.4414,3.4414,3.4414,3.4414,3.4414,3.4414,3.4414,3.4414,3.4414,3.4414,3.4414,3.4414,3.4414,3.4414,3.4414,3.4414,3.4414,3.4414,3.4414,3.4414,3.4414,3.4414,3.4414,3.4414,3.4549,3.4563,3.4616,3.4817,3.4817,3.4817,3.4817,3.4868,3.4868,3.4817,3.4817,3.4817,3.4817,3.5082,3.5228,3.5359,3.5718,3.6258,3.6906,3.7531,3.8181,0.0,0.0,0.0,0.0,0.0,2.0297,0.0,0.0,0.0,0.0,0.0,0.0,0.0,0.0,0.0,0.0,0.0,0.0,0.0,0.0,0.0,0.0,0.0,0.0,0.0,2.5664,2.5896,2.6371,2.599,2.5965,2.6383,2.6565,2.708,2.8072,2.821,2.9022,3.0683,3.0075,3.0444,3.1649,3.1942,3.2434,3.3003,3.3962,3.4414,3.4414,3.4414,3.4414,3.4414,3.4414,3.4414,3.4414,3.4414,3.4414,3.4414,3.4414,3.4414,3.4414,3.4414,3.4414,3.4414,3.4414,3.4414,3.4414,3.4414,3.4414,3.4414,3.4414,3.4414,3.4414,3.4414,3.4414,3.4414,3.4414,3.4414,3.4414,3.4414,3.4414,3.4414,3.4414,3.4414,3.4414,3.4414,3.4414,3.4414,3.4414,3.4414,3.4414,3.4414,3.4414,3.4414,3.4414,3.4414,3.4481,3.4631,3.4631,3.4631,3.4631,3.475,3.475,3.4631,3.4631,3.4631,3.4698,3.4964,3.5162,3.5213,3.5489,3.5958,3.66,3.7131,3.7764,0.0,0.0,0.0,0.0,2.0863,0.0,0.0,0.0,0.0,0.0,0.0,0.0,0.0,0.0,0.0,0.0,0.0,0.0,0.0,0.0,0.0,0.0,0.0,0.0,0.0,0.0,2.437,2.5824,2.4774,2.464,2.6151,2.6859,2.7469,2.8084,2.8586,2.9139,2.9934,2.9856,2.9869,3.0075,3.1442,3.2146,3.229,3.3756,3.4414,3.4414,3.4414,3.4414,3.4414,3.4414,3.4414,3.4414,3.4414,3.4414,3.4414,3.4414,3.4414,3.4414,3.4414,3.4414,3.4414,3.4414,3.4414,3.4414,3.4414,3.4414,3.4414,3.4414,3.4414,3.4414,3.4414,3.4414,3.4414,3.4414,3.4414,3.4414,3.4414,3.4414,3.4414,3.4414,3.4414,3.4414,3.4414,3.4414,3.4414,3.4414,3.4414,3.4414,3.4414,3.4414,3.4414,3.4414,3.4414,3.4414,3.4414,3.4414,3.4414,3.4414,3.4481,3.4481,3.4414,3.4414,3.4481,3.4698,3.4765,3.4898,3.5213,3.5831,3.6554,3.731,3.737,3.801,0.0,0.0,0.0,0.0,0.0,0.0,0.0,0.0,1.9348,0.0,0.0,0.0,0.0,0.0,0.0,0.0,0.0,0.0,0.0,0.0,0.0,0.0,0.0,0.0,0.0,0.0,0.0,0.0,0.0,2.4316,2.607,2.6621,2.7205,2.8084,2.8335,2.8888,2.9779,2.9792,2.9792,2.9792,3.0921,3.1636,3.2146,3.3241,3.3962,3.4414,3.4414,3.4414,3.4414,3.4414,3.4414,3.4414,3.4414,3.4414,3.4414,3.4414,3.4414,3.4414,3.4414,3.4414,3.4414,3.4414,3.4414,3.4414,3.4414,3.4414,3.4414,3.4414,3.4414,3.4414,3.4414,3.4414,3.4414,3.4414,3.4414,3.4414,3.4414,3.4414,3.4414,3.4414,3.4414,3.4414,3.4414,3.4414,3.4414,3.4414,3.4414,3.4414,3.4414,3.4414,3.4414,3.4414,3.4414,3.4414,3.4414,3.4414,3.4414,3.4414,3.4414,3.4414,3.4414,3.4414,3.4414,3.4481,3.4631,3.4831,3.5001,3.5459,3.6243,3.7429,3.7429,3.7895,2.126,0.0,0.0,0.0,0.0,0.0,0.0,0.0,0.0,0.0,0.0,0.0,0.0,0.0,0.0,0.0,0.0,0.0,0.0,0.0,0.0,0.0,0.0,0.0,0.0,0.0,0.0,0.0,0.0,0.0,2.5906,2.6258,2.6897,2.7986,2.8109,2.8649,2.9779,2.9792,2.9792,2.9792,3.0545,3.1328,3.2146,3.2861,3.3673,3.4414,3.4414,3.4414,3.4414,3.4414,3.4414,3.4414,3.4414,3.4414,3.4414,3.4414,3.4414,3.4414,3.4414,3.4414,3.4414,3.4414,3.4414,3.4414,3.4414,3.4414,3.4414,3.4414,3.4414,3.4414,3.4414,3.4414,3.4414,3.4414,3.4414,3.4414,3.4414,3.4414,3.4414,3.4414,3.4414,3.4414,3.4414,3.4414,3.4414,3.4414,3.4414,3.4414,3.4346,3.4346,3.4414,3.4346,3.4346,3.4414,3.4414,3.4414,3.4414,3.4414,3.4414,3.4414,3.4414,3.4414,3.4414,3.4414,3.4549,3.4683,3.4935,3.5249,3.5991,3.7131,3.731,3.7838,0.0,0.0,0.0,2.1139,0.0,0.0,0.0,0.0,2.0234,0.0,0.0,0.0,0.0,0.0,0.0,1.752,0.0,0.0,0.0,0.0,0.0,0.0,0.0,0.0,0.0,0.0,0.0,0.0,0.0,0.0,2.5426,2.598,2.6698,2.7754,2.8024,2.8649,2.9779,2.9792,2.9792,2.9792,3.0545,3.1328,3.2146,3.2861,3.3673,3.4414,3.4414,3.4414,3.4414,3.4414,3.4414,3.4414,3.4414,3.4414,3.4414,3.4414,3.4414,3.4414,3.4414,3.4414,3.4414,3.4414,3.4414,3.4414,3.4414,3.4414,3.4414,3.4414,3.4414,3.4414,3.4414,3.4414,3.4414,3.4414,3.4414,3.4414,3.4414,3.4414,3.4414,3.4414,3.4414,3.4414,3.4414,3.4414,3.4414,3.4414,3.4414,3.4346,3.4128,3.4264,3.4346,3.4128,3.4264,3.4414,3.4414,3.4414,3.4414,3.4414,3.4414,3.4414,3.4414,3.4414,3.4414,3.4414,3.4414,3.4549,3.4935,3.5544,3.6039,3.643,3.7071,3.8084,0.0,0.0,2.3328,2.0991,0.0,0.0,0.0,0.0,0.0,0.0,0.0,0.0,0.0,0.0,0.0,1.7007,0.0,0.0,0.0,0.0,0.0,0.0,0.0,0.0,0.0,0.0,0.0,0.0,0.0,0.0,0.0,2.598,2.6685,2.7754,2.8024,2.8649,2.9779,2.9792,2.9792,2.9792,3.0062,3.0558,3.1328,3.1549,3.2349,3.3589,3.3087,3.3157,3.3604,3.3604,3.3311,3.296,3.3451,3.3311,3.296,3.3451,3.3604,3.3604,3.3604,3.3604,3.3673,3.4264,3.4414,3.4414,3.4414,3.4414,3.4414,3.4414,3.4414,3.4414,3.4414,3.4414,3.4414,3.4414,3.4414,3.4414,3.4414,3.4414,3.4414,3.4414,3.4414,3.4414,3.4414,3.4414,3.4414,3.4414,3.4278,3.4196,3.4128,3.4074,3.4088,3.4128,3.4128,3.4264,3.4414,3.4414,3.4414,3.4414,3.4414,3.4414,3.4414,3.4414,3.4414,3.4414,3.4414,3.4549,3.475,3.5052,3.5623,3.6258,3.66,3.7429,2.1561,2.2349,0.0,2.1105,2.1011,0.0,1.8851,0.0,0.0,0.0,0.0,0.0,0.0,0.0,0.0,1.6979,1.6137,0.0,0.0,0.0,0.0,0.0,0.0,0.0,0.0,0.0,1.9727,2.2338,0.0,0.0,0.0,0.0,2.667,2.7545,2.799,2.8612,2.9534,2.9546,2.9624,2.9689,2.9689,3.0114,3.0895,3.0895,3.1623,3.2791,3.2577,3.2577,3.2861,3.3073,3.2791,3.2146,3.2648,3.2506,3.2146,3.2648,3.2791,3.2861,3.3073,3.3003,3.2861,3.3673,3.3894,3.3894,3.3962,3.4182,3.4332,3.4045,3.3962,3.3962,3.3962,3.3756,3.3687,3.3894,3.3756,3.3604,3.3604,3.3534,3.3465,3.3465,3.3395,3.3381,3.3381,3.3381,3.3604,3.4196,3.4196,3.4059,3.3922,3.3882,3.3951,3.4005,3.4059,3.4196,3.4414,3.4414,3.4414,3.4414,3.4414,3.4414,3.4414,3.4414,3.4414,3.4414,3.4414,3.4481,3.4698,3.4817,3.5198,3.5831,3.6196,3.689]}]]